Wetterdaten: Mittwoch, 16.11.2016
Datum Zeit Temp. A. Temp. A. max Feuchte A. Luftdruck Regen Wind Richtung Richtung Sonnenschein ET UV Solar Taupunkt Windböen
16.11.2016 00:00 4,5 °C 4,5 °C 89 % 1028,6 hPa 0,0 mm 4,0 km/h (1 Bft) S-SW 207 ° 0 min 0,000 mm 0,0 UV-I 0 W/m² 2,8 °C 6,4 km/h (2 Bft)
16.11.2016 00:01 4,6 °C 4,6 °C 89 % 1028,5 hPa 0,0 mm 3,2 km/h (1 Bft) SW 218 ° 0 min 0,000 mm 0,0 UV-I 0 W/m² 2,9 °C 6,4 km/h (2 Bft)
16.11.2016 00:02 4,6 °C 4,6 °C 90 % 1028,5 hPa 0,0 mm 4,0 km/h (1 Bft) W-SW 246 ° 0 min 0,000 mm 0,0 UV-I 0 W/m² 3,1 °C 4,8 km/h (1 Bft)
16.11.2016 00:03 4,6 °C 4,6 °C 90 % 1028,4 hPa 0,0 mm 5,9 km/h (2 Bft) S-SW 206 ° 0 min 0,000 mm 0,0 UV-I 0 W/m² 3,1 °C 8,0 km/h (2 Bft)
16.11.2016 00:04 4,6 °C 4,6 °C 90 % 1028,4 hPa 0,0 mm 3,9 km/h (1 Bft) SW 229 ° 0 min 0,000 mm 0,0 UV-I 0 W/m² 3,1 °C 4,8 km/h (1 Bft)
16.11.2016 00:05 4,6 °C 4,6 °C 90 % 1028,4 hPa 0,0 mm 3,4 km/h (1 Bft) SW 229 ° 0 min 0,000 mm 0,0 UV-I 0 W/m² 3,1 °C 4,8 km/h (1 Bft)
16.11.2016 00:06 4,6 °C 4,6 °C 90 % 1028,4 hPa 0,0 mm 3,2 km/h (1 Bft) SW 229 ° 0 min 0,000 mm 0,0 UV-I 0 W/m² 3,1 °C 4,8 km/h (1 Bft)
16.11.2016 00:07 4,6 °C 4,6 °C 90 % 1028,4 hPa 0,0 mm 1,5 km/h (1 Bft) SW 229 ° 0 min 0,000 mm 0,0 UV-I 0 W/m² 3,1 °C 3,2 km/h (1 Bft)
16.11.2016 00:08 4,6 °C 4,6 °C 90 % 1028,4 hPa 0,0 mm 2,3 km/h (1 Bft) SW 229 ° 0 min 0,000 mm 0,0 UV-I 0 W/m² 3,1 °C 3,2 km/h (1 Bft)
16.11.2016 00:09 4,6 °C 4,6 °C 90 % 1028,3 hPa 0,0 mm 2,1 km/h (1 Bft) SW 229 ° 0 min 0,000 mm 0,0 UV-I 0 W/m² 3,1 °C 3,2 km/h (1 Bft)
16.11.2016 00:10 4,6 °C 4,6 °C 90 % 1028,3 hPa 0,0 mm 2,6 km/h (1 Bft) SW 229 ° 0 min 0,000 mm 0,0 UV-I 0 W/m² 3,1 °C 3,2 km/h (1 Bft)
16.11.2016 00:11 4,6 °C 4,6 °C 90 % 1028,3 hPa 0,0 mm 2,6 km/h (1 Bft) SW 229 ° 0 min 0,000 mm 0,0 UV-I 0 W/m² 3,1 °C 3,2 km/h (1 Bft)
16.11.2016 00:12 4,6 °C 4,6 °C 90 % 1028,3 hPa 0,0 mm 2,7 km/h (1 Bft) SW 229 ° 0 min 0,000 mm 0,0 UV-I 0 W/m² 3,1 °C 4,8 km/h (1 Bft)
16.11.2016 00:13 4,6 °C 4,6 °C 90 % 1028,3 hPa 0,0 mm 3,0 km/h (1 Bft) SW 229 ° 0 min 0,000 mm 0,0 UV-I 0 W/m² 3,1 °C 3,2 km/h (1 Bft)
16.11.2016 00:14 4,6 °C 4,6 °C 90 % 1028,3 hPa 0,0 mm 2,5 km/h (1 Bft) SW 229 ° 0 min 0,000 mm 0,0 UV-I 0 W/m² 3,1 °C 3,2 km/h (1 Bft)
16.11.2016 00:15 4,5 °C 4,6 °C 90 % 1028,3 hPa 0,0 mm 4,9 km/h (1 Bft) S-SW 200 ° 0 min 0,000 mm 0,0 UV-I 0 W/m² 3,0 °C 9,7 km/h (2 Bft)
16.11.2016 00:16 4,5 °C 4,5 °C 90 % 1028,2 hPa 0,0 mm 3,0 km/h (1 Bft) S-SW 200 ° 0 min 0,000 mm 0,0 UV-I 0 W/m² 3,0 °C 4,8 km/h (1 Bft)
16.11.2016 00:17 4,5 °C 4,5 °C 90 % 1028,2 hPa 0,0 mm 2,5 km/h (1 Bft) S-SW 200 ° 0 min 0,000 mm 0,0 UV-I 0 W/m² 3,0 °C 4,8 km/h (1 Bft)
16.11.2016 00:18 4,5 °C 4,5 °C 90 % 1028,2 hPa 0,0 mm 1,3 km/h (1 Bft) S-SW 200 ° 0 min 0,000 mm 0,0 UV-I 0 W/m² 3,0 °C 3,2 km/h (1 Bft)
16.11.2016 00:19 4,5 °C 4,5 °C 90 % 1028,3 hPa 0,0 mm 3,4 km/h (1 Bft) W 261 ° 0 min 0,000 mm 0,0 UV-I 0 W/m² 3,0 °C 4,8 km/h (1 Bft)
16.11.2016 00:20 4,5 °C 4,5 °C 90 % 1028,2 hPa 0,0 mm 1,8 km/h (1 Bft) W 261 ° 0 min 0,000 mm 0,0 UV-I 0 W/m² 3,0 °C 4,8 km/h (1 Bft)
16.11.2016 00:21 4,5 °C 4,5 °C 90 % 1028,3 hPa 0,0 mm 6,4 km/h (2 Bft) W 262 ° 0 min 0,000 mm 0,0 UV-I 0 W/m² 3,0 °C 9,7 km/h (2 Bft)
16.11.2016 00:22 4,5 °C 4,5 °C 90 % 1028,2 hPa 0,0 mm 3,8 km/h (1 Bft) W 267 ° 0 min 0,000 mm 0,0 UV-I 0 W/m² 3,0 °C 4,8 km/h (1 Bft)
16.11.2016 00:23 4,5 °C 4,5 °C 90 % 1028,3 hPa 0,0 mm 5,4 km/h (1 Bft) W-SW 248 ° 0 min 0,000 mm 0,0 UV-I 0 W/m² 3,0 °C 6,4 km/h (2 Bft)
16.11.2016 00:24 4,4 °C 4,5 °C 90 % 1028,2 hPa 0,0 mm 3,2 km/h (1 Bft) W-SW 249 ° 0 min 0,000 mm 0,0 UV-I 0 W/m² 2,9 °C 4,8 km/h (1 Bft)
16.11.2016 00:25 4,4 °C 4,4 °C 90 % 1028,2 hPa 0,0 mm 3,1 km/h (1 Bft) SW 221 ° 0 min 0,000 mm 0,0 UV-I 0 W/m² 2,9 °C 4,8 km/h (1 Bft)
16.11.2016 00:26 4,4 °C 4,4 °C 90 % 1028,2 hPa 0,0 mm 4,8 km/h (1 Bft) S-SW 203 ° 0 min 0,000 mm 0,0 UV-I 0 W/m² 2,9 °C 6,4 km/h (2 Bft)
16.11.2016 00:27 4,4 °C 4,4 °C 90 % 1028,2 hPa 0,0 mm 6,3 km/h (2 Bft) S-SO 165 ° 0 min 0,000 mm 0,0 UV-I 0 W/m² 2,9 °C 9,7 km/h (2 Bft)
16.11.2016 00:28 4,4 °C 4,4 °C 90 % 1028,1 hPa 0,0 mm 0,7 km/h (0 Bft) S-SO 165 ° 0 min 0,000 mm 0,0 UV-I 0 W/m² 2,9 °C 1,6 km/h (1 Bft)
16.11.2016 00:29 4,4 °C 4,4 °C 90 % 1028,1 hPa 0,0 mm 1,1 km/h (1 Bft) SW 223 ° 0 min 0,000 mm 0,0 UV-I 0 W/m² 2,9 °C 3,2 km/h (1 Bft)
16.11.2016 00:30 4,4 °C 4,4 °C 90 % 1028,1 hPa 0,0 mm 5,2 km/h (1 Bft) S-SW 213 ° 0 min 0,000 mm 0,0 UV-I 0 W/m² 2,9 °C 8,0 km/h (2 Bft)
16.11.2016 00:31 4,3 °C 4,4 °C 90 % 1028,1 hPa 0,0 mm 3,4 km/h (1 Bft) S-SW 213 ° 0 min 0,000 mm 0,0 UV-I 0 W/m² 2,8 °C 6,4 km/h (2 Bft)
16.11.2016 00:32 4,3 °C 4,3 °C 90 % 1028,1 hPa 0,0 mm 0,7 km/h (0 Bft) S-SW 213 ° 0 min 0,000 mm 0,0 UV-I 0 W/m² 2,8 °C 1,6 km/h (1 Bft)
16.11.2016 00:33 4,3 °C 4,3 °C 90 % 1028,1 hPa 0,0 mm 2,0 km/h (1 Bft) W-SW 248 ° 0 min 0,000 mm 0,0 UV-I 0 W/m² 2,8 °C 3,2 km/h (1 Bft)
16.11.2016 00:34 4,3 °C 4,4 °C 90 % 1028,1 hPa 0,0 mm 6,8 km/h (2 Bft) W 269 ° 0 min 0,000 mm 0,0 UV-I 0 W/m² 2,8 °C 11,3 km/h (2 Bft)
16.11.2016 00:35 4,3 °C 4,3 °C 91 % 1028,1 hPa 0,0 mm 3,4 km/h (1 Bft) W 269 ° 0 min 0,000 mm 0,0 UV-I 0 W/m² 3,0 °C 6,4 km/h (2 Bft)
16.11.2016 00:36 4,3 °C 4,3 °C 91 % 1028,0 hPa 0,0 mm 0,3 km/h (0 Bft) W 269 ° 0 min 0,000 mm 0,0 UV-I 0 W/m² 3,0 °C 1,6 km/h (1 Bft)
16.11.2016 00:37 4,3 °C 4,3 °C 91 % 1028,0 hPa 0,0 mm 3,1 km/h (1 Bft) W 269 ° 0 min 0,000 mm 0,0 UV-I 0 W/m² 3,0 °C 4,8 km/h (1 Bft)
16.11.2016 00:38 4,3 °C 4,3 °C 91 % 1028,1 hPa 0,0 mm 3,8 km/h (1 Bft) W 268 ° 0 min 0,000 mm 0,0 UV-I 0 W/m² 3,0 °C 4,8 km/h (1 Bft)
16.11.2016 00:39 4,3 °C 4,3 °C 91 % 1028,1 hPa 0,0 mm 3,2 km/h (1 Bft) W 268 ° 0 min 0,000 mm 0,0 UV-I 0 W/m² 3,0 °C 4,8 km/h (1 Bft)
16.11.2016 00:40 4,3 °C 4,3 °C 91 % 1028,1 hPa 0,0 mm 3,0 km/h (1 Bft) W 268 ° 0 min 0,000 mm 0,0 UV-I 0 W/m² 3,0 °C 4,8 km/h (1 Bft)
16.11.2016 00:41 4,3 °C 4,3 °C 91 % 1028,1 hPa 0,0 mm 2,8 km/h (1 Bft) W 268 ° 0 min 0,000 mm 0,0 UV-I 0 W/m² 3,0 °C 4,8 km/h (1 Bft)
16.11.2016 00:42 4,3 °C 4,3 °C 91 % 1028,1 hPa 0,0 mm 3,3 km/h (1 Bft) W 268 ° 0 min 0,000 mm 0,0 UV-I 0 W/m² 3,0 °C 4,8 km/h (1 Bft)
16.11.2016 00:43 4,3 °C 4,3 °C 91 % 1028,1 hPa 0,0 mm 2,7 km/h (1 Bft) SW 218 ° 0 min 0,000 mm 0,0 UV-I 0 W/m² 3,0 °C 3,2 km/h (1 Bft)
16.11.2016 00:44 4,3 °C 4,3 °C 91 % 1028,0 hPa 0,0 mm 4,8 km/h (1 Bft) S 182 ° 0 min 0,000 mm 0,0 UV-I 0 W/m² 3,0 °C 8,0 km/h (2 Bft)
16.11.2016 00:45 4,3 °C 4,3 °C 91 % 1028,1 hPa 0,0 mm 5,6 km/h (1 Bft) S 180 ° 0 min 0,000 mm 0,0 UV-I 0 W/m² 3,0 °C 8,0 km/h (2 Bft)
16.11.2016 00:46 4,3 °C 4,3 °C 91 % 1028,0 hPa 0,0 mm 8,0 km/h (2 Bft) S-SW 204 ° 0 min 0,000 mm 0,0 UV-I 0 W/m² 3,0 °C 11,3 km/h (2 Bft)
16.11.2016 00:47 4,3 °C 4,3 °C 91 % 1028,0 hPa 0,0 mm 8,9 km/h (2 Bft) S-SW 203 ° 0 min 0,000 mm 0,0 UV-I 0 W/m² 3,0 °C 11,3 km/h (2 Bft)
16.11.2016 00:48 4,3 °C 4,3 °C 91 % 1028,0 hPa 0,0 mm 7,0 km/h (2 Bft) S-SW 192 ° 0 min 0,000 mm 0,0 UV-I 0 W/m² 3,0 °C 8,0 km/h (2 Bft)
16.11.2016 00:49 4,3 °C 4,3 °C 91 % 1028,1 hPa 0,0 mm 7,8 km/h (2 Bft) S 190 ° 0 min 0,000 mm 0,0 UV-I 0 W/m² 3,0 °C 9,7 km/h (2 Bft)
16.11.2016 00:50 4,3 °C 4,3 °C 91 % 1028,1 hPa 0,0 mm 6,4 km/h (2 Bft) S 190 ° 0 min 0,000 mm 0,0 UV-I 0 W/m² 3,0 °C 9,7 km/h (2 Bft)
16.11.2016 00:51 4,3 °C 4,3 °C 91 % 1028,0 hPa 0,0 mm 5,9 km/h (2 Bft) S 185 ° 0 min 0,000 mm 0,0 UV-I 0 W/m² 3,0 °C 8,0 km/h (2 Bft)
16.11.2016 00:52 4,3 °C 4,3 °C 91 % 1028,0 hPa 0,0 mm 6,3 km/h (2 Bft) S 170 ° 0 min 0,000 mm 0,0 UV-I 0 W/m² 3,0 °C 8,0 km/h (2 Bft)
16.11.2016 00:53 4,3 °C 4,3 °C 91 % 1028,0 hPa 0,0 mm 5,8 km/h (2 Bft) S 188 ° 0 min 0,000 mm 0,0 UV-I 0 W/m² 3,0 °C 8,0 km/h (2 Bft)
16.11.2016 00:54 4,3 °C 4,3 °C 91 % 1028,0 hPa 0,0 mm 3,2 km/h (1 Bft) S 174 ° 0 min 0,000 mm 0,0 UV-I 0 W/m² 3,0 °C 4,8 km/h (1 Bft)
16.11.2016 00:55 4,3 °C 4,3 °C 91 % 1028,0 hPa 0,0 mm 1,7 km/h (1 Bft) S 174 ° 0 min 0,000 mm 0,0 UV-I 0 W/m² 3,0 °C 3,2 km/h (1 Bft)
16.11.2016 00:56 4,3 °C 4,3 °C 91 % 1028,0 hPa 0,0 mm 3,5 km/h (1 Bft) S 188 ° 0 min 0,000 mm 0,0 UV-I 0 W/m² 3,0 °C 6,4 km/h (2 Bft)
16.11.2016 00:57 4,3 °C 4,3 °C 91 % 1028,0 hPa 0,0 mm 6,3 km/h (2 Bft) S-SW 194 ° 0 min 0,000 mm 0,0 UV-I 0 W/m² 3,0 °C 8,0 km/h (2 Bft)
16.11.2016 00:58 4,3 °C 4,3 °C 92 % 1027,9 hPa 0,0 mm 5,0 km/h (1 Bft) S 178 ° 0 min 0,000 mm 0,0 UV-I 0 W/m² 3,1 °C 6,4 km/h (2 Bft)
16.11.2016 00:59 4,3 °C 4,3 °C 92 % 1027,9 hPa 0,0 mm 3,7 km/h (1 Bft) S 178 ° 0 min 0,000 mm 0,0 UV-I 0 W/m² 3,1 °C 4,8 km/h (1 Bft)
16.11.2016 01:00 4,3 °C 4,3 °C 92 % 1027,9 hPa 0,0 mm 4,3 km/h (1 Bft) S 178 ° 0 min 0,000 mm 0,0 UV-I 0 W/m² 3,1 °C 4,8 km/h (1 Bft)
16.11.2016 01:01 4,4 °C 4,4 °C 92 % 1027,9 hPa 0,0 mm 3,4 km/h (1 Bft) S 178 ° 0 min 0,000 mm 0,0 UV-I 0 W/m² 3,2 °C 4,8 km/h (1 Bft)
16.11.2016 01:02 4,4 °C 4,4 °C 92 % 1027,8 hPa 0,0 mm 3,1 km/h (1 Bft) S 178 ° 0 min 0,000 mm 0,0 UV-I 0 W/m² 3,2 °C 4,8 km/h (1 Bft)
16.11.2016 01:03 4,4 °C 4,4 °C 92 % 1027,8 hPa 0,0 mm 3,2 km/h (1 Bft) S 178 ° 0 min 0,000 mm 0,0 UV-I 0 W/m² 3,2 °C 4,8 km/h (1 Bft)
16.11.2016 01:04 4,4 °C 4,4 °C 92 % 1027,8 hPa 0,0 mm 3,4 km/h (1 Bft) S-SW 208 ° 0 min 0,000 mm 0,0 UV-I 0 W/m² 3,2 °C 6,4 km/h (2 Bft)
16.11.2016 01:05 4,4 °C 4,4 °C 92 % 1027,8 hPa 0,0 mm 4,8 km/h (1 Bft) S-SW 200 ° 0 min 0,000 mm 0,0 UV-I 0 W/m² 3,2 °C 6,4 km/h (2 Bft)
16.11.2016 01:06 4,4 °C 4,4 °C 92 % 1027,8 hPa 0,0 mm 5,2 km/h (1 Bft) S-SW 200 ° 0 min 0,000 mm 0,0 UV-I 0 W/m² 3,2 °C 6,4 km/h (2 Bft)
16.11.2016 01:07 4,4 °C 4,4 °C 92 % 1027,8 hPa 0,0 mm 3,0 km/h (1 Bft) S 188 ° 0 min 0,000 mm 0,0 UV-I 0 W/m² 3,2 °C 4,8 km/h (1 Bft)
16.11.2016 01:08 4,4 °C 4,4 °C 92 % 1027,8 hPa 0,0 mm 4,0 km/h (1 Bft) S-SW 196 ° 0 min 0,000 mm 0,0 UV-I 0 W/m² 3,2 °C 4,8 km/h (1 Bft)
16.11.2016 01:09 4,5 °C 4,5 °C 92 % 1027,8 hPa 0,0 mm 6,3 km/h (2 Bft) S 183 ° 0 min 0,000 mm 0,0 UV-I 0 W/m² 3,3 °C 8,0 km/h (2 Bft)
16.11.2016 01:10 4,4 °C 4,5 °C 92 % 1027,8 hPa 0,0 mm 3,3 km/h (1 Bft) S-SW 201 ° 0 min 0,000 mm 0,0 UV-I 0 W/m² 3,2 °C 4,8 km/h (1 Bft)
16.11.2016 01:11 4,5 °C 4,5 °C 92 % 1027,8 hPa 0,0 mm 6,4 km/h (2 Bft) SW 223 ° 0 min 0,000 mm 0,0 UV-I 0 W/m² 3,3 °C 9,7 km/h (2 Bft)
16.11.2016 01:12 4,6 °C 4,6 °C 92 % 1027,8 hPa 0,0 mm 6,8 km/h (2 Bft) SO 141 ° 0 min 0,000 mm 0,0 UV-I 0 W/m² 3,4 °C 9,7 km/h (2 Bft)
16.11.2016 01:13 4,5 °C 4,6 °C 92 % 1027,8 hPa 0,0 mm 3,6 km/h (1 Bft) SO 141 ° 0 min 0,000 mm 0,0 UV-I 0 W/m² 3,3 °C 4,8 km/h (1 Bft)
16.11.2016 01:14 4,6 °C 4,6 °C 92 % 1027,7 hPa 0,0 mm 7,6 km/h (2 Bft) W-SW 250 ° 0 min 0,000 mm 0,0 UV-I 0 W/m² 3,4 °C 11,3 km/h (2 Bft)
16.11.2016 01:15 4,6 °C 4,6 °C 91 % 1027,7 hPa 0,0 mm 4,6 km/h (1 Bft) W 259 ° 0 min 0,000 mm 0,0 UV-I 0 W/m² 3,3 °C 8,0 km/h (2 Bft)
16.11.2016 01:16 4,6 °C 4,6 °C 91 % 1027,7 hPa 0,0 mm 2,8 km/h (1 Bft) W 262 ° 0 min 0,000 mm 0,0 UV-I 0 W/m² 3,3 °C 6,4 km/h (2 Bft)
16.11.2016 01:17 4,6 °C 4,6 °C 92 % 1027,7 hPa 0,0 mm 1,2 km/h (1 Bft) W 262 ° 0 min 0,000 mm 0,0 UV-I 0 W/m² 3,4 °C 1,6 km/h (1 Bft)
16.11.2016 01:18 4,6 °C 4,6 °C 91 % 1027,8 hPa 0,0 mm 2,8 km/h (1 Bft) W 261 ° 0 min 0,000 mm 0,0 UV-I 0 W/m² 3,3 °C 4,8 km/h (1 Bft)
16.11.2016 01:19 4,7 °C 4,7 °C 91 % 1027,8 hPa 0,0 mm 3,6 km/h (1 Bft) W 262 ° 0 min 0,000 mm 0,0 UV-I 0 W/m² 3,4 °C 4,8 km/h (1 Bft)
16.11.2016 01:20 4,7 °C 4,7 °C 91 % 1027,8 hPa 0,0 mm 2,5 km/h (1 Bft) W 262 ° 0 min 0,000 mm 0,0 UV-I 0 W/m² 3,4 °C 4,8 km/h (1 Bft)
16.11.2016 01:21 4,7 °C 4,7 °C 91 % 1027,8 hPa 0,0 mm 3,6 km/h (1 Bft) W 265 ° 0 min 0,000 mm 0,0 UV-I 0 W/m² 3,4 °C 4,8 km/h (1 Bft)
16.11.2016 01:22 4,7 °C 4,7 °C 91 % 1027,8 hPa 0,0 mm 2,9 km/h (1 Bft) W 265 ° 0 min 0,000 mm 0,0 UV-I 0 W/m² 3,4 °C 3,2 km/h (1 Bft)
16.11.2016 01:23 4,7 °C 4,7 °C 91 % 1027,9 hPa 0,0 mm 2,5 km/h (1 Bft) W-SW 243 ° 0 min 0,000 mm 0,0 UV-I 0 W/m² 3,4 °C 4,8 km/h (1 Bft)
16.11.2016 01:24 4,7 °C 4,7 °C 91 % 1027,9 hPa 0,0 mm 2,5 km/h (1 Bft) W-SW 243 ° 0 min 0,000 mm 0,0 UV-I 0 W/m² 3,4 °C 3,2 km/h (1 Bft)
16.11.2016 01:25 4,7 °C 4,8 °C 91 % 1027,8 hPa 0,0 mm 3,4 km/h (1 Bft) W-SW 243 ° 0 min 0,000 mm 0,0 UV-I 0 W/m² 3,4 °C 4,8 km/h (1 Bft)
16.11.2016 01:26 4,8 °C 4,8 °C 91 % 1027,8 hPa 0,0 mm 2,1 km/h (1 Bft) W-SW 243 ° 0 min 0,000 mm 0,0 UV-I 0 W/m² 3,5 °C 3,2 km/h (1 Bft)
16.11.2016 01:27 4,8 °C 4,8 °C 91 % 1027,8 hPa 0,0 mm 2,0 km/h (1 Bft) W-SW 243 ° 0 min 0,000 mm 0,0 UV-I 0 W/m² 3,5 °C 3,2 km/h (1 Bft)
16.11.2016 01:28 4,8 °C 4,8 °C 91 % 1027,7 hPa 0,0 mm 2,4 km/h (1 Bft) W-SW 246 ° 0 min 0,000 mm 0,0 UV-I 0 W/m² 3,5 °C 4,8 km/h (1 Bft)
16.11.2016 01:29 4,8 °C 4,8 °C 91 % 1027,7 hPa 0,0 mm 3,8 km/h (1 Bft) S-SW 197 ° 0 min 0,000 mm 0,0 UV-I 0 W/m² 3,5 °C 6,4 km/h (2 Bft)
16.11.2016 01:30 4,8 °C 4,8 °C 91 % 1027,7 hPa 0,0 mm 5,4 km/h (1 Bft) S-SW 198 ° 0 min 0,000 mm 0,0 UV-I 0 W/m² 3,5 °C 8,0 km/h (2 Bft)
16.11.2016 01:31 4,8 °C 4,8 °C 91 % 1027,6 hPa 0,0 mm 3,8 km/h (1 Bft) S-SW 206 ° 0 min 0,000 mm 0,0 UV-I 0 W/m² 3,5 °C 6,4 km/h (2 Bft)
16.11.2016 01:32 4,8 °C 4,9 °C 91 % 1027,6 hPa 0,0 mm 4,5 km/h (1 Bft) S 184 ° 0 min 0,000 mm 0,0 UV-I 0 W/m² 3,5 °C 8,0 km/h (2 Bft)
16.11.2016 01:33 4,8 °C 4,9 °C 91 % 1027,6 hPa 0,0 mm 3,7 km/h (1 Bft) W 259 ° 0 min 0,000 mm 0,0 UV-I 0 W/m² 3,5 °C 4,8 km/h (1 Bft)
16.11.2016 01:34 4,9 °C 4,9 °C 91 % 1027,6 hPa 0,0 mm 2,1 km/h (1 Bft) W-SW 258 ° 0 min 0,000 mm 0,0 UV-I 0 W/m² 3,6 °C 3,2 km/h (1 Bft)
16.11.2016 01:35 4,9 °C 4,9 °C 91 % 1027,7 hPa 0,0 mm 3,6 km/h (1 Bft) W-SW 250 ° 0 min 0,000 mm 0,0 UV-I 0 W/m² 3,6 °C 6,4 km/h (2 Bft)
16.11.2016 01:36 4,9 °C 4,9 °C 91 % 1027,7 hPa 0,0 mm 2,6 km/h (1 Bft) W-SW 250 ° 0 min 0,000 mm 0,0 UV-I 0 W/m² 3,6 °C 3,2 km/h (1 Bft)
16.11.2016 01:37 4,9 °C 4,9 °C 91 % 1027,7 hPa 0,0 mm 2,6 km/h (1 Bft) W-SW 250 ° 0 min 0,000 mm 0,0 UV-I 0 W/m² 3,6 °C 3,2 km/h (1 Bft)
16.11.2016 01:38 4,9 °C 4,9 °C 91 % 1027,7 hPa 0,0 mm 3,3 km/h (1 Bft) W 263 ° 0 min 0,000 mm 0,0 UV-I 0 W/m² 3,6 °C 4,8 km/h (1 Bft)
16.11.2016 01:39 4,9 °C 4,9 °C 91 % 1027,8 hPa 0,0 mm 1,8 km/h (1 Bft) W 263 ° 0 min 0,000 mm 0,0 UV-I 0 W/m² 3,6 °C 3,2 km/h (1 Bft)
16.11.2016 01:40 4,9 °C 4,9 °C 91 % 1027,8 hPa 0,0 mm 4,4 km/h (1 Bft) S 191 ° 0 min 0,000 mm 0,0 UV-I 0 W/m² 3,6 °C 6,4 km/h (2 Bft)
16.11.2016 01:41 4,9 °C 4,9 °C 91 % 1027,8 hPa 0,0 mm 4,2 km/h (1 Bft) S-SW 202 ° 0 min 0,000 mm 0,0 UV-I 0 W/m² 3,6 °C 8,0 km/h (2 Bft)
16.11.2016 01:42 4,9 °C 4,9 °C 91 % 1027,8 hPa 0,0 mm 2,9 km/h (1 Bft) S 188 ° 0 min 0,000 mm 0,0 UV-I 0 W/m² 3,6 °C 4,8 km/h (1 Bft)
16.11.2016 01:43 4,9 °C 4,9 °C 91 % 1027,7 hPa 0,0 mm 4,1 km/h (1 Bft) W-SW 257 ° 0 min 0,000 mm 0,0 UV-I 0 W/m² 3,6 °C 6,4 km/h (2 Bft)
16.11.2016 01:44 4,9 °C 4,9 °C 91 % 1027,7 hPa 0,0 mm 3,8 km/h (1 Bft) SW 226 ° 0 min 0,000 mm 0,0 UV-I 0 W/m² 3,6 °C 4,8 km/h (1 Bft)
16.11.2016 01:45 4,9 °C 4,9 °C 91 % 1027,7 hPa 0,2 mm 2,8 km/h (1 Bft) SW 226 ° 0 min 0,000 mm 0,0 UV-I 0 W/m² 3,6 °C 4,8 km/h (1 Bft)
16.11.2016 01:46 4,9 °C 4,9 °C 91 % 1027,8 hPa 0,0 mm 3,8 km/h (1 Bft) W-SW 240 ° 0 min 0,000 mm 0,0 UV-I 0 W/m² 3,6 °C 4,8 km/h (1 Bft)
16.11.2016 01:47 4,9 °C 4,9 °C 91 % 1027,8 hPa 0,0 mm 1,5 km/h (1 Bft) W-SW 240 ° 0 min 0,000 mm 0,0 UV-I 0 W/m² 3,6 °C 3,2 km/h (1 Bft)
16.11.2016 01:48 4,9 °C 4,9 °C 91 % 1027,8 hPa 0,0 mm 2,2 km/h (1 Bft) W-SW 240 ° 0 min 0,000 mm 0,0 UV-I 0 W/m² 3,6 °C 3,2 km/h (1 Bft)
16.11.2016 01:49 4,9 °C 4,9 °C 91 % 1027,8 hPa 0,0 mm 1,8 km/h (1 Bft) W-SW 240 ° 0 min 0,000 mm 0,0 UV-I 0 W/m² 3,6 °C 3,2 km/h (1 Bft)
16.11.2016 01:50 4,9 °C 4,9 °C 91 % 1027,8 hPa 0,0 mm 3,2 km/h (1 Bft) W-SW 240 ° 0 min 0,000 mm 0,0 UV-I 0 W/m² 3,6 °C 4,8 km/h (1 Bft)
16.11.2016 01:51 4,9 °C 4,9 °C 91 % 1027,8 hPa 0,0 mm 5,4 km/h (1 Bft) S 188 ° 0 min 0,000 mm 0,0 UV-I 0 W/m² 3,6 °C 8,0 km/h (2 Bft)
16.11.2016 01:52 4,9 °C 4,9 °C 91 % 1027,8 hPa 0,0 mm 5,7 km/h (1 Bft) S-SW 194 ° 0 min 0,000 mm 0,0 UV-I 0 W/m² 3,6 °C 6,4 km/h (2 Bft)
16.11.2016 01:53 4,9 °C 4,9 °C 91 % 1027,7 hPa 0,0 mm 4,3 km/h (1 Bft) S 186 ° 0 min 0,000 mm 0,0 UV-I 0 W/m² 3,6 °C 6,4 km/h (2 Bft)
16.11.2016 01:54 4,9 °C 4,9 °C 91 % 1027,7 hPa 0,0 mm 2,8 km/h (1 Bft) S-SW 192 ° 0 min 0,000 mm 0,0 UV-I 0 W/m² 3,6 °C 4,8 km/h (1 Bft)
16.11.2016 01:55 4,9 °C 4,9 °C 91 % 1027,7 hPa 0,0 mm 4,5 km/h (1 Bft) S-SW 207 ° 0 min 0,000 mm 0,0 UV-I 0 W/m² 3,6 °C 6,4 km/h (2 Bft)
16.11.2016 01:56 4,9 °C 4,9 °C 91 % 1027,7 hPa 0,0 mm 3,5 km/h (1 Bft) S-SW 198 ° 0 min 0,000 mm 0,0 UV-I 0 W/m² 3,6 °C 6,4 km/h (2 Bft)
16.11.2016 01:57 4,9 °C 4,9 °C 91 % 1027,7 hPa 0,0 mm 5,8 km/h (2 Bft) S-SW 197 ° 0 min 0,000 mm 0,0 UV-I 0 W/m² 3,6 °C 9,7 km/h (2 Bft)
16.11.2016 01:58 4,9 °C 4,9 °C 91 % 1027,7 hPa 0,0 mm 3,8 km/h (1 Bft) S-SW 192 ° 0 min 0,000 mm 0,0 UV-I 0 W/m² 3,6 °C 6,4 km/h (2 Bft)
16.11.2016 01:59 4,9 °C 4,9 °C 91 % 1027,7 hPa 0,0 mm 4,4 km/h (1 Bft) S-SW 211 ° 0 min 0,000 mm 0,0 UV-I 0 W/m² 3,6 °C 6,4 km/h (2 Bft)
16.11.2016 02:00 4,9 °C 4,9 °C 92 % 1027,7 hPa 0,0 mm 3,1 km/h (1 Bft) S-SW 195 ° 0 min 0,000 mm 0,0 UV-I 0 W/m² 3,7 °C 8,0 km/h (2 Bft)
16.11.2016 02:01 4,9 °C 4,9 °C 92 % 1027,7 hPa 0,0 mm 0,5 km/h (0 Bft) S-SW 195 ° 0 min 0,000 mm 0,0 UV-I 0 W/m² 3,7 °C 1,6 km/h (1 Bft)
16.11.2016 02:02 4,8 °C 4,9 °C 92 % 1027,6 hPa 0,0 mm 0,3 km/h (0 Bft) S-SW 195 ° 0 min 0,000 mm 0,0 UV-I 0 W/m² 3,6 °C 1,6 km/h (1 Bft)
16.11.2016 02:03 4,8 °C 4,9 °C 92 % 1027,6 hPa 0,0 mm 1,1 km/h (1 Bft) S-SW 207 ° 0 min 0,000 mm 0,0 UV-I 0 W/m² 3,6 °C 3,2 km/h (1 Bft)
16.11.2016 02:04 4,8 °C 4,9 °C 92 % 1027,6 hPa 0,0 mm 1,4 km/h (1 Bft) S-SW 207 ° 0 min 0,000 mm 0,0 UV-I 0 W/m² 3,6 °C 3,2 km/h (1 Bft)
16.11.2016 02:05 4,8 °C 4,8 °C 92 % 1027,6 hPa 0,0 mm 1,0 km/h (0 Bft) S-SW 207 ° 0 min 0,000 mm 0,0 UV-I 0 W/m² 3,6 °C 3,2 km/h (1 Bft)
16.11.2016 02:06 4,8 °C 4,8 °C 92 % 1027,6 hPa 0,0 mm 0,9 km/h (0 Bft) SW 215 ° 0 min 0,000 mm 0,0 UV-I 0 W/m² 3,6 °C 3,2 km/h (1 Bft)
16.11.2016 02:07 4,8 °C 4,8 °C 92 % 1027,6 hPa 0,0 mm 1,6 km/h (1 Bft) SW 224 ° 0 min 0,000 mm 0,0 UV-I 0 W/m² 3,6 °C 3,2 km/h (1 Bft)
16.11.2016 02:08 4,8 °C 4,8 °C 92 % 1027,6 hPa 0,0 mm 0,5 km/h (0 Bft) SW 224 ° 0 min 0,000 mm 0,0 UV-I 0 W/m² 3,6 °C 1,6 km/h (1 Bft)
16.11.2016 02:09 4,8 °C 4,8 °C 92 % 1027,6 hPa 0,0 mm 0,4 km/h (0 Bft) SW 224 ° 0 min 0,000 mm 0,0 UV-I 0 W/m² 3,6 °C 1,6 km/h (1 Bft)
16.11.2016 02:10 4,8 °C 4,8 °C 92 % 1027,7 hPa 0,0 mm 1,1 km/h (1 Bft) SW 232 ° 0 min 0,000 mm 0,0 UV-I 0 W/m² 3,6 °C 3,2 km/h (1 Bft)
16.11.2016 02:11 4,8 °C 4,8 °C 92 % 1027,6 hPa 0,0 mm 2,1 km/h (1 Bft) SW 232 ° 0 min 0,000 mm 0,0 UV-I 0 W/m² 3,6 °C 3,2 km/h (1 Bft)
16.11.2016 02:12 4,8 °C 4,8 °C 92 % 1027,6 hPa 0,0 mm 3,5 km/h (1 Bft) W-SW 240 ° 0 min 0,000 mm 0,0 UV-I 0 W/m² 3,6 °C 4,8 km/h (1 Bft)
16.11.2016 02:13 4,8 °C 4,8 °C 92 % 1027,6 hPa 0,0 mm 4,8 km/h (1 Bft) W 261 ° 0 min 0,000 mm 0,0 UV-I 0 W/m² 3,6 °C 6,4 km/h (2 Bft)
16.11.2016 02:14 4,8 °C 4,8 °C 92 % 1027,6 hPa 0,0 mm 3,9 km/h (1 Bft) W 261 ° 0 min 0,000 mm 0,0 UV-I 0 W/m² 3,6 °C 4,8 km/h (1 Bft)
16.11.2016 02:15 4,8 °C 4,8 °C 92 % 1027,6 hPa 0,0 mm 1,6 km/h (1 Bft) W 261 ° 0 min 0,000 mm 0,0 UV-I 0 W/m² 3,6 °C 3,2 km/h (1 Bft)
16.11.2016 02:16 4,7 °C 4,8 °C 92 % 1027,6 hPa 0,0 mm 3,4 km/h (1 Bft) W 281 ° 0 min 0,000 mm 0,0 UV-I 0 W/m² 3,5 °C 4,8 km/h (1 Bft)
16.11.2016 02:17 4,7 °C 4,8 °C 92 % 1027,6 hPa 0,0 mm 3,9 km/h (1 Bft) W 270 ° 0 min 0,000 mm 0,0 UV-I 0 W/m² 3,5 °C 4,8 km/h (1 Bft)
16.11.2016 02:18 4,7 °C 4,8 °C 92 % 1027,6 hPa 0,0 mm 2,7 km/h (1 Bft) W 270 ° 0 min 0,000 mm 0,0 UV-I 0 W/m² 3,5 °C 3,2 km/h (1 Bft)
16.11.2016 02:19 4,7 °C 4,7 °C 92 % 1027,6 hPa 0,0 mm 0,9 km/h (0 Bft) W 270 ° 0 min 0,000 mm 0,0 UV-I 0 W/m² 3,5 °C 3,2 km/h (1 Bft)
16.11.2016 02:20 4,7 °C 4,7 °C 92 % 1027,6 hPa 0,0 mm 1,5 km/h (1 Bft) W 270 ° 0 min 0,000 mm 0,0 UV-I 0 W/m² 3,5 °C 3,2 km/h (1 Bft)
16.11.2016 02:21 4,7 °C 4,7 °C 92 % 1027,6 hPa 0,0 mm 1,5 km/h (1 Bft) W 270 ° 0 min 0,000 mm 0,0 UV-I 0 W/m² 3,5 °C 3,2 km/h (1 Bft)
16.11.2016 02:22 4,7 °C 4,7 °C 92 % 1027,5 hPa 0,0 mm 4,8 km/h (1 Bft) W 263 ° 0 min 0,000 mm 0,0 UV-I 0 W/m² 3,5 °C 8,0 km/h (2 Bft)
16.11.2016 02:23 4,7 °C 4,7 °C 92 % 1027,6 hPa 0,0 mm 4,4 km/h (1 Bft) S 188 ° 0 min 0,000 mm 0,0 UV-I 0 W/m² 3,5 °C 6,4 km/h (2 Bft)
16.11.2016 02:24 4,7 °C 4,7 °C 92 % 1027,6 hPa 0,0 mm 4,0 km/h (1 Bft) S-SW 194 ° 0 min 0,000 mm 0,0 UV-I 0 W/m² 3,5 °C 6,4 km/h (2 Bft)
16.11.2016 02:25 4,6 °C 4,7 °C 92 % 1027,5 hPa 0,0 mm 3,0 km/h (1 Bft) S-SW 194 ° 0 min 0,000 mm 0,0 UV-I 0 W/m² 3,4 °C 4,8 km/h (1 Bft)
16.11.2016 02:26 4,6 °C 4,6 °C 92 % 1027,6 hPa 0,0 mm 5,6 km/h (1 Bft) S-SW 194 ° 0 min 0,000 mm 0,0 UV-I 0 W/m² 3,4 °C 8,0 km/h (2 Bft)
16.11.2016 02:27 4,6 °C 4,6 °C 92 % 1027,6 hPa 0,0 mm 4,7 km/h (1 Bft) S-SW 207 ° 0 min 0,000 mm 0,0 UV-I 0 W/m² 3,4 °C 6,4 km/h (2 Bft)
16.11.2016 02:28 4,6 °C 4,6 °C 92 % 1027,6 hPa 0,0 mm 4,8 km/h (1 Bft) S 191 ° 0 min 0,000 mm 0,0 UV-I 0 W/m² 3,4 °C 6,4 km/h (2 Bft)
16.11.2016 02:29 4,6 °C 4,6 °C 92 % 1027,6 hPa 0,0 mm 3,4 km/h (1 Bft) SW 220 ° 0 min 0,000 mm 0,0 UV-I 0 W/m² 3,4 °C 6,4 km/h (2 Bft)
16.11.2016 02:30 4,6 °C 4,6 °C 92 % 1027,6 hPa 0,0 mm 4,4 km/h (1 Bft) S-SW 202 ° 0 min 0,000 mm 0,0 UV-I 0 W/m² 3,4 °C 6,4 km/h (2 Bft)
16.11.2016 02:31 4,6 °C 4,6 °C 92 % 1027,6 hPa 0,0 mm 2,4 km/h (1 Bft) S-SW 202 ° 0 min 0,000 mm 0,0 UV-I 0 W/m² 3,4 °C 3,2 km/h (1 Bft)
16.11.2016 02:32 4,5 °C 4,6 °C 92 % 1027,6 hPa 0,0 mm 0,2 km/h (0 Bft) S-SW 202 ° 0 min 0,000 mm 0,0 UV-I 0 W/m² 3,3 °C 1,6 km/h (1 Bft)
16.11.2016 02:33 4,5 °C 4,6 °C 92 % 1027,6 hPa 0,0 mm 0,6 km/h (0 Bft) S-SW 202 ° 0 min 0,000 mm 0,0 UV-I 0 W/m² 3,3 °C 1,6 km/h (1 Bft)
16.11.2016 02:34 4,5 °C 4,6 °C 93 % 1027,6 hPa 0,0 mm 0,6 km/h (0 Bft) S-SW 202 ° 0 min 0,000 mm 0,0 UV-I 0 W/m² 3,5 °C 1,6 km/h (1 Bft)
16.11.2016 02:35 4,5 °C 4,6 °C 93 % 1027,5 hPa 0,0 mm 1,3 km/h (1 Bft) S-SW 202 ° 0 min 0,000 mm 0,0 UV-I 0 W/m² 3,5 °C 3,2 km/h (1 Bft)
16.11.2016 02:36 4,5 °C 4,6 °C 93 % 1027,5 hPa 0,0 mm 0,2 km/h (0 Bft) S-SW 202 ° 0 min 0,000 mm 0,0 UV-I 0 W/m² 3,5 °C 1,6 km/h (1 Bft)
16.11.2016 02:37 4,5 °C 4,5 °C 93 % 1027,5 hPa 0,0 mm 0,1 km/h (0 Bft) S-SW 202 ° 0 min 0,000 mm 0,0 UV-I 0 W/m² 3,5 °C 1,6 km/h (1 Bft)
16.11.2016 02:38 4,5 °C 4,5 °C 93 % 1027,5 hPa 0,0 mm 0,0 km/h (0 Bft) S-SW 202 ° 0 min 0,000 mm 0,0 UV-I 0 W/m² 3,5 °C 0,0 km/h (0 Bft)
16.11.2016 02:39 4,5 °C 4,5 °C 93 % 1027,5 hPa 0,0 mm 0,3 km/h (0 Bft) S-SW 202 ° 0 min 0,000 mm 0,0 UV-I 0 W/m² 3,5 °C 1,6 km/h (1 Bft)
16.11.2016 02:40 4,5 °C 4,5 °C 93 % 1027,5 hPa 0,0 mm 0,4 km/h (0 Bft) S-SW 202 ° 0 min 0,000 mm 0,0 UV-I 0 W/m² 3,5 °C 1,6 km/h (1 Bft)
16.11.2016 02:41 4,5 °C 4,5 °C 93 % 1027,5 hPa 0,0 mm 0,2 km/h (0 Bft) S-SW 202 ° 0 min 0,000 mm 0,0 UV-I 0 W/m² 3,5 °C 1,6 km/h (1 Bft)
16.11.2016 02:42 4,5 °C 4,5 °C 93 % 1027,5 hPa 0,0 mm 0,0 km/h (0 Bft) S-SW 202 ° 0 min 0,000 mm 0,0 UV-I 0 W/m² 3,5 °C 0,0 km/h (0 Bft)
16.11.2016 02:43 4,5 °C 4,5 °C 93 % 1027,5 hPa 0,0 mm 0,2 km/h (0 Bft) S-SW 202 ° 0 min 0,000 mm 0,0 UV-I 0 W/m² 3,5 °C 1,6 km/h (1 Bft)
16.11.2016 02:44 4,5 °C 4,5 °C 93 % 1027,5 hPa 0,0 mm 0,0 km/h (0 Bft) S-SW 202 ° 0 min 0,000 mm 0,0 UV-I 0 W/m² 3,5 °C 0,0 km/h (0 Bft)
16.11.2016 02:45 4,5 °C 4,5 °C 93 % 1027,5 hPa 0,0 mm 0,0 km/h (0 Bft) S-SW 202 ° 0 min 0,000 mm 0,0 UV-I 0 W/m² 3,5 °C 0,0 km/h (0 Bft)
16.11.2016 02:46 4,5 °C 4,5 °C 93 % 1027,5 hPa 0,2 mm 0,0 km/h (0 Bft) S-SW 202 ° 0 min 0,000 mm 0,0 UV-I 0 W/m² 3,5 °C 0,0 km/h (0 Bft)
16.11.2016 02:47 4,5 °C 4,5 °C 93 % 1027,5 hPa 0,0 mm 0,0 km/h (0 Bft) S-SW 202 ° 0 min 0,000 mm 0,0 UV-I 0 W/m² 3,5 °C 0,0 km/h (0 Bft)
16.11.2016 02:48 4,4 °C 4,5 °C 93 % 1027,5 hPa 0,0 mm 0,0 km/h (0 Bft) S-SW 202 ° 0 min 0,000 mm 0,0 UV-I 0 W/m² 3,4 °C 0,0 km/h (0 Bft)
16.11.2016 02:49 4,5 °C 4,5 °C 93 % 1027,5 hPa 0,0 mm 0,0 km/h (0 Bft) S-SW 202 ° 0 min 0,000 mm 0,0 UV-I 0 W/m² 3,5 °C 0,0 km/h (0 Bft)
16.11.2016 02:50 4,4 °C 4,5 °C 93 % 1027,5 hPa 0,0 mm 0,0 km/h (0 Bft) S-SW 202 ° 0 min 0,000 mm 0,0 UV-I 0 W/m² 3,4 °C 0,0 km/h (0 Bft)
16.11.2016 02:51 4,5 °C 4,5 °C 93 % 1027,5 hPa 0,0 mm 0,0 km/h (0 Bft) S-SW 202 ° 0 min 0,000 mm 0,0 UV-I 0 W/m² 3,5 °C 0,0 km/h (0 Bft)
16.11.2016 02:52 4,4 °C 4,5 °C 93 % 1027,5 hPa 0,0 mm 0,0 km/h (0 Bft) S-SW 202 ° 0 min 0,000 mm 0,0 UV-I 0 W/m² 3,4 °C 0,0 km/h (0 Bft)
16.11.2016 02:53 4,4 °C 4,5 °C 93 % 1027,5 hPa 0,0 mm 0,1 km/h (0 Bft) S-SW 202 ° 0 min 0,000 mm 0,0 UV-I 0 W/m² 3,4 °C 1,6 km/h (1 Bft)
16.11.2016 02:54 4,4 °C 4,5 °C 93 % 1027,5 hPa 0,0 mm 0,0 km/h (0 Bft) S-SW 202 ° 0 min 0,000 mm 0,0 UV-I 0 W/m² 3,4 °C 0,0 km/h (0 Bft)
16.11.2016 02:55 4,4 °C 4,5 °C 93 % 1027,5 hPa 0,0 mm 0,1 km/h (0 Bft) S-SW 202 ° 0 min 0,000 mm 0,0 UV-I 0 W/m² 3,4 °C 1,6 km/h (1 Bft)
16.11.2016 02:56 4,4 °C 4,4 °C 93 % 1027,4 hPa 0,0 mm 0,0 km/h (0 Bft) S-SW 202 ° 0 min 0,000 mm 0,0 UV-I 0 W/m² 3,4 °C 0,0 km/h (0 Bft)
16.11.2016 02:57 4,4 °C 4,4 °C 93 % 1027,4 hPa 0,0 mm 0,0 km/h (0 Bft) S-SW 202 ° 0 min 0,000 mm 0,0 UV-I 0 W/m² 3,4 °C 0,0 km/h (0 Bft)
16.11.2016 02:58 4,4 °C 4,4 °C 93 % 1027,4 hPa 0,2 mm 0,1 km/h (0 Bft) S-SW 202 ° 0 min 0,000 mm 0,0 UV-I 0 W/m² 3,4 °C 1,6 km/h (1 Bft)
16.11.2016 02:59 4,4 °C 4,5 °C 93 % 1027,4 hPa 0,0 mm 1,3 km/h (1 Bft) S-SW 202 ° 0 min 0,000 mm 0,0 UV-I 0 W/m² 3,4 °C 3,2 km/h (1 Bft)
16.11.2016 03:00 4,4 °C 4,4 °C 93 % 1027,4 hPa 0,0 mm 1,7 km/h (1 Bft) S-SW 202 ° 0 min 0,000 mm 0,0 UV-I 0 W/m² 3,4 °C 3,2 km/h (1 Bft)
16.11.2016 03:01 4,4 °C 4,4 °C 93 % 1027,3 hPa 0,0 mm 1,1 km/h (1 Bft) S-SW 202 ° 0 min 0,000 mm 0,0 UV-I 0 W/m² 3,4 °C 1,6 km/h (1 Bft)
16.11.2016 03:02 4,4 °C 4,4 °C 93 % 1027,3 hPa 0,0 mm 0,0 km/h (0 Bft) S-SW 202 ° 0 min 0,000 mm 0,0 UV-I 0 W/m² 3,4 °C 0,0 km/h (0 Bft)
16.11.2016 03:03 4,4 °C 4,4 °C 93 % 1027,3 hPa 0,0 mm 0,8 km/h (0 Bft) S-SW 202 ° 0 min 0,000 mm 0,0 UV-I 0 W/m² 3,4 °C 3,2 km/h (1 Bft)
16.11.2016 03:04 4,4 °C 4,4 °C 93 % 1027,2 hPa 0,0 mm 2,1 km/h (1 Bft) S-SW 202 ° 0 min 0,000 mm 0,0 UV-I 0 W/m² 3,4 °C 3,2 km/h (1 Bft)
16.11.2016 03:05 4,4 °C 4,4 °C 93 % 1027,3 hPa 0,0 mm 1,0 km/h (0 Bft) S-SW 202 ° 0 min 0,000 mm 0,0 UV-I 0 W/m² 3,4 °C 3,2 km/h (1 Bft)
16.11.2016 03:06 4,4 °C 4,4 °C 93 % 1027,2 hPa 0,0 mm 1,5 km/h (1 Bft) S-SW 202 ° 0 min 0,000 mm 0,0 UV-I 0 W/m² 3,4 °C 3,2 km/h (1 Bft)
16.11.2016 03:07 4,4 °C 4,4 °C 93 % 1027,2 hPa 0,0 mm 1,5 km/h (1 Bft) S-SW 201 ° 0 min 0,000 mm 0,0 UV-I 0 W/m² 3,4 °C 3,2 km/h (1 Bft)
16.11.2016 03:08 4,4 °C 4,4 °C 93 % 1027,2 hPa 0,0 mm 0,1 km/h (0 Bft) S-SW 201 ° 0 min 0,000 mm 0,0 UV-I 0 W/m² 3,4 °C 1,6 km/h (1 Bft)
16.11.2016 03:09 4,4 °C 4,4 °C 93 % 1027,2 hPa 0,0 mm 0,0 km/h (0 Bft) S-SW 201 ° 0 min 0,000 mm 0,0 UV-I 0 W/m² 3,4 °C 0,0 km/h (0 Bft)
16.11.2016 03:10 4,4 °C 4,4 °C 94 % 1027,2 hPa 0,0 mm 2,0 km/h (1 Bft) W-SW 240 ° 0 min 0,000 mm 0,0 UV-I 0 W/m² 3,5 °C 3,2 km/h (1 Bft)
16.11.2016 03:11 4,4 °C 4,4 °C 94 % 1027,2 hPa 0,2 mm 2,2 km/h (1 Bft) W-SW 257 ° 0 min 0,000 mm 0,0 UV-I 0 W/m² 3,5 °C 3,2 km/h (1 Bft)
16.11.2016 03:12 4,4 °C 4,4 °C 94 % 1027,3 hPa 0,0 mm 2,1 km/h (1 Bft) W 259 ° 0 min 0,000 mm 0,0 UV-I 0 W/m² 3,5 °C 3,2 km/h (1 Bft)
16.11.2016 03:13 4,4 °C 4,4 °C 94 % 1027,3 hPa 0,0 mm 1,1 km/h (1 Bft) W 259 ° 0 min 0,000 mm 0,0 UV-I 0 W/m² 3,5 °C 3,2 km/h (1 Bft)
16.11.2016 03:14 4,4 °C 4,4 °C 94 % 1027,3 hPa 0,0 mm 1,5 km/h (1 Bft) W 259 ° 0 min 0,000 mm 0,0 UV-I 0 W/m² 3,5 °C 1,6 km/h (1 Bft)
16.11.2016 03:15 4,4 °C 4,4 °C 94 % 1027,3 hPa 0,0 mm 0,5 km/h (0 Bft) W 259 ° 0 min 0,000 mm 0,0 UV-I 0 W/m² 3,5 °C 1,6 km/h (1 Bft)
16.11.2016 03:16 4,4 °C 4,4 °C 94 % 1027,2 hPa 0,0 mm 1,6 km/h (1 Bft) W 259 ° 0 min 0,000 mm 0,0 UV-I 0 W/m² 3,5 °C 3,2 km/h (1 Bft)
16.11.2016 03:17 4,4 °C 4,4 °C 94 % 1027,2 hPa 0,0 mm 0,1 km/h (0 Bft) W 259 ° 0 min 0,000 mm 0,0 UV-I 0 W/m² 3,5 °C 1,6 km/h (1 Bft)
16.11.2016 03:18 4,4 °C 4,4 °C 94 % 1027,2 hPa 0,0 mm 0,4 km/h (0 Bft) W 259 ° 0 min 0,000 mm 0,0 UV-I 0 W/m² 3,5 °C 3,2 km/h (1 Bft)
16.11.2016 03:19 4,4 °C 4,4 °C 94 % 1027,2 hPa 0,0 mm 1,7 km/h (1 Bft) W 259 ° 0 min 0,000 mm 0,0 UV-I 0 W/m² 3,5 °C 3,2 km/h (1 Bft)
16.11.2016 03:20 4,4 °C 4,4 °C 94 % 1027,3 hPa 0,0 mm 1,7 km/h (1 Bft) W 259 ° 0 min 0,000 mm 0,0 UV-I 0 W/m² 3,5 °C 3,2 km/h (1 Bft)
16.11.2016 03:21 4,3 °C 4,4 °C 94 % 1027,3 hPa 0,0 mm 1,8 km/h (1 Bft) W 259 ° 0 min 0,000 mm 0,0 UV-I 0 W/m² 3,4 °C 3,2 km/h (1 Bft)
16.11.2016 03:22 4,3 °C 4,4 °C 94 % 1027,2 hPa 0,0 mm 3,4 km/h (1 Bft) S 185 ° 0 min 0,000 mm 0,0 UV-I 0 W/m² 3,4 °C 6,4 km/h (2 Bft)
16.11.2016 03:23 4,3 °C 4,3 °C 94 % 1027,2 hPa 0,0 mm 2,0 km/h (1 Bft) S 185 ° 0 min 0,000 mm 0,0 UV-I 0 W/m² 3,4 °C 3,2 km/h (1 Bft)
16.11.2016 03:24 4,3 °C 4,4 °C 94 % 1027,2 hPa 0,0 mm 0,2 km/h (0 Bft) S 185 ° 0 min 0,000 mm 0,0 UV-I 0 W/m² 3,4 °C 1,6 km/h (1 Bft)
16.11.2016 03:25 4,3 °C 4,3 °C 94 % 1027,2 hPa 0,0 mm 0,2 km/h (0 Bft) S 186 ° 0 min 0,000 mm 0,0 UV-I 0 W/m² 3,4 °C 1,6 km/h (1 Bft)
16.11.2016 03:26 4,3 °C 4,3 °C 94 % 1027,3 hPa 0,2 mm 2,6 km/h (1 Bft) SW 221 ° 0 min 0,000 mm 0,0 UV-I 0 W/m² 3,4 °C 3,2 km/h (1 Bft)
16.11.2016 03:27 4,3 °C 4,3 °C 94 % 1027,2 hPa 0,0 mm 2,4 km/h (1 Bft) SW 221 ° 0 min 0,000 mm 0,0 UV-I 0 W/m² 3,4 °C 3,2 km/h (1 Bft)
16.11.2016 03:28 4,3 °C 4,3 °C 94 % 1027,2 hPa 0,0 mm 2,3 km/h (1 Bft) SW 225 ° 0 min 0,000 mm 0,0 UV-I 0 W/m² 3,4 °C 3,2 km/h (1 Bft)
16.11.2016 03:29 4,3 °C 4,3 °C 94 % 1027,3 hPa 0,0 mm 0,4 km/h (0 Bft) SW 225 ° 0 min 0,000 mm 0,0 UV-I 0 W/m² 3,4 °C 1,6 km/h (1 Bft)
16.11.2016 03:30 4,3 °C 4,3 °C 94 % 1027,3 hPa 0,0 mm 2,5 km/h (1 Bft) W-SW 242 ° 0 min 0,000 mm 0,0 UV-I 0 W/m² 3,4 °C 4,8 km/h (1 Bft)
16.11.2016 03:31 4,3 °C 4,3 °C 94 % 1027,2 hPa 0,0 mm 1,9 km/h (1 Bft) W-SW 242 ° 0 min 0,000 mm 0,0 UV-I 0 W/m² 3,4 °C 4,8 km/h (1 Bft)
16.11.2016 03:32 4,3 °C 4,3 °C 94 % 1027,2 hPa 0,2 mm 2,1 km/h (1 Bft) W-SW 242 ° 0 min 0,000 mm 0,0 UV-I 0 W/m² 3,4 °C 3,2 km/h (1 Bft)
16.11.2016 03:33 4,3 °C 4,3 °C 94 % 1027,1 hPa 0,0 mm 3,8 km/h (1 Bft) S-SW 207 ° 0 min 0,000 mm 0,0 UV-I 0 W/m² 3,4 °C 4,8 km/h (1 Bft)
16.11.2016 03:34 4,3 °C 4,3 °C 94 % 1027,1 hPa 0,0 mm 5,9 km/h (2 Bft) S-SW 193 ° 0 min 0,000 mm 0,0 UV-I 0 W/m² 3,4 °C 8,0 km/h (2 Bft)
16.11.2016 03:35 4,3 °C 4,3 °C 94 % 1027,1 hPa 0,2 mm 5,2 km/h (1 Bft) S 190 ° 0 min 0,000 mm 0,0 UV-I 0 W/m² 3,4 °C 6,4 km/h (2 Bft)
16.11.2016 03:36 4,3 °C 4,3 °C 94 % 1027,1 hPa 0,0 mm 7,1 km/h (2 Bft) S-SW 200 ° 0 min 0,000 mm 0,0 UV-I 0 W/m² 3,4 °C 8,0 km/h (2 Bft)
16.11.2016 03:37 4,3 °C 4,3 °C 94 % 1027,1 hPa 0,0 mm 5,0 km/h (1 Bft) S 188 ° 0 min 0,000 mm 0,0 UV-I 0 W/m² 3,4 °C 6,4 km/h (2 Bft)
16.11.2016 03:38 4,3 °C 4,3 °C 94 % 1027,1 hPa 0,0 mm 7,3 km/h (2 Bft) S 188 ° 0 min 0,000 mm 0,0 UV-I 0 W/m² 3,4 °C 11,3 km/h (2 Bft)
16.11.2016 03:39 4,3 °C 4,3 °C 94 % 1027,0 hPa 0,0 mm 5,0 km/h (1 Bft) S-SW 200 ° 0 min 0,000 mm 0,0 UV-I 0 W/m² 3,4 °C 8,0 km/h (2 Bft)
16.11.2016 03:40 4,3 °C 4,3 °C 94 % 1027,0 hPa 0,0 mm 7,0 km/h (2 Bft) SW 217 ° 0 min 0,000 mm 0,0 UV-I 0 W/m² 3,4 °C 9,7 km/h (2 Bft)
16.11.2016 03:41 4,4 °C 4,4 °C 94 % 1026,9 hPa 0,2 mm 5,1 km/h (1 Bft) S-SW 194 ° 0 min 0,000 mm 0,0 UV-I 0 W/m² 3,5 °C 8,0 km/h (2 Bft)
16.11.2016 03:42 4,4 °C 4,4 °C 94 % 1026,9 hPa 0,0 mm 4,1 km/h (1 Bft) S 190 ° 0 min 0,000 mm 0,0 UV-I 0 W/m² 3,5 °C 8,0 km/h (2 Bft)
16.11.2016 03:43 4,4 °C 4,4 °C 94 % 1026,9 hPa 0,0 mm 3,6 km/h (1 Bft) S-SW 193 ° 0 min 0,000 mm 0,0 UV-I 0 W/m² 3,5 °C 6,4 km/h (2 Bft)
16.11.2016 03:44 4,4 °C 4,4 °C 94 % 1026,9 hPa 0,0 mm 5,9 km/h (2 Bft) S-SW 203 ° 0 min 0,000 mm 0,0 UV-I 0 W/m² 3,5 °C 8,0 km/h (2 Bft)
16.11.2016 03:45 4,4 °C 4,4 °C 94 % 1027,0 hPa 0,0 mm 4,0 km/h (1 Bft) S-SW 212 ° 0 min 0,000 mm 0,0 UV-I 0 W/m² 3,5 °C 6,4 km/h (2 Bft)
16.11.2016 03:46 4,4 °C 4,4 °C 95 % 1026,9 hPa 0,0 mm 0,7 km/h (0 Bft) S-SW 199 ° 0 min 0,000 mm 0,0 UV-I 0 W/m² 3,7 °C 1,6 km/h (1 Bft)
16.11.2016 03:47 4,4 °C 4,4 °C 95 % 1026,9 hPa 0,2 mm 2,8 km/h (1 Bft) S-SW 209 ° 0 min 0,000 mm 0,0 UV-I 0 W/m² 3,7 °C 4,8 km/h (1 Bft)
16.11.2016 03:48 4,4 °C 4,5 °C 95 % 1026,9 hPa 0,0 mm 4,0 km/h (1 Bft) W-SW 245 ° 0 min 0,000 mm 0,0 UV-I 0 W/m² 3,7 °C 6,4 km/h (2 Bft)
16.11.2016 03:49 4,4 °C 4,5 °C 95 % 1026,9 hPa 0,0 mm 3,5 km/h (1 Bft) W-SW 244 ° 0 min 0,000 mm 0,0 UV-I 0 W/m² 3,7 °C 4,8 km/h (1 Bft)
16.11.2016 03:50 4,5 °C 4,5 °C 95 % 1026,9 hPa 0,0 mm 2,8 km/h (1 Bft) W-SW 258 ° 0 min 0,000 mm 0,0 UV-I 0 W/m² 3,8 °C 4,8 km/h (1 Bft)
16.11.2016 03:51 4,5 °C 4,5 °C 95 % 1026,9 hPa 0,0 mm 2,1 km/h (1 Bft) SW 217 ° 0 min 0,000 mm 0,0 UV-I 0 W/m² 3,8 °C 3,2 km/h (1 Bft)
16.11.2016 03:52 4,5 °C 4,5 °C 95 % 1026,9 hPa 0,0 mm 2,9 km/h (1 Bft) W 267 ° 0 min 0,000 mm 0,0 UV-I 0 W/m² 3,8 °C 4,8 km/h (1 Bft)
16.11.2016 03:53 4,5 °C 4,5 °C 95 % 1026,8 hPa 0,2 mm 3,4 km/h (1 Bft) W-SW 258 ° 0 min 0,000 mm 0,0 UV-I 0 W/m² 3,8 °C 4,8 km/h (1 Bft)
16.11.2016 03:54 4,5 °C 4,5 °C 95 % 1026,9 hPa 0,0 mm 3,2 km/h (1 Bft) SW 223 ° 0 min 0,000 mm 0,0 UV-I 0 W/m² 3,8 °C 4,8 km/h (1 Bft)
16.11.2016 03:55 4,5 °C 4,6 °C 95 % 1026,9 hPa 0,0 mm 2,4 km/h (1 Bft) SW 222 ° 0 min 0,000 mm 0,0 UV-I 0 W/m² 3,8 °C 3,2 km/h (1 Bft)
16.11.2016 03:56 4,6 °C 4,6 °C 95 % 1026,8 hPa 0,0 mm 4,1 km/h (1 Bft) SW 224 ° 0 min 0,000 mm 0,0 UV-I 0 W/m² 3,9 °C 4,8 km/h (1 Bft)
16.11.2016 03:57 4,6 °C 4,6 °C 95 % 1026,8 hPa 0,0 mm 2,6 km/h (1 Bft) SW 224 ° 0 min 0,000 mm 0,0 UV-I 0 W/m² 3,9 °C 4,8 km/h (1 Bft)
16.11.2016 03:58 4,6 °C 4,6 °C 95 % 1026,9 hPa 0,0 mm 0,5 km/h (0 Bft) SW 224 ° 0 min 0,000 mm 0,0 UV-I 0 W/m² 3,9 °C 1,6 km/h (1 Bft)
16.11.2016 03:59 4,6 °C 4,6 °C 95 % 1026,9 hPa 0,0 mm 0,0 km/h (0 Bft) SW 224 ° 0 min 0,000 mm 0,0 UV-I 0 W/m² 3,9 °C 0,0 km/h (0 Bft)
16.11.2016 04:00 4,5 °C 4,6 °C 95 % 1026,9 hPa 0,0 mm 0,0 km/h (0 Bft) SW 224 ° 0 min 0,000 mm 0,0 UV-I 0 W/m² 3,8 °C 0,0 km/h (0 Bft)
16.11.2016 04:01 4,6 °C 4,6 °C 95 % 1026,8 hPa 0,0 mm 0,0 km/h (0 Bft) SW 224 ° 0 min 0,000 mm 0,0 UV-I 0 W/m² 3,9 °C 0,0 km/h (0 Bft)
16.11.2016 04:02 4,6 °C 4,6 °C 95 % 1026,9 hPa 0,0 mm 0,4 km/h (0 Bft) SW 224 ° 0 min 0,000 mm 0,0 UV-I 0 W/m² 3,9 °C 1,6 km/h (1 Bft)
16.11.2016 04:03 4,5 °C 4,6 °C 95 % 1026,8 hPa 0,0 mm 0,5 km/h (0 Bft) SW 224 ° 0 min 0,000 mm 0,0 UV-I 0 W/m² 3,8 °C 1,6 km/h (1 Bft)
16.11.2016 04:04 4,5 °C 4,6 °C 95 % 1026,8 hPa 0,0 mm 1,3 km/h (1 Bft) SW 227 ° 0 min 0,000 mm 0,0 UV-I 0 W/m² 3,8 °C 3,2 km/h (1 Bft)
16.11.2016 04:05 4,6 °C 4,6 °C 95 % 1026,8 hPa 0,0 mm 1,2 km/h (1 Bft) SW 227 ° 0 min 0,000 mm 0,0 UV-I 0 W/m² 3,9 °C 3,2 km/h (1 Bft)
16.11.2016 04:06 4,6 °C 4,6 °C 95 % 1026,8 hPa 0,0 mm 1,5 km/h (1 Bft) SW 227 ° 0 min 0,000 mm 0,0 UV-I 0 W/m² 3,9 °C 1,6 km/h (1 Bft)
16.11.2016 04:07 4,6 °C 4,6 °C 95 % 1026,8 hPa 0,2 mm 1,5 km/h (1 Bft) SW 227 ° 0 min 0,000 mm 0,0 UV-I 0 W/m² 3,9 °C 3,2 km/h (1 Bft)
16.11.2016 04:08 4,5 °C 4,6 °C 95 % 1026,8 hPa 0,0 mm 1,7 km/h (1 Bft) SW 227 ° 0 min 0,000 mm 0,0 UV-I 0 W/m² 3,8 °C 3,2 km/h (1 Bft)
16.11.2016 04:09 4,6 °C 4,6 °C 95 % 1026,8 hPa 0,0 mm 2,7 km/h (1 Bft) W 259 ° 0 min 0,000 mm 0,0 UV-I 0 W/m² 3,9 °C 4,8 km/h (1 Bft)
16.11.2016 04:10 4,6 °C 4,6 °C 95 % 1026,8 hPa 0,0 mm 2,4 km/h (1 Bft) W 261 ° 0 min 0,000 mm 0,0 UV-I 0 W/m² 3,9 °C 3,2 km/h (1 Bft)
16.11.2016 04:11 4,6 °C 4,6 °C 95 % 1026,8 hPa 0,0 mm 1,9 km/h (1 Bft) W 269 ° 0 min 0,000 mm 0,0 UV-I 0 W/m² 3,9 °C 3,2 km/h (1 Bft)
16.11.2016 04:12 4,6 °C 4,6 °C 95 % 1026,7 hPa 0,0 mm 1,1 km/h (1 Bft) W 269 ° 0 min 0,000 mm 0,0 UV-I 0 W/m² 3,9 °C 1,6 km/h (1 Bft)
16.11.2016 04:13 4,5 °C 4,6 °C 95 % 1026,7 hPa 0,0 mm 0,9 km/h (0 Bft) W 269 ° 0 min 0,000 mm 0,0 UV-I 0 W/m² 3,8 °C 1,6 km/h (1 Bft)
16.11.2016 04:14 4,6 °C 4,6 °C 95 % 1026,7 hPa 0,0 mm 0,0 km/h (0 Bft) W 269 ° 0 min 0,000 mm 0,0 UV-I 0 W/m² 3,9 °C 0,0 km/h (0 Bft)
16.11.2016 04:15 4,5 °C 4,6 °C 95 % 1026,7 hPa 0,2 mm 0,1 km/h (0 Bft) W 269 ° 0 min 0,000 mm 0,0 UV-I 0 W/m² 3,8 °C 1,6 km/h (1 Bft)
16.11.2016 04:16 4,5 °C 4,6 °C 95 % 1026,8 hPa 0,0 mm 2,9 km/h (1 Bft) W 268 ° 0 min 0,000 mm 0,0 UV-I 0 W/m² 3,8 °C 4,8 km/h (1 Bft)
16.11.2016 04:17 4,5 °C 4,6 °C 95 % 1026,7 hPa 0,0 mm 2,3 km/h (1 Bft) W 268 ° 0 min 0,000 mm 0,0 UV-I 0 W/m² 3,8 °C 3,2 km/h (1 Bft)
16.11.2016 04:18 4,5 °C 4,6 °C 95 % 1026,7 hPa 0,0 mm 2,9 km/h (1 Bft) W 268 ° 0 min 0,000 mm 0,0 UV-I 0 W/m² 3,8 °C 4,8 km/h (1 Bft)
16.11.2016 04:19 4,5 °C 4,5 °C 95 % 1026,6 hPa 0,0 mm 1,7 km/h (1 Bft) W 268 ° 0 min 0,000 mm 0,0 UV-I 0 W/m² 3,8 °C 3,2 km/h (1 Bft)
16.11.2016 04:20 4,5 °C 4,6 °C 95 % 1026,5 hPa 0,0 mm 2,8 km/h (1 Bft) S-SW 212 ° 0 min 0,000 mm 0,0 UV-I 0 W/m² 3,8 °C 3,2 km/h (1 Bft)
16.11.2016 04:21 4,5 °C 4,5 °C 95 % 1026,4 hPa 0,0 mm 0,1 km/h (0 Bft) S-SW 212 ° 0 min 0,000 mm 0,0 UV-I 0 W/m² 3,8 °C 1,6 km/h (1 Bft)
16.11.2016 04:22 4,5 °C 4,5 °C 95 % 1026,4 hPa 0,0 mm 0,0 km/h (0 Bft) S-SW 212 ° 0 min 0,000 mm 0,0 UV-I 0 W/m² 3,8 °C 0,0 km/h (0 Bft)
16.11.2016 04:23 4,5 °C 4,5 °C 95 % 1026,4 hPa 0,0 mm 0,8 km/h (0 Bft) S-SW 213 ° 0 min 0,000 mm 0,0 UV-I 0 W/m² 3,8 °C 3,2 km/h (1 Bft)
16.11.2016 04:24 4,5 °C 4,5 °C 95 % 1026,3 hPa 0,0 mm 0,6 km/h (0 Bft) S-SW 213 ° 0 min 0,000 mm 0,0 UV-I 0 W/m² 3,8 °C 1,6 km/h (1 Bft)
16.11.2016 04:25 4,5 °C 4,5 °C 95 % 1026,3 hPa 0,2 mm 0,9 km/h (0 Bft) S-SW 213 ° 0 min 0,000 mm 0,0 UV-I 0 W/m² 3,8 °C 1,6 km/h (1 Bft)
16.11.2016 04:26 4,5 °C 4,5 °C 95 % 1026,3 hPa 0,0 mm 0,5 km/h (0 Bft) S-SW 213 ° 0 min 0,000 mm 0,0 UV-I 0 W/m² 3,8 °C 1,6 km/h (1 Bft)
16.11.2016 04:27 4,5 °C 4,5 °C 95 % 1026,3 hPa 0,0 mm 2,5 km/h (1 Bft) S 174 ° 0 min 0,000 mm 0,0 UV-I 0 W/m² 3,8 °C 3,2 km/h (1 Bft)
16.11.2016 04:28 4,5 °C 4,5 °C 95 % 1026,3 hPa 0,0 mm 0,1 km/h (0 Bft) S 174 ° 0 min 0,000 mm 0,0 UV-I 0 W/m² 3,8 °C 1,6 km/h (1 Bft)
16.11.2016 04:29 4,5 °C 4,5 °C 95 % 1026,3 hPa 0,0 mm 0,4 km/h (0 Bft) S 174 ° 0 min 0,000 mm 0,0 UV-I 0 W/m² 3,8 °C 1,6 km/h (1 Bft)
16.11.2016 04:30 4,5 °C 4,5 °C 95 % 1026,3 hPa 0,0 mm 0,0 km/h (0 Bft) S 174 ° 0 min 0,000 mm 0,0 UV-I 0 W/m² 3,8 °C 0,0 km/h (0 Bft)
16.11.2016 04:31 4,5 °C 4,5 °C 95 % 1026,3 hPa 0,0 mm 1,1 km/h (1 Bft) S 174 ° 0 min 0,000 mm 0,0 UV-I 0 W/m² 3,8 °C 3,2 km/h (1 Bft)
16.11.2016 04:32 4,5 °C 4,5 °C 95 % 1026,3 hPa 0,0 mm 0,4 km/h (0 Bft) S 174 ° 0 min 0,000 mm 0,0 UV-I 0 W/m² 3,8 °C 1,6 km/h (1 Bft)
16.11.2016 04:33 4,4 °C 4,5 °C 95 % 1026,4 hPa 0,0 mm 2,0 km/h (1 Bft) S 174 ° 0 min 0,000 mm 0,0 UV-I 0 W/m² 3,7 °C 3,2 km/h (1 Bft)
16.11.2016 04:34 4,5 °C 4,5 °C 95 % 1026,3 hPa 0,0 mm 2,6 km/h (1 Bft) NW 317 ° 0 min 0,000 mm 0,0 UV-I 0 W/m² 3,8 °C 4,8 km/h (1 Bft)
16.11.2016 04:35 4,4 °C 4,5 °C 95 % 1026,3 hPa 0,0 mm 1,3 km/h (1 Bft) NW 317 ° 0 min 0,000 mm 0,0 UV-I 0 W/m² 3,7 °C 3,2 km/h (1 Bft)
16.11.2016 04:36 4,5 °C 4,5 °C 95 % 1026,3 hPa 0,0 mm 1,4 km/h (1 Bft) NW 317 ° 0 min 0,000 mm 0,0 UV-I 0 W/m² 3,8 °C 1,6 km/h (1 Bft)
16.11.2016 04:37 4,4 °C 4,5 °C 95 % 1026,3 hPa 0,0 mm 2,0 km/h (1 Bft) NW 320 ° 0 min 0,000 mm 0,0 UV-I 0 W/m² 3,7 °C 3,2 km/h (1 Bft)
16.11.2016 04:38 4,4 °C 4,5 °C 95 % 1026,2 hPa 0,0 mm 1,7 km/h (1 Bft) NW 321 ° 0 min 0,000 mm 0,0 UV-I 0 W/m² 3,7 °C 3,2 km/h (1 Bft)
16.11.2016 04:39 4,5 °C 4,5 °C 95 % 1026,3 hPa 0,0 mm 0,0 km/h (0 Bft) NW 321 ° 0 min 0,000 mm 0,0 UV-I 0 W/m² 3,8 °C 0,0 km/h (0 Bft)
16.11.2016 04:40 4,5 °C 4,5 °C 95 % 1026,3 hPa 0,0 mm 0,6 km/h (0 Bft) NW 323 ° 0 min 0,000 mm 0,0 UV-I 0 W/m² 3,8 °C 3,2 km/h (1 Bft)
16.11.2016 04:41 4,4 °C 4,5 °C 95 % 1026,2 hPa 0,0 mm 3,7 km/h (1 Bft) O-SO 102 ° 0 min 0,000 mm 0,0 UV-I 0 W/m² 3,7 °C 4,8 km/h (1 Bft)
16.11.2016 04:42 4,4 °C 4,5 °C 95 % 1026,3 hPa 0,0 mm 0,7 km/h (0 Bft) O-SO 102 ° 0 min 0,000 mm 0,0 UV-I 0 W/m² 3,7 °C 3,2 km/h (1 Bft)
16.11.2016 04:43 4,5 °C 4,5 °C 95 % 1026,3 hPa 0,0 mm 0,0 km/h (0 Bft) O-SO 102 ° 0 min 0,000 mm 0,0 UV-I 0 W/m² 3,8 °C 0,0 km/h (0 Bft)
16.11.2016 04:44 4,4 °C 4,5 °C 95 % 1026,2 hPa 0,0 mm 0,0 km/h (0 Bft) O-SO 102 ° 0 min 0,000 mm 0,0 UV-I 0 W/m² 3,7 °C 0,0 km/h (0 Bft)
16.11.2016 04:45 4,4 °C 4,4 °C 95 % 1026,3 hPa 0,0 mm 0,1 km/h (0 Bft) O-SO 102 ° 0 min 0,000 mm 0,0 UV-I 0 W/m² 3,7 °C 1,6 km/h (1 Bft)
16.11.2016 04:46 4,4 °C 4,5 °C 95 % 1026,3 hPa 0,0 mm 0,1 km/h (0 Bft) O-SO 102 ° 0 min 0,000 mm 0,0 UV-I 0 W/m² 3,7 °C 1,6 km/h (1 Bft)
16.11.2016 04:47 4,4 °C 4,4 °C 95 % 1026,3 hPa 0,0 mm 0,0 km/h (0 Bft) O-SO 102 ° 0 min 0,000 mm 0,0 UV-I 0 W/m² 3,7 °C 0,0 km/h (0 Bft)
16.11.2016 04:48 4,4 °C 4,4 °C 95 % 1026,3 hPa 0,0 mm 0,0 km/h (0 Bft) O-SO 102 ° 0 min 0,000 mm 0,0 UV-I 0 W/m² 3,7 °C 0,0 km/h (0 Bft)
16.11.2016 04:49 4,4 °C 4,4 °C 95 % 1026,3 hPa 0,0 mm 0,0 km/h (0 Bft) O-SO 102 ° 0 min 0,000 mm 0,0 UV-I 0 W/m² 3,7 °C 0,0 km/h (0 Bft)
16.11.2016 04:50 4,4 °C 4,4 °C 95 % 1026,2 hPa 0,0 mm 0,0 km/h (0 Bft) O-SO 102 ° 0 min 0,000 mm 0,0 UV-I 0 W/m² 3,7 °C 0,0 km/h (0 Bft)
16.11.2016 04:51 4,4 °C 4,4 °C 95 % 1026,2 hPa 0,0 mm 0,0 km/h (0 Bft) O-SO 102 ° 0 min 0,000 mm 0,0 UV-I 0 W/m² 3,7 °C 0,0 km/h (0 Bft)
16.11.2016 04:52 4,4 °C 4,4 °C 95 % 1026,1 hPa 0,0 mm 0,0 km/h (0 Bft) O-SO 102 ° 0 min 0,000 mm 0,0 UV-I 0 W/m² 3,7 °C 0,0 km/h (0 Bft)
16.11.2016 04:53 4,4 °C 4,4 °C 95 % 1026,2 hPa 0,0 mm 0,7 km/h (0 Bft) O-SO 102 ° 0 min 0,000 mm 0,0 UV-I 0 W/m² 3,7 °C 3,2 km/h (1 Bft)
16.11.2016 04:54 4,4 °C 4,4 °C 95 % 1026,1 hPa 0,0 mm 1,9 km/h (1 Bft) O-SO 102 ° 0 min 0,000 mm 0,0 UV-I 0 W/m² 3,7 °C 3,2 km/h (1 Bft)
16.11.2016 04:55 4,4 °C 4,4 °C 95 % 1026,1 hPa 0,0 mm 0,3 km/h (0 Bft) O-SO 102 ° 0 min 0,000 mm 0,0 UV-I 0 W/m² 3,7 °C 1,6 km/h (1 Bft)
16.11.2016 04:56 4,4 °C 4,4 °C 95 % 1026,1 hPa 0,0 mm 0,0 km/h (0 Bft) O-SO 102 ° 0 min 0,000 mm 0,0 UV-I 0 W/m² 3,7 °C 0,0 km/h (0 Bft)
16.11.2016 04:57 4,4 °C 4,4 °C 95 % 1026,1 hPa 0,0 mm 0,0 km/h (0 Bft) O-SO 102 ° 0 min 0,000 mm 0,0 UV-I 0 W/m² 3,7 °C 0,0 km/h (0 Bft)
16.11.2016 04:58 4,4 °C 4,4 °C 95 % 1026,1 hPa 0,0 mm 0,0 km/h (0 Bft) O-SO 102 ° 0 min 0,000 mm 0,0 UV-I 0 W/m² 3,7 °C 0,0 km/h (0 Bft)
16.11.2016 04:59 4,4 °C 4,4 °C 95 % 1026,2 hPa 0,0 mm 0,0 km/h (0 Bft) O-SO 102 ° 0 min 0,000 mm 0,0 UV-I 0 W/m² 3,7 °C 0,0 km/h (0 Bft)
16.11.2016 05:00 4,4 °C 4,4 °C 95 % 1026,2 hPa 0,0 mm 0,0 km/h (0 Bft) O-SO 102 ° 0 min 0,000 mm 0,0 UV-I 0 W/m² 3,7 °C 0,0 km/h (0 Bft)
16.11.2016 05:01 4,4 °C 4,4 °C 95 % 1026,2 hPa 0,0 mm 0,0 km/h (0 Bft) O-SO 102 ° 0 min 0,000 mm 0,0 UV-I 0 W/m² 3,7 °C 0,0 km/h (0 Bft)
16.11.2016 05:02 4,4 °C 4,4 °C 95 % 1026,1 hPa 0,0 mm 0,0 km/h (0 Bft) O-SO 102 ° 0 min 0,000 mm 0,0 UV-I 0 W/m² 3,7 °C 0,0 km/h (0 Bft)
16.11.2016 05:03 4,4 °C 4,4 °C 95 % 1026,2 hPa 0,0 mm 0,1 km/h (0 Bft) O-SO 102 ° 0 min 0,000 mm 0,0 UV-I 0 W/m² 3,7 °C 1,6 km/h (1 Bft)
16.11.2016 05:04 4,4 °C 4,4 °C 95 % 1026,1 hPa 0,0 mm 1,3 km/h (1 Bft) O-SO 102 ° 0 min 0,000 mm 0,0 UV-I 0 W/m² 3,7 °C 3,2 km/h (1 Bft)
16.11.2016 05:05 4,4 °C 4,4 °C 95 % 1026,1 hPa 0,0 mm 2,7 km/h (1 Bft) O-SO 102 ° 0 min 0,000 mm 0,0 UV-I 0 W/m² 3,7 °C 3,2 km/h (1 Bft)
16.11.2016 05:06 4,4 °C 4,4 °C 95 % 1026,1 hPa 0,0 mm 1,5 km/h (1 Bft) O-SO 102 ° 0 min 0,000 mm 0,0 UV-I 0 W/m² 3,7 °C 3,2 km/h (1 Bft)
16.11.2016 05:07 4,4 °C 4,4 °C 95 % 1026,1 hPa 0,0 mm 0,2 km/h (0 Bft) O-SO 102 ° 0 min 0,000 mm 0,0 UV-I 0 W/m² 3,7 °C 1,6 km/h (1 Bft)
16.11.2016 05:08 4,4 °C 4,4 °C 95 % 1026,0 hPa 0,0 mm 0,0 km/h (0 Bft) O-SO 102 ° 0 min 0,000 mm 0,0 UV-I 0 W/m² 3,7 °C 0,0 km/h (0 Bft)
16.11.2016 05:09 4,4 °C 4,4 °C 95 % 1026,1 hPa 0,0 mm 0,0 km/h (0 Bft) O-SO 102 ° 0 min 0,000 mm 0,0 UV-I 0 W/m² 3,7 °C 0,0 km/h (0 Bft)
16.11.2016 05:10 4,4 °C 4,4 °C 95 % 1026,1 hPa 0,0 mm 0,3 km/h (0 Bft) O-SO 102 ° 0 min 0,000 mm 0,0 UV-I 0 W/m² 3,7 °C 1,6 km/h (1 Bft)
16.11.2016 05:11 4,4 °C 4,4 °C 95 % 1026,1 hPa 0,0 mm 0,5 km/h (0 Bft) O-SO 102 ° 0 min 0,000 mm 0,0 UV-I 0 W/m² 3,7 °C 1,6 km/h (1 Bft)
16.11.2016 05:12 4,4 °C 4,4 °C 95 % 1026,1 hPa 0,0 mm 2,3 km/h (1 Bft) O-SO 102 ° 0 min 0,000 mm 0,0 UV-I 0 W/m² 3,7 °C 3,2 km/h (1 Bft)
16.11.2016 05:13 4,4 °C 4,4 °C 95 % 1026,1 hPa 0,0 mm 0,3 km/h (0 Bft) O-SO 102 ° 0 min 0,000 mm 0,0 UV-I 0 W/m² 3,7 °C 1,6 km/h (1 Bft)
16.11.2016 05:14 4,4 °C 4,4 °C 95 % 1026,1 hPa 0,0 mm 0,5 km/h (0 Bft) O-SO 102 ° 0 min 0,000 mm 0,0 UV-I 0 W/m² 3,7 °C 1,6 km/h (1 Bft)
16.11.2016 05:15 4,4 °C 4,4 °C 95 % 1026,1 hPa 0,0 mm 0,0 km/h (0 Bft) O-SO 102 ° 0 min 0,000 mm 0,0 UV-I 0 W/m² 3,7 °C 0,0 km/h (0 Bft)
16.11.2016 05:16 4,4 °C 4,4 °C 95 % 1026,1 hPa 0,0 mm 0,0 km/h (0 Bft) O-SO 102 ° 0 min 0,000 mm 0,0 UV-I 0 W/m² 3,7 °C 0,0 km/h (0 Bft)
16.11.2016 05:17 4,4 °C 4,4 °C 95 % 1026,1 hPa 0,0 mm 1,0 km/h (0 Bft) O-SO 102 ° 0 min 0,000 mm 0,0 UV-I 0 W/m² 3,7 °C 1,6 km/h (1 Bft)
16.11.2016 05:18 4,4 °C 4,4 °C 95 % 1026,0 hPa 0,0 mm 2,3 km/h (1 Bft) O-SO 102 ° 0 min 0,000 mm 0,0 UV-I 0 W/m² 3,7 °C 3,2 km/h (1 Bft)
16.11.2016 05:19 4,4 °C 4,4 °C 95 % 1026,0 hPa 0,0 mm 0,8 km/h (0 Bft) O-SO 102 ° 0 min 0,000 mm 0,0 UV-I 0 W/m² 3,7 °C 1,6 km/h (1 Bft)
16.11.2016 05:20 4,4 °C 4,4 °C 95 % 1026,0 hPa 0,0 mm 0,0 km/h (0 Bft) O-SO 102 ° 0 min 0,000 mm 0,0 UV-I 0 W/m² 3,7 °C 0,0 km/h (0 Bft)
16.11.2016 05:21 4,4 °C 4,4 °C 95 % 1026,0 hPa 0,0 mm 0,0 km/h (0 Bft) O-SO 102 ° 0 min 0,000 mm 0,0 UV-I 0 W/m² 3,7 °C 0,0 km/h (0 Bft)
16.11.2016 05:22 4,4 °C 4,4 °C 95 % 1026,0 hPa 0,0 mm 0,0 km/h (0 Bft) O-SO 102 ° 0 min 0,000 mm 0,0 UV-I 0 W/m² 3,7 °C 0,0 km/h (0 Bft)
16.11.2016 05:23 4,4 °C 4,4 °C 95 % 1026,1 hPa 0,0 mm 0,0 km/h (0 Bft) O-SO 102 ° 0 min 0,000 mm 0,0 UV-I 0 W/m² 3,7 °C 0,0 km/h (0 Bft)
16.11.2016 05:24 4,4 °C 4,4 °C 95 % 1026,0 hPa 0,0 mm 0,1 km/h (0 Bft) O-SO 102 ° 0 min 0,000 mm 0,0 UV-I 0 W/m² 3,7 °C 1,6 km/h (1 Bft)
16.11.2016 05:25 4,4 °C 4,4 °C 95 % 1026,0 hPa 0,0 mm 0,5 km/h (0 Bft) O-SO 102 ° 0 min 0,000 mm 0,0 UV-I 0 W/m² 3,7 °C 1,6 km/h (1 Bft)
16.11.2016 05:26 4,4 °C 4,4 °C 95 % 1026,0 hPa 0,2 mm 1,6 km/h (1 Bft) O-SO 102 ° 0 min 0,000 mm 0,0 UV-I 0 W/m² 3,7 °C 3,2 km/h (1 Bft)
16.11.2016 05:27 4,4 °C 4,4 °C 95 % 1026,0 hPa 0,0 mm 1,0 km/h (0 Bft) O-SO 102 ° 0 min 0,000 mm 0,0 UV-I 0 W/m² 3,7 °C 3,2 km/h (1 Bft)
16.11.2016 05:28 4,4 °C 4,4 °C 95 % 1026,0 hPa 0,0 mm 0,8 km/h (0 Bft) O-SO 102 ° 0 min 0,000 mm 0,0 UV-I 0 W/m² 3,7 °C 1,6 km/h (1 Bft)
16.11.2016 05:29 4,4 °C 4,4 °C 95 % 1026,0 hPa 0,0 mm 0,1 km/h (0 Bft) O-SO 102 ° 0 min 0,000 mm 0,0 UV-I 0 W/m² 3,7 °C 1,6 km/h (1 Bft)
16.11.2016 05:30 4,4 °C 4,4 °C 95 % 1026,0 hPa 0,0 mm 0,0 km/h (0 Bft) O-SO 102 ° 0 min 0,000 mm 0,0 UV-I 0 W/m² 3,7 °C 0,0 km/h (0 Bft)
16.11.2016 05:31 4,4 °C 4,4 °C 95 % 1026,0 hPa 0,0 mm 0,1 km/h (0 Bft) O-SO 102 ° 0 min 0,000 mm 0,0 UV-I 0 W/m² 3,7 °C 1,6 km/h (1 Bft)
16.11.2016 05:32 4,4 °C 4,4 °C 95 % 1026,0 hPa 0,2 mm 0,4 km/h (0 Bft) O-SO 102 ° 0 min 0,000 mm 0,0 UV-I 0 W/m² 3,7 °C 1,6 km/h (1 Bft)
16.11.2016 05:33 4,4 °C 4,4 °C 95 % 1026,0 hPa 0,0 mm 0,8 km/h (0 Bft) O-SO 102 ° 0 min 0,000 mm 0,0 UV-I 0 W/m² 3,7 °C 3,2 km/h (1 Bft)
16.11.2016 05:34 4,4 °C 4,4 °C 95 % 1025,9 hPa 0,0 mm 0,1 km/h (0 Bft) O-SO 102 ° 0 min 0,000 mm 0,0 UV-I 0 W/m² 3,7 °C 1,6 km/h (1 Bft)
16.11.2016 05:35 4,4 °C 4,4 °C 95 % 1025,9 hPa 0,0 mm 0,3 km/h (0 Bft) O-SO 102 ° 0 min 0,000 mm 0,0 UV-I 0 W/m² 3,7 °C 1,6 km/h (1 Bft)
16.11.2016 05:36 4,4 °C 4,4 °C 95 % 1025,9 hPa 0,2 mm 0,4 km/h (0 Bft) O-SO 102 ° 0 min 0,000 mm 0,0 UV-I 0 W/m² 3,7 °C 1,6 km/h (1 Bft)
16.11.2016 05:37 4,4 °C 4,4 °C 95 % 1025,9 hPa 0,0 mm 0,1 km/h (0 Bft) O-SO 102 ° 0 min 0,000 mm 0,0 UV-I 0 W/m² 3,7 °C 1,6 km/h (1 Bft)
16.11.2016 05:38 4,4 °C 4,4 °C 95 % 1025,9 hPa 0,0 mm 0,3 km/h (0 Bft) O-SO 102 ° 0 min 0,000 mm 0,0 UV-I 0 W/m² 3,7 °C 1,6 km/h (1 Bft)
16.11.2016 05:39 4,4 °C 4,4 °C 95 % 1025,9 hPa 0,0 mm 0,4 km/h (0 Bft) O-SO 102 ° 0 min 0,000 mm 0,0 UV-I 0 W/m² 3,7 °C 1,6 km/h (1 Bft)
16.11.2016 05:40 4,4 °C 4,4 °C 95 % 1025,9 hPa 0,0 mm 0,0 km/h (0 Bft) O-SO 102 ° 0 min 0,000 mm 0,0 UV-I 0 W/m² 3,7 °C 0,0 km/h (0 Bft)
16.11.2016 05:41 4,4 °C 4,4 °C 95 % 1025,9 hPa 0,0 mm 0,0 km/h (0 Bft) O-SO 102 ° 0 min 0,000 mm 0,0 UV-I 0 W/m² 3,7 °C 0,0 km/h (0 Bft)
16.11.2016 05:42 4,4 °C 4,4 °C 95 % 1025,9 hPa 0,0 mm 0,0 km/h (0 Bft) O-SO 102 ° 0 min 0,000 mm 0,0 UV-I 0 W/m² 3,7 °C 0,0 km/h (0 Bft)
16.11.2016 05:43 4,4 °C 4,4 °C 95 % 1025,9 hPa 0,0 mm 0,0 km/h (0 Bft) O-SO 102 ° 0 min 0,000 mm 0,0 UV-I 0 W/m² 3,7 °C 0,0 km/h (0 Bft)
16.11.2016 05:44 4,4 °C 4,4 °C 95 % 1025,9 hPa 0,0 mm 0,0 km/h (0 Bft) O-SO 102 ° 0 min 0,000 mm 0,0 UV-I 0 W/m² 3,7 °C 0,0 km/h (0 Bft)
16.11.2016 05:45 4,4 °C 4,4 °C 95 % 1025,9 hPa 0,0 mm 0,0 km/h (0 Bft) O-SO 102 ° 0 min 0,000 mm 0,0 UV-I 0 W/m² 3,7 °C 0,0 km/h (0 Bft)
16.11.2016 05:46 4,4 °C 4,4 °C 95 % 1025,9 hPa 0,2 mm 0,5 km/h (0 Bft) O-SO 102 ° 0 min 0,000 mm 0,0 UV-I 0 W/m² 3,7 °C 1,6 km/h (1 Bft)
16.11.2016 05:47 4,4 °C 4,4 °C 95 % 1025,9 hPa 0,0 mm 1,1 km/h (1 Bft) O-SO 102 ° 0 min 0,000 mm 0,0 UV-I 0 W/m² 3,7 °C 1,6 km/h (1 Bft)
16.11.2016 05:48 4,4 °C 4,4 °C 95 % 1025,9 hPa 0,0 mm 1,1 km/h (1 Bft) O-SO 102 ° 0 min 0,000 mm 0,0 UV-I 0 W/m² 3,7 °C 1,6 km/h (1 Bft)
16.11.2016 05:49 4,4 °C 4,4 °C 95 % 1025,9 hPa 0,0 mm 0,5 km/h (0 Bft) O-SO 102 ° 0 min 0,000 mm 0,0 UV-I 0 W/m² 3,7 °C 1,6 km/h (1 Bft)
16.11.2016 05:50 4,4 °C 4,4 °C 95 % 1025,9 hPa 0,0 mm 0,0 km/h (0 Bft) O-SO 102 ° 0 min 0,000 mm 0,0 UV-I 0 W/m² 3,7 °C 0,0 km/h (0 Bft)
16.11.2016 05:51 4,4 °C 4,4 °C 95 % 1025,9 hPa 0,0 mm 0,0 km/h (0 Bft) O-SO 102 ° 0 min 0,000 mm 0,0 UV-I 0 W/m² 3,7 °C 0,0 km/h (0 Bft)
16.11.2016 05:52 4,4 °C 4,4 °C 95 % 1025,9 hPa 0,0 mm 0,0 km/h (0 Bft) O-SO 102 ° 0 min 0,000 mm 0,0 UV-I 0 W/m² 3,7 °C 0,0 km/h (0 Bft)
16.11.2016 05:53 4,4 °C 4,4 °C 95 % 1025,9 hPa 0,0 mm 0,0 km/h (0 Bft) O-SO 102 ° 0 min 0,000 mm 0,0 UV-I 0 W/m² 3,7 °C 0,0 km/h (0 Bft)
16.11.2016 05:54 4,4 °C 4,4 °C 95 % 1025,8 hPa 0,0 mm 0,0 km/h (0 Bft) O-SO 102 ° 0 min 0,000 mm 0,0 UV-I 0 W/m² 3,7 °C 0,0 km/h (0 Bft)
16.11.2016 05:55 4,4 °C 4,4 °C 95 % 1025,8 hPa 0,2 mm 0,0 km/h (0 Bft) O-SO 102 ° 0 min 0,000 mm 0,0 UV-I 0 W/m² 3,7 °C 0,0 km/h (0 Bft)
16.11.2016 05:56 4,4 °C 4,4 °C 95 % 1025,8 hPa 0,0 mm 0,7 km/h (0 Bft) O-SO 102 ° 0 min 0,000 mm 0,0 UV-I 0 W/m² 3,7 °C 1,6 km/h (1 Bft)
16.11.2016 05:57 4,4 °C 4,4 °C 95 % 1025,8 hPa 0,0 mm 1,2 km/h (1 Bft) O-SO 102 ° 0 min 0,000 mm 0,0 UV-I 0 W/m² 3,7 °C 3,2 km/h (1 Bft)
16.11.2016 05:58 4,4 °C 4,4 °C 95 % 1025,7 hPa 0,0 mm 0,0 km/h (0 Bft) O-SO 102 ° 0 min 0,000 mm 0,0 UV-I 0 W/m² 3,7 °C 0,0 km/h (0 Bft)
16.11.2016 05:59 4,4 °C 4,4 °C 95 % 1025,7 hPa 0,0 mm 0,0 km/h (0 Bft) O-SO 102 ° 0 min 0,000 mm 0,0 UV-I 0 W/m² 3,7 °C 0,0 km/h (0 Bft)
16.11.2016 06:00 4,4 °C 4,4 °C 95 % 1025,7 hPa 0,2 mm 0,0 km/h (0 Bft) O-SO 102 ° 0 min 0,000 mm 0,0 UV-I 0 W/m² 3,7 °C 0,0 km/h (0 Bft)
16.11.2016 06:01 4,4 °C 4,4 °C 95 % 1025,8 hPa 0,0 mm 0,0 km/h (0 Bft) O-SO 102 ° 0 min 0,000 mm 0,0 UV-I 0 W/m² 3,7 °C 0,0 km/h (0 Bft)
16.11.2016 06:02 4,4 °C 4,4 °C 95 % 1025,8 hPa 0,0 mm 0,0 km/h (0 Bft) O-SO 102 ° 0 min 0,000 mm 0,0 UV-I 0 W/m² 3,7 °C 0,0 km/h (0 Bft)
16.11.2016 06:03 4,4 °C 4,4 °C 95 % 1025,8 hPa 0,0 mm 0,0 km/h (0 Bft) O-SO 102 ° 0 min 0,000 mm 0,0 UV-I 0 W/m² 3,7 °C 0,0 km/h (0 Bft)
16.11.2016 06:04 4,4 °C 4,4 °C 95 % 1025,7 hPa 0,0 mm 0,0 km/h (0 Bft) O-SO 102 ° 0 min 0,000 mm 0,0 UV-I 0 W/m² 3,7 °C 0,0 km/h (0 Bft)
16.11.2016 06:05 4,4 °C 4,4 °C 95 % 1025,7 hPa 0,0 mm 0,0 km/h (0 Bft) O-SO 102 ° 0 min 0,000 mm 0,0 UV-I 0 W/m² 3,7 °C 0,0 km/h (0 Bft)
16.11.2016 06:06 4,4 °C 4,4 °C 95 % 1025,7 hPa 0,0 mm 0,0 km/h (0 Bft) O-SO 102 ° 0 min 0,000 mm 0,0 UV-I 0 W/m² 3,7 °C 0,0 km/h (0 Bft)
16.11.2016 06:07 4,4 °C 4,4 °C 95 % 1025,8 hPa 0,0 mm 0,0 km/h (0 Bft) O-SO 102 ° 0 min 0,000 mm 0,0 UV-I 0 W/m² 3,7 °C 0,0 km/h (0 Bft)
16.11.2016 06:08 4,4 °C 4,4 °C 95 % 1025,7 hPa 0,0 mm 0,0 km/h (0 Bft) O-SO 102 ° 0 min 0,000 mm 0,0 UV-I 0 W/m² 3,7 °C 0,0 km/h (0 Bft)
16.11.2016 06:09 4,4 °C 4,4 °C 95 % 1025,7 hPa 0,0 mm 0,0 km/h (0 Bft) O-SO 102 ° 0 min 0,000 mm 0,0 UV-I 0 W/m² 3,7 °C 0,0 km/h (0 Bft)
16.11.2016 06:10 4,4 °C 4,4 °C 95 % 1025,7 hPa 0,0 mm 0,0 km/h (0 Bft) O-SO 102 ° 0 min 0,000 mm 0,0 UV-I 0 W/m² 3,7 °C 0,0 km/h (0 Bft)
16.11.2016 06:11 4,4 °C 4,4 °C 95 % 1025,7 hPa 0,0 mm 0,0 km/h (0 Bft) O-SO 102 ° 0 min 0,000 mm 0,0 UV-I 0 W/m² 3,7 °C 0,0 km/h (0 Bft)
16.11.2016 06:12 4,4 °C 4,4 °C 95 % 1025,7 hPa 0,0 mm 0,2 km/h (0 Bft) O-SO 102 ° 0 min 0,000 mm 0,0 UV-I 0 W/m² 3,7 °C 1,6 km/h (1 Bft)
16.11.2016 06:13 4,4 °C 4,4 °C 95 % 1025,7 hPa 0,0 mm 0,5 km/h (0 Bft) O-SO 102 ° 0 min 0,000 mm 0,0 UV-I 0 W/m² 3,7 °C 1,6 km/h (1 Bft)
16.11.2016 06:14 4,4 °C 4,4 °C 95 % 1025,7 hPa 0,0 mm 1,6 km/h (1 Bft) S-SW 205 ° 0 min 0,000 mm 0,0 UV-I 0 W/m² 3,7 °C 3,2 km/h (1 Bft)
16.11.2016 06:15 4,4 °C 4,4 °C 95 % 1025,7 hPa 0,0 mm 2,1 km/h (1 Bft) W-SW 256 ° 0 min 0,000 mm 0,0 UV-I 0 W/m² 3,7 °C 4,8 km/h (1 Bft)
16.11.2016 06:16 4,4 °C 4,4 °C 95 % 1025,7 hPa 0,0 mm 3,4 km/h (1 Bft) W 273 ° 0 min 0,000 mm 0,0 UV-I 0 W/m² 3,7 °C 4,8 km/h (1 Bft)
16.11.2016 06:17 4,4 °C 4,4 °C 95 % 1025,7 hPa 0,0 mm 2,2 km/h (1 Bft) W 272 ° 0 min 0,000 mm 0,0 UV-I 0 W/m² 3,7 °C 3,2 km/h (1 Bft)
16.11.2016 06:18 4,4 °C 4,5 °C 95 % 1025,6 hPa 0,0 mm 3,5 km/h (1 Bft) W 270 ° 0 min 0,000 mm 0,0 UV-I 0 W/m² 3,7 °C 4,8 km/h (1 Bft)
16.11.2016 06:19 4,4 °C 4,5 °C 95 % 1025,6 hPa 0,0 mm 3,8 km/h (1 Bft) W 269 ° 0 min 0,000 mm 0,0 UV-I 0 W/m² 3,7 °C 4,8 km/h (1 Bft)
16.11.2016 06:20 4,5 °C 4,5 °C 95 % 1025,6 hPa 0,0 mm 1,3 km/h (1 Bft) W 269 ° 0 min 0,000 mm 0,0 UV-I 0 W/m² 3,8 °C 3,2 km/h (1 Bft)
16.11.2016 06:21 4,5 °C 4,5 °C 95 % 1025,6 hPa 0,0 mm 2,1 km/h (1 Bft) W 269 ° 0 min 0,000 mm 0,0 UV-I 0 W/m² 3,8 °C 3,2 km/h (1 Bft)
16.11.2016 06:22 4,5 °C 4,5 °C 95 % 1025,6 hPa 0,0 mm 2,4 km/h (1 Bft) W 269 ° 0 min 0,000 mm 0,0 UV-I 0 W/m² 3,8 °C 3,2 km/h (1 Bft)
16.11.2016 06:23 4,5 °C 4,5 °C 95 % 1025,6 hPa 0,0 mm 2,0 km/h (1 Bft) W 269 ° 0 min 0,000 mm 0,0 UV-I 0 W/m² 3,8 °C 3,2 km/h (1 Bft)
16.11.2016 06:24 4,5 °C 4,5 °C 95 % 1025,6 hPa 0,0 mm 0,7 km/h (0 Bft) W 269 ° 0 min 0,000 mm 0,0 UV-I 0 W/m² 3,8 °C 1,6 km/h (1 Bft)
16.11.2016 06:25 4,5 °C 4,5 °C 96 % 1025,5 hPa 0,0 mm 0,0 km/h (0 Bft) W 269 ° 0 min 0,000 mm 0,0 UV-I 0 W/m² 3,9 °C 0,0 km/h (0 Bft)
16.11.2016 06:26 4,5 °C 4,5 °C 96 % 1025,6 hPa 0,0 mm 0,0 km/h (0 Bft) W 269 ° 0 min 0,000 mm 0,0 UV-I 0 W/m² 3,9 °C 0,0 km/h (0 Bft)
16.11.2016 06:27 4,6 °C 4,6 °C 95 % 1025,5 hPa 0,0 mm 1,5 km/h (1 Bft) W 269 ° 0 min 0,000 mm 0,0 UV-I 0 W/m² 3,9 °C 1,6 km/h (1 Bft)
16.11.2016 06:28 4,6 °C 4,6 °C 95 % 1025,5 hPa 0,0 mm 0,3 km/h (0 Bft) W 269 ° 0 min 0,000 mm 0,0 UV-I 0 W/m² 3,9 °C 1,6 km/h (1 Bft)
16.11.2016 06:29 4,5 °C 4,6 °C 96 % 1025,5 hPa 0,2 mm 0,0 km/h (0 Bft) W 269 ° 0 min 0,000 mm 0,0 UV-I 0 W/m² 3,9 °C 0,0 km/h (0 Bft)
16.11.2016 06:30 4,6 °C 4,6 °C 96 % 1025,5 hPa 0,0 mm 0,0 km/h (0 Bft) W 269 ° 0 min 0,000 mm 0,0 UV-I 0 W/m² 4,0 °C 0,0 km/h (0 Bft)
16.11.2016 06:31 4,6 °C 4,6 °C 95 % 1025,5 hPa 0,0 mm 0,3 km/h (0 Bft) W 269 ° 0 min 0,000 mm 0,0 UV-I 0 W/m² 3,9 °C 1,6 km/h (1 Bft)
16.11.2016 06:32 4,5 °C 4,6 °C 95 % 1025,5 hPa 0,0 mm 0,0 km/h (0 Bft) W 269 ° 0 min 0,000 mm 0,0 UV-I 0 W/m² 3,8 °C 0,0 km/h (0 Bft)
16.11.2016 06:33 4,5 °C 4,6 °C 96 % 1025,5 hPa 0,0 mm 0,6 km/h (0 Bft) W 269 ° 0 min 0,000 mm 0,0 UV-I 0 W/m² 3,9 °C 1,6 km/h (1 Bft)
16.11.2016 06:34 4,6 °C 4,6 °C 95 % 1025,5 hPa 0,0 mm 0,0 km/h (0 Bft) W 269 ° 0 min 0,000 mm 0,0 UV-I 0 W/m² 3,9 °C 0,0 km/h (0 Bft)
16.11.2016 06:35 4,5 °C 4,6 °C 96 % 1025,5 hPa 0,0 mm 0,3 km/h (0 Bft) W 269 ° 0 min 0,000 mm 0,0 UV-I 0 W/m² 3,9 °C 1,6 km/h (1 Bft)
16.11.2016 06:36 4,6 °C 4,6 °C 96 % 1025,5 hPa 0,0 mm 0,3 km/h (0 Bft) W 269 ° 0 min 0,000 mm 0,0 UV-I 0 W/m² 4,0 °C 1,6 km/h (1 Bft)
16.11.2016 06:37 4,6 °C 4,6 °C 96 % 1025,6 hPa 0,0 mm 0,4 km/h (0 Bft) W 269 ° 0 min 0,000 mm 0,0 UV-I 0 W/m² 4,0 °C 1,6 km/h (1 Bft)
16.11.2016 06:38 4,6 °C 4,6 °C 96 % 1025,5 hPa 0,0 mm 0,7 km/h (0 Bft) W 269 ° 0 min 0,000 mm 0,0 UV-I 0 W/m² 4,0 °C 1,6 km/h (1 Bft)
16.11.2016 06:39 4,6 °C 4,6 °C 95 % 1025,5 hPa 0,0 mm 0,1 km/h (0 Bft) W 269 ° 0 min 0,000 mm 0,0 UV-I 0 W/m² 3,9 °C 1,6 km/h (1 Bft)
16.11.2016 06:40 4,6 °C 4,6 °C 96 % 1025,5 hPa 0,0 mm 0,0 km/h (0 Bft) W 269 ° 0 min 0,000 mm 0,0 UV-I 0 W/m² 4,0 °C 0,0 km/h (0 Bft)
16.11.2016 06:41 4,6 °C 4,6 °C 96 % 1025,6 hPa 0,0 mm 0,0 km/h (0 Bft) W 269 ° 0 min 0,000 mm 0,0 UV-I 0 W/m² 4,0 °C 0,0 km/h (0 Bft)
16.11.2016 06:42 4,6 °C 4,6 °C 96 % 1025,6 hPa 0,0 mm 0,0 km/h (0 Bft) W 269 ° 0 min 0,000 mm 0,0 UV-I 0 W/m² 4,0 °C 0,0 km/h (0 Bft)
16.11.2016 06:43 4,6 °C 4,6 °C 95 % 1025,5 hPa 0,0 mm 0,1 km/h (0 Bft) W 269 ° 0 min 0,000 mm 0,0 UV-I 0 W/m² 3,9 °C 1,6 km/h (1 Bft)
16.11.2016 06:44 4,6 °C 4,6 °C 95 % 1025,5 hPa 0,0 mm 2,6 km/h (1 Bft) W 269 ° 0 min 0,000 mm 0,0 UV-I 0 W/m² 3,9 °C 3,2 km/h (1 Bft)
16.11.2016 06:45 4,6 °C 4,6 °C 96 % 1025,5 hPa 0,0 mm 2,2 km/h (1 Bft) W 269 ° 0 min 0,000 mm 0,0 UV-I 0 W/m² 4,0 °C 3,2 km/h (1 Bft)
16.11.2016 06:46 4,6 °C 4,6 °C 96 % 1025,5 hPa 0,2 mm 1,9 km/h (1 Bft) W 269 ° 0 min 0,000 mm 0,0 UV-I 0 W/m² 4,0 °C 3,2 km/h (1 Bft)
16.11.2016 06:47 4,6 °C 4,6 °C 95 % 1025,5 hPa 0,0 mm 0,9 km/h (0 Bft) W 269 ° 0 min 0,000 mm 0,0 UV-I 0 W/m² 3,9 °C 1,6 km/h (1 Bft)
16.11.2016 06:48 4,6 °C 4,6 °C 95 % 1025,5 hPa 0,0 mm 0,6 km/h (0 Bft) W 269 ° 0 min 0,000 mm 0,0 UV-I 0 W/m² 3,9 °C 1,6 km/h (1 Bft)
16.11.2016 06:49 4,6 °C 4,6 °C 95 % 1025,4 hPa 0,0 mm 0,9 km/h (0 Bft) W 269 ° 0 min 0,000 mm 0,0 UV-I 0 W/m² 3,9 °C 1,6 km/h (1 Bft)
16.11.2016 06:50 4,6 °C 4,6 °C 95 % 1025,4 hPa 0,0 mm 0,1 km/h (0 Bft) W 269 ° 0 min 0,000 mm 0,0 UV-I 0 W/m² 3,9 °C 1,6 km/h (1 Bft)
16.11.2016 06:51 4,6 °C 4,6 °C 95 % 1025,4 hPa 0,0 mm 0,0 km/h (0 Bft) W 269 ° 0 min 0,000 mm 0,0 UV-I 0 W/m² 3,9 °C 0,0 km/h (0 Bft)
16.11.2016 06:52 4,6 °C 4,6 °C 95 % 1025,4 hPa 0,0 mm 0,0 km/h (0 Bft) W 269 ° 0 min 0,000 mm 0,0 UV-I 0 W/m² 3,9 °C 0,0 km/h (0 Bft)
16.11.2016 06:53 4,6 °C 4,6 °C 95 % 1025,4 hPa 0,0 mm 0,0 km/h (0 Bft) W 269 ° 0 min 0,000 mm 0,0 UV-I 0 W/m² 3,9 °C 0,0 km/h (0 Bft)
16.11.2016 06:54 4,6 °C 4,6 °C 95 % 1025,3 hPa 0,0 mm 0,0 km/h (0 Bft) W 269 ° 0 min 0,000 mm 0,0 UV-I 0 W/m² 3,9 °C 0,0 km/h (0 Bft)
16.11.2016 06:55 4,6 °C 4,6 °C 95 % 1025,4 hPa 0,2 mm 0,0 km/h (0 Bft) W 269 ° 0 min 0,000 mm 0,0 UV-I 0 W/m² 3,9 °C 0,0 km/h (0 Bft)
16.11.2016 06:56 4,6 °C 4,6 °C 95 % 1025,4 hPa 0,0 mm 0,0 km/h (0 Bft) W 269 ° 0 min 0,000 mm 0,0 UV-I 0 W/m² 3,9 °C 0,0 km/h (0 Bft)
16.11.2016 06:57 4,6 °C 4,6 °C 95 % 1025,3 hPa 0,0 mm 0,0 km/h (0 Bft) W 269 ° 0 min 0,000 mm 0,0 UV-I 0 W/m² 3,9 °C 0,0 km/h (0 Bft)
16.11.2016 06:58 4,6 °C 4,6 °C 95 % 1025,4 hPa 0,0 mm 0,5 km/h (0 Bft) W 269 ° 0 min 0,000 mm 0,0 UV-I 0 W/m² 3,9 °C 1,6 km/h (1 Bft)
16.11.2016 06:59 4,6 °C 4,6 °C 95 % 1025,4 hPa 0,0 mm 2,3 km/h (1 Bft) W 270 ° 0 min 0,000 mm 0,0 UV-I 0 W/m² 3,9 °C 3,2 km/h (1 Bft)
16.11.2016 07:00 4,6 °C 4,6 °C 95 % 1025,4 hPa 0,0 mm 0,9 km/h (0 Bft) W 270 ° 0 min 0,000 mm 0,0 UV-I 0 W/m² 3,9 °C 1,6 km/h (1 Bft)
16.11.2016 07:01 4,6 °C 4,6 °C 95 % 1025,4 hPa 0,0 mm 0,7 km/h (0 Bft) W 270 ° 0 min 0,000 mm 0,0 UV-I 0 W/m² 3,9 °C 3,2 km/h (1 Bft)
16.11.2016 07:02 4,6 °C 4,6 °C 95 % 1025,4 hPa 0,0 mm 2,2 km/h (1 Bft) W 271 ° 0 min 0,000 mm 0,0 UV-I 0 W/m² 3,9 °C 3,2 km/h (1 Bft)
16.11.2016 07:03 4,6 °C 4,6 °C 95 % 1025,4 hPa 0,0 mm 0,8 km/h (0 Bft) W 271 ° 0 min 0,000 mm 0,0 UV-I 0 W/m² 3,9 °C 1,6 km/h (1 Bft)
16.11.2016 07:04 4,6 °C 4,6 °C 95 % 1025,4 hPa 0,0 mm 0,0 km/h (0 Bft) W 271 ° 0 min 0,000 mm 0,0 UV-I 0 W/m² 3,9 °C 0,0 km/h (0 Bft)
16.11.2016 07:05 4,6 °C 4,6 °C 95 % 1025,4 hPa 0,0 mm 1,1 km/h (1 Bft) W 271 ° 0 min 0,000 mm 0,0 UV-I 0 W/m² 3,9 °C 1,6 km/h (1 Bft)
16.11.2016 07:06 4,6 °C 4,6 °C 95 % 1025,4 hPa 0,0 mm 0,7 km/h (0 Bft) W 271 ° 0 min 0,000 mm 0,0 UV-I 0 W/m² 3,9 °C 1,6 km/h (1 Bft)
16.11.2016 07:07 4,6 °C 4,6 °C 96 % 1025,3 hPa 0,2 mm 0,1 km/h (0 Bft) W 271 ° 0 min 0,000 mm 0,0 UV-I 0 W/m² 4,0 °C 1,6 km/h (1 Bft)
16.11.2016 07:08 4,6 °C 4,6 °C 95 % 1025,4 hPa 0,0 mm 0,5 km/h (0 Bft) W 271 ° 0 min 0,000 mm 0,0 UV-I 0 W/m² 3,9 °C 1,6 km/h (1 Bft)
16.11.2016 07:09 4,6 °C 4,6 °C 96 % 1025,4 hPa 0,0 mm 1,0 km/h (0 Bft) W 271 ° 0 min 0,000 mm 0,0 UV-I 0 W/m² 4,0 °C 1,6 km/h (1 Bft)
16.11.2016 07:10 4,6 °C 4,6 °C 96 % 1025,3 hPa 0,0 mm 0,5 km/h (0 Bft) W 271 ° 0 min 0,000 mm 0,0 UV-I 0 W/m² 4,0 °C 1,6 km/h (1 Bft)
16.11.2016 07:11 4,6 °C 4,6 °C 96 % 1025,3 hPa 0,0 mm 1,3 km/h (1 Bft) W 271 ° 0 min 0,000 mm 0,0 UV-I 0 W/m² 4,0 °C 1,6 km/h (1 Bft)
16.11.2016 07:12 4,6 °C 4,6 °C 96 % 1025,3 hPa 0,0 mm 2,4 km/h (1 Bft) W 269 ° 0 min 0,000 mm 0,0 UV-I 0 W/m² 4,0 °C 3,2 km/h (1 Bft)
16.11.2016 07:13 4,6 °C 4,6 °C 96 % 1025,2 hPa 0,0 mm 1,0 km/h (0 Bft) W 270 ° 0 min 0,000 mm 0,0 UV-I 0 W/m² 4,0 °C 3,2 km/h (1 Bft)
16.11.2016 07:14 4,6 °C 4,6 °C 95 % 1025,2 hPa 0,0 mm 1,6 km/h (1 Bft) W 270 ° 0 min 0,000 mm 0,0 UV-I 0 W/m² 3,9 °C 3,2 km/h (1 Bft)
16.11.2016 07:15 4,6 °C 4,6 °C 95 % 1025,3 hPa 0,0 mm 0,1 km/h (0 Bft) W 270 ° 0 min 0,000 mm 0,0 UV-I 0 W/m² 3,9 °C 1,6 km/h (1 Bft)
16.11.2016 07:16 4,6 °C 4,6 °C 95 % 1025,3 hPa 0,0 mm 2,3 km/h (1 Bft) SW 215 ° 0 min 0,000 mm 0,0 UV-I 0 W/m² 3,9 °C 3,2 km/h (1 Bft)
16.11.2016 07:17 4,5 °C 4,6 °C 96 % 1025,3 hPa 0,0 mm 2,3 km/h (1 Bft) S 179 ° 0 min 0,000 mm 0,0 UV-I 0 W/m² 3,9 °C 3,2 km/h (1 Bft)
16.11.2016 07:18 4,6 °C 4,6 °C 96 % 1025,3 hPa 0,0 mm 1,6 km/h (1 Bft) W-SW 256 ° 0 min 0,000 mm 0,0 UV-I 0 W/m² 4,0 °C 3,2 km/h (1 Bft)
16.11.2016 07:19 4,5 °C 4,6 °C 96 % 1025,3 hPa 0,0 mm 2,3 km/h (1 Bft) W-SW 257 ° 0 min 0,000 mm 0,0 UV-I 0 W/m² 3,9 °C 3,2 km/h (1 Bft)
16.11.2016 07:20 4,6 °C 4,6 °C 96 % 1025,4 hPa 0,0 mm 0,3 km/h (0 Bft) W-SW 257 ° 0 min 0,000 mm 0,0 UV-I 0 W/m² 4,0 °C 1,6 km/h (1 Bft)
16.11.2016 07:21 4,5 °C 4,6 °C 96 % 1025,3 hPa 0,0 mm 0,1 km/h (0 Bft) W-SW 257 ° 0 min 0,000 mm 0,0 UV-I 0 W/m² 3,9 °C 1,6 km/h (1 Bft)
16.11.2016 07:22 4,5 °C 4,6 °C 96 % 1025,3 hPa 0,0 mm 0,5 km/h (0 Bft) W-SW 257 ° 0 min 0,000 mm 0,0 UV-I 0 W/m² 3,9 °C 1,6 km/h (1 Bft)
16.11.2016 07:23 4,6 °C 4,6 °C 96 % 1025,3 hPa 0,0 mm 0,5 km/h (0 Bft) W-SW 256 ° 0 min 0,000 mm 0,0 UV-I 0 W/m² 4,0 °C 1,6 km/h (1 Bft)
16.11.2016 07:24 4,6 °C 4,6 °C 96 % 1025,2 hPa 0,0 mm 0,0 km/h (0 Bft) W-SW 257 ° 0 min 0,000 mm 0,0 UV-I 0 W/m² 4,0 °C 0,0 km/h (0 Bft)
16.11.2016 07:25 4,6 °C 4,6 °C 96 % 1025,2 hPa 0,0 mm 0,0 km/h (0 Bft) W-SW 257 ° 0 min 0,000 mm 0,0 UV-I 0 W/m² 4,0 °C 0,0 km/h (0 Bft)
16.11.2016 07:26 4,6 °C 4,6 °C 96 % 1025,2 hPa 0,0 mm 0,0 km/h (0 Bft) W-SW 256 ° 0 min 0,000 mm 0,0 UV-I 0 W/m² 4,0 °C 0,0 km/h (0 Bft)
16.11.2016 07:27 4,6 °C 4,6 °C 96 % 1025,2 hPa 0,2 mm 0,0 km/h (0 Bft) W-SW 257 ° 0 min 0,000 mm 0,0 UV-I 0 W/m² 4,0 °C 0,0 km/h (0 Bft)
16.11.2016 07:28 4,6 °C 4,6 °C 96 % 1025,2 hPa 0,0 mm 0,0 km/h (0 Bft) W-SW 257 ° 0 min 0,000 mm 0,0 UV-I 0 W/m² 4,0 °C 0,0 km/h (0 Bft)
16.11.2016 07:29 4,5 °C 4,6 °C 96 % 1025,2 hPa 0,0 mm 0,1 km/h (0 Bft) W-SW 257 ° 0 min 0,000 mm 0,0 UV-I 0 W/m² 3,9 °C 1,6 km/h (1 Bft)
16.11.2016 07:30 4,5 °C 4,6 °C 96 % 1025,2 hPa 0,0 mm 0,1 km/h (0 Bft) W-SW 257 ° 0 min 0,000 mm 0,0 UV-I 0 W/m² 3,9 °C 1,6 km/h (1 Bft)
16.11.2016 07:31 4,5 °C 4,6 °C 96 % 1025,2 hPa 0,0 mm 0,1 km/h (0 Bft) W-SW 257 ° 0 min 0,000 mm 0,0 UV-I 0 W/m² 3,9 °C 1,6 km/h (1 Bft)
16.11.2016 07:32 4,6 °C 4,6 °C 96 % 1025,2 hPa 0,0 mm 0,0 km/h (0 Bft) W-SW 257 ° 0 min 0,000 mm 0,0 UV-I 0 W/m² 4,0 °C 0,0 km/h (0 Bft)
16.11.2016 07:33 4,5 °C 4,6 °C 96 % 1025,2 hPa 0,0 mm 0,7 km/h (0 Bft) W-SW 257 ° 0 min 0,000 mm 0,0 UV-I 0 W/m² 3,9 °C 1,6 km/h (1 Bft)
16.11.2016 07:34 4,5 °C 4,5 °C 96 % 1025,3 hPa 0,0 mm 1,3 km/h (1 Bft) W-SW 257 ° 0 min 0,000 mm 0,0 UV-I 0 W/m² 3,9 °C 3,2 km/h (1 Bft)
16.11.2016 07:35 4,6 °C 4,6 °C 96 % 1025,3 hPa 0,0 mm 2,3 km/h (1 Bft) W 275 ° 0 min 0,000 mm 0,0 UV-I 0 W/m² 4,0 °C 3,2 km/h (1 Bft)
16.11.2016 07:36 4,5 °C 4,6 °C 96 % 1025,3 hPa 0,0 mm 2,4 km/h (1 Bft) W 277 ° 0 min 0,000 mm 0,0 UV-I 0 W/m² 3,9 °C 3,2 km/h (1 Bft)
16.11.2016 07:37 4,5 °C 4,6 °C 96 % 1025,3 hPa 0,0 mm 1,7 km/h (1 Bft) W 277 ° 0 min 0,000 mm 0,0 UV-I 0 W/m² 3,9 °C 3,2 km/h (1 Bft)
16.11.2016 07:38 4,6 °C 4,6 °C 96 % 1025,3 hPa 0,0 mm 0,8 km/h (0 Bft) W 277 ° 0 min 0,000 mm 0,0 UV-I 0 W/m² 4,0 °C 1,6 km/h (1 Bft)
16.11.2016 07:39 4,6 °C 4,6 °C 96 % 1025,3 hPa 0,0 mm 1,5 km/h (1 Bft) W 277 ° 0 min 0,000 mm 0,0 UV-I 0 W/m² 4,0 °C 3,2 km/h (1 Bft)
16.11.2016 07:40 4,6 °C 4,6 °C 96 % 1025,3 hPa 0,0 mm 0,2 km/h (0 Bft) W 277 ° 0 min 0,000 mm 0,0 UV-I 0 W/m² 4,0 °C 1,6 km/h (1 Bft)
16.11.2016 07:41 4,6 °C 4,6 °C 96 % 1025,3 hPa 0,0 mm 0,0 km/h (0 Bft) W 277 ° 0 min 0,000 mm 0,0 UV-I 0 W/m² 4,0 °C 0,0 km/h (0 Bft)
16.11.2016 07:42 4,6 °C 4,6 °C 96 % 1025,3 hPa 0,0 mm 0,0 km/h (0 Bft) W 277 ° 0 min 0,000 mm 0,0 UV-I 0 W/m² 4,0 °C 0,0 km/h (0 Bft)
16.11.2016 07:43 4,6 °C 4,6 °C 96 % 1025,3 hPa 0,0 mm 0,0 km/h (0 Bft) W 277 ° 0 min 0,000 mm 0,0 UV-I 5 W/m² 4,0 °C 0,0 km/h (0 Bft)
16.11.2016 07:44 4,6 °C 4,6 °C 96 % 1025,3 hPa 0,0 mm 0,0 km/h (0 Bft) W 277 ° 0 min 0,000 mm 0,0 UV-I 5 W/m² 4,0 °C 0,0 km/h (0 Bft)
16.11.2016 07:45 4,6 °C 4,6 °C 96 % 1025,3 hPa 0,2 mm 0,0 km/h (0 Bft) W 277 ° 0 min 0,000 mm 0,0 UV-I 5 W/m² 4,0 °C 0,0 km/h (0 Bft)
16.11.2016 07:46 4,6 °C 4,6 °C 96 % 1025,3 hPa 0,0 mm 0,0 km/h (0 Bft) W 277 ° 0 min 0,000 mm 0,0 UV-I 5 W/m² 4,0 °C 0,0 km/h (0 Bft)
16.11.2016 07:47 4,6 °C 4,6 °C 96 % 1025,3 hPa 0,0 mm 0,0 km/h (0 Bft) W 277 ° 0 min 0,000 mm 0,0 UV-I 7 W/m² 4,0 °C 0,0 km/h (0 Bft)
16.11.2016 07:48 4,6 °C 4,6 °C 96 % 1025,3 hPa 0,0 mm 0,0 km/h (0 Bft) W 277 ° 0 min 0,000 mm 0,0 UV-I 7 W/m² 4,0 °C 0,0 km/h (0 Bft)
16.11.2016 07:49 4,6 °C 4,6 °C 96 % 1025,2 hPa 0,0 mm 0,0 km/h (0 Bft) W 277 ° 0 min 0,000 mm 0,0 UV-I 7 W/m² 4,0 °C 0,0 km/h (0 Bft)
16.11.2016 07:50 4,6 °C 4,6 °C 96 % 1025,2 hPa 0,0 mm 0,0 km/h (0 Bft) W 277 ° 0 min 0,000 mm 0,0 UV-I 9 W/m² 4,0 °C 0,0 km/h (0 Bft)
16.11.2016 07:51 4,6 °C 4,6 °C 96 % 1025,2 hPa 0,0 mm 0,0 km/h (0 Bft) W 277 ° 0 min 0,000 mm 0,0 UV-I 9 W/m² 4,0 °C 0,0 km/h (0 Bft)
16.11.2016 07:52 4,6 °C 4,6 °C 96 % 1025,2 hPa 0,0 mm 0,0 km/h (0 Bft) W 277 ° 0 min 0,000 mm 0,0 UV-I 9 W/m² 4,0 °C 0,0 km/h (0 Bft)
16.11.2016 07:53 4,6 °C 4,6 °C 96 % 1025,2 hPa 0,0 mm 0,0 km/h (0 Bft) W 277 ° 0 min 0,000 mm 0,0 UV-I 9 W/m² 4,0 °C 0,0 km/h (0 Bft)
16.11.2016 07:54 4,6 °C 4,6 °C 96 % 1025,2 hPa 0,0 mm 0,1 km/h (0 Bft) W 277 ° 0 min 0,000 mm 0,0 UV-I 11 W/m² 4,0 °C 1,6 km/h (1 Bft)
16.11.2016 07:55 4,6 °C 4,6 °C 96 % 1025,2 hPa 0,0 mm 0,0 km/h (0 Bft) W 277 ° 0 min 0,000 mm 0,0 UV-I 11 W/m² 4,0 °C 0,0 km/h (0 Bft)
16.11.2016 07:56 4,6 °C 4,6 °C 96 % 1025,2 hPa 0,0 mm 0,0 km/h (0 Bft) W 277 ° 0 min 0,000 mm 0,0 UV-I 11 W/m² 4,0 °C 0,0 km/h (0 Bft)
16.11.2016 07:57 4,6 °C 4,6 °C 96 % 1025,2 hPa 0,0 mm 0,0 km/h (0 Bft) W 277 ° 0 min 0,000 mm 0,0 UV-I 11 W/m² 4,0 °C 0,0 km/h (0 Bft)
16.11.2016 07:58 4,6 °C 4,6 °C 96 % 1025,2 hPa 0,2 mm 0,0 km/h (0 Bft) W 277 ° 0 min 0,000 mm 0,0 UV-I 12 W/m² 4,0 °C 0,0 km/h (0 Bft)
16.11.2016 07:59 4,6 °C 4,6 °C 96 % 1025,2 hPa 0,0 mm 0,0 km/h (0 Bft) W 277 ° 0 min 0,000 mm 0,0 UV-I 12 W/m² 4,0 °C 0,0 km/h (0 Bft)
16.11.2016 08:00 4,6 °C 4,6 °C 96 % 1025,2 hPa 0,0 mm 0,0 km/h (0 Bft) W 277 ° 0 min 0,000 mm 0,0 UV-I 12 W/m² 4,0 °C 0,0 km/h (0 Bft)
16.11.2016 08:01 4,6 °C 4,6 °C 96 % 1025,2 hPa 0,0 mm 0,0 km/h (0 Bft) W 277 ° 0 min 0,000 mm 0,0 UV-I 12 W/m² 4,0 °C 0,0 km/h (0 Bft)
16.11.2016 08:02 4,6 °C 4,6 °C 96 % 1025,2 hPa 0,0 mm 0,0 km/h (0 Bft) W 277 ° 0 min 0,000 mm 0,0 UV-I 12 W/m² 4,0 °C 0,0 km/h (0 Bft)
16.11.2016 08:03 4,6 °C 4,6 °C 96 % 1025,2 hPa 0,0 mm 0,0 km/h (0 Bft) W 277 ° 0 min 0,000 mm 0,0 UV-I 12 W/m² 4,0 °C 0,0 km/h (0 Bft)
16.11.2016 08:04 4,6 °C 4,7 °C 96 % 1025,2 hPa 0,0 mm 0,0 km/h (0 Bft) W 277 ° 0 min 0,000 mm 0,0 UV-I 14 W/m² 4,0 °C 0,0 km/h (0 Bft)
16.11.2016 08:05 4,6 °C 4,6 °C 96 % 1025,2 hPa 0,0 mm 0,0 km/h (0 Bft) W 277 ° 0 min 0,000 mm 0,0 UV-I 14 W/m² 4,0 °C 0,0 km/h (0 Bft)
16.11.2016 08:06 4,6 °C 4,7 °C 96 % 1025,2 hPa 0,0 mm 0,0 km/h (0 Bft) W 277 ° 0 min 0,000 mm 0,0 UV-I 14 W/m² 4,0 °C 0,0 km/h (0 Bft)
16.11.2016 08:07 4,7 °C 4,7 °C 96 % 1025,1 hPa 0,0 mm 0,0 km/h (0 Bft) W 277 ° 0 min 0,000 mm 0,0 UV-I 14 W/m² 4,1 °C 0,0 km/h (0 Bft)
16.11.2016 08:08 4,7 °C 4,7 °C 96 % 1025,1 hPa 0,0 mm 0,0 km/h (0 Bft) W 277 ° 0 min 0,000 mm 0,0 UV-I 16 W/m² 4,1 °C 0,0 km/h (0 Bft)
16.11.2016 08:09 4,7 °C 4,7 °C 96 % 1025,2 hPa 0,0 mm 0,0 km/h (0 Bft) W 277 ° 0 min 0,000 mm 0,0 UV-I 16 W/m² 4,1 °C 0,0 km/h (0 Bft)
16.11.2016 08:10 4,7 °C 4,7 °C 96 % 1025,2 hPa 0,0 mm 0,0 km/h (0 Bft) W 277 ° 0 min 0,000 mm 0,0 UV-I 16 W/m² 4,1 °C 0,0 km/h (0 Bft)
16.11.2016 08:11 4,7 °C 4,7 °C 96 % 1025,1 hPa 0,0 mm 0,0 km/h (0 Bft) W 277 ° 0 min 0,000 mm 0,0 UV-I 16 W/m² 4,1 °C 0,0 km/h (0 Bft)
16.11.2016 08:12 4,7 °C 4,7 °C 96 % 1025,2 hPa 0,0 mm 0,0 km/h (0 Bft) W 277 ° 0 min 0,000 mm 0,0 UV-I 16 W/m² 4,1 °C 0,0 km/h (0 Bft)
16.11.2016 08:13 4,7 °C 4,7 °C 96 % 1025,1 hPa 0,0 mm 0,0 km/h (0 Bft) W 277 ° 0 min 0,000 mm 0,0 UV-I 16 W/m² 4,1 °C 0,0 km/h (0 Bft)
16.11.2016 08:14 4,7 °C 4,7 °C 96 % 1025,1 hPa 0,0 mm 0,0 km/h (0 Bft) W 277 ° 0 min 0,000 mm 0,0 UV-I 16 W/m² 4,1 °C 0,0 km/h (0 Bft)
16.11.2016 08:15 4,7 °C 4,7 °C 96 % 1025,1 hPa 0,0 mm 0,6 km/h (0 Bft) W 277 ° 0 min 0,000 mm 0,0 UV-I 16 W/m² 4,1 °C 1,6 km/h (1 Bft)
16.11.2016 08:16 4,7 °C 4,7 °C 96 % 1025,1 hPa 0,0 mm 0,0 km/h (0 Bft) W 277 ° 0 min 0,000 mm 0,0 UV-I 16 W/m² 4,1 °C 0,0 km/h (0 Bft)
16.11.2016 08:17 4,7 °C 4,7 °C 96 % 1025,1 hPa 0,0 mm 0,0 km/h (0 Bft) W 277 ° 0 min 0,000 mm 0,0 UV-I 18 W/m² 4,1 °C 0,0 km/h (0 Bft)
16.11.2016 08:18 4,7 °C 4,8 °C 96 % 1025,1 hPa 0,0 mm 0,0 km/h (0 Bft) W 277 ° 0 min 0,000 mm 0,0 UV-I 19 W/m² 4,1 °C 0,0 km/h (0 Bft)
16.11.2016 08:19 4,7 °C 4,8 °C 96 % 1025,1 hPa 0,0 mm 0,0 km/h (0 Bft) W 277 ° 0 min 0,000 mm 0,0 UV-I 19 W/m² 4,1 °C 0,0 km/h (0 Bft)
16.11.2016 08:20 4,8 °C 4,8 °C 96 % 1025,1 hPa 0,2 mm 0,0 km/h (0 Bft) W 277 ° 0 min 0,000 mm 0,0 UV-I 19 W/m² 4,2 °C 0,0 km/h (0 Bft)
16.11.2016 08:21 4,8 °C 4,8 °C 96 % 1025,1 hPa 0,0 mm 0,2 km/h (0 Bft) W 277 ° 0 min 0,000 mm 0,0 UV-I 19 W/m² 4,2 °C 1,6 km/h (1 Bft)
16.11.2016 08:22 4,8 °C 4,8 °C 96 % 1025,1 hPa 0,0 mm 0,9 km/h (0 Bft) W 277 ° 0 min 0,000 mm 0,0 UV-I 19 W/m² 4,2 °C 1,6 km/h (1 Bft)
16.11.2016 08:23 4,8 °C 4,8 °C 96 % 1025,0 hPa 0,0 mm 0,5 km/h (0 Bft) W 277 ° 0 min 0,000 mm 0,0 UV-I 21 W/m² 4,2 °C 1,6 km/h (1 Bft)
16.11.2016 08:24 4,8 °C 4,8 °C 96 % 1025,1 hPa 0,0 mm 0,0 km/h (0 Bft) W 277 ° 0 min 0,000 mm 0,0 UV-I 21 W/m² 4,2 °C 0,0 km/h (0 Bft)
16.11.2016 08:25 4,8 °C 4,8 °C 96 % 1025,1 hPa 0,0 mm 0,0 km/h (0 Bft) W 277 ° 0 min 0,000 mm 0,0 UV-I 21 W/m² 4,2 °C 0,0 km/h (0 Bft)
16.11.2016 08:26 4,8 °C 4,8 °C 96 % 1025,0 hPa 0,0 mm 0,0 km/h (0 Bft) W 277 ° 0 min 0,000 mm 0,0 UV-I 21 W/m² 4,2 °C 0,0 km/h (0 Bft)
16.11.2016 08:27 4,8 °C 4,8 °C 96 % 1025,0 hPa 0,0 mm 0,0 km/h (0 Bft) W 277 ° 0 min 0,000 mm 0,0 UV-I 23 W/m² 4,2 °C 0,0 km/h (0 Bft)
16.11.2016 08:28 4,8 °C 4,8 °C 96 % 1025,0 hPa 0,0 mm 0,0 km/h (0 Bft) W 277 ° 0 min 0,000 mm 0,0 UV-I 23 W/m² 4,2 °C 0,0 km/h (0 Bft)
16.11.2016 08:29 4,9 °C 4,9 °C 96 % 1025,0 hPa 0,0 mm 0,0 km/h (0 Bft) W 277 ° 0 min 0,000 mm 0,0 UV-I 23 W/m² 4,3 °C 0,0 km/h (0 Bft)
16.11.2016 08:30 4,9 °C 4,9 °C 96 % 1025,0 hPa 0,0 mm 0,0 km/h (0 Bft) W 277 ° 0 min 0,000 mm 0,0 UV-I 25 W/m² 4,3 °C 0,0 km/h (0 Bft)
16.11.2016 08:31 4,9 °C 4,9 °C 96 % 1025,0 hPa 0,0 mm 0,0 km/h (0 Bft) W 277 ° 0 min 0,000 mm 0,0 UV-I 25 W/m² 4,3 °C 0,0 km/h (0 Bft)
16.11.2016 08:32 4,9 °C 4,9 °C 96 % 1025,0 hPa 0,0 mm 0,0 km/h (0 Bft) W 277 ° 0 min 0,000 mm 0,0 UV-I 25 W/m² 4,3 °C 0,0 km/h (0 Bft)
16.11.2016 08:33 4,9 °C 4,9 °C 96 % 1025,0 hPa 0,0 mm 0,0 km/h (0 Bft) W 277 ° 0 min 0,000 mm 0,0 UV-I 26 W/m² 4,3 °C 0,0 km/h (0 Bft)
16.11.2016 08:34 4,9 °C 4,9 °C 96 % 1025,0 hPa 0,0 mm 0,0 km/h (0 Bft) W 277 ° 0 min 0,000 mm 0,0 UV-I 26 W/m² 4,3 °C 0,0 km/h (0 Bft)
16.11.2016 08:35 4,9 °C 4,9 °C 96 % 1025,0 hPa 0,0 mm 0,0 km/h (0 Bft) W 277 ° 0 min 0,000 mm 0,0 UV-I 26 W/m² 4,3 °C 0,0 km/h (0 Bft)
16.11.2016 08:36 4,9 °C 4,9 °C 96 % 1025,0 hPa 0,0 mm 0,0 km/h (0 Bft) W 277 ° 0 min 0,000 mm 0,0 UV-I 25 W/m² 4,3 °C 0,0 km/h (0 Bft)
16.11.2016 08:37 4,9 °C 4,9 °C 96 % 1025,0 hPa 0,0 mm 0,0 km/h (0 Bft) W 277 ° 0 min 0,000 mm 0,0 UV-I 26 W/m² 4,3 °C 0,0 km/h (0 Bft)
16.11.2016 08:38 5,0 °C 5,0 °C 96 % 1024,9 hPa 0,0 mm 0,0 km/h (0 Bft) W 277 ° 0 min 0,000 mm 0,0 UV-I 26 W/m² 4,4 °C 0,0 km/h (0 Bft)
16.11.2016 08:39 4,9 °C 5,0 °C 96 % 1024,9 hPa 0,0 mm 0,0 km/h (0 Bft) W 277 ° 0 min 0,000 mm 0,0 UV-I 26 W/m² 4,3 °C 0,0 km/h (0 Bft)
16.11.2016 08:40 5,0 °C 5,0 °C 96 % 1024,9 hPa 0,0 mm 0,0 km/h (0 Bft) W 277 ° 0 min 0,000 mm 0,0 UV-I 26 W/m² 4,4 °C 0,0 km/h (0 Bft)
16.11.2016 08:41 5,0 °C 5,0 °C 96 % 1024,9 hPa 0,0 mm 0,0 km/h (0 Bft) W 277 ° 0 min 0,000 mm 0,0 UV-I 26 W/m² 4,4 °C 0,0 km/h (0 Bft)
16.11.2016 08:42 5,0 °C 5,0 °C 96 % 1024,9 hPa 0,0 mm 0,0 km/h (0 Bft) W 277 ° 0 min 0,000 mm 0,0 UV-I 26 W/m² 4,4 °C 0,0 km/h (0 Bft)
16.11.2016 08:43 5,0 °C 5,1 °C 96 % 1024,9 hPa 0,0 mm 0,0 km/h (0 Bft) W 277 ° 0 min 0,000 mm 0,0 UV-I 26 W/m² 4,4 °C 0,0 km/h (0 Bft)
16.11.2016 08:44 5,1 °C 5,1 °C 96 % 1024,9 hPa 0,0 mm 0,0 km/h (0 Bft) W 277 ° 0 min 0,000 mm 0,0 UV-I 26 W/m² 4,5 °C 0,0 km/h (0 Bft)
16.11.2016 08:45 5,1 °C 5,1 °C 96 % 1024,9 hPa 0,0 mm 0,0 km/h (0 Bft) W 277 ° 0 min 0,000 mm 0,0 UV-I 26 W/m² 4,5 °C 0,0 km/h (0 Bft)
16.11.2016 08:46 5,1 °C 5,1 °C 96 % 1024,9 hPa 0,0 mm 0,0 km/h (0 Bft) W 277 ° 0 min 0,000 mm 0,0 UV-I 26 W/m² 4,5 °C 0,0 km/h (0 Bft)
16.11.2016 08:47 5,1 °C 5,1 °C 96 % 1024,8 hPa 0,0 mm 0,0 km/h (0 Bft) W 277 ° 0 min 0,000 mm 0,0 UV-I 26 W/m² 4,5 °C 0,0 km/h (0 Bft)
16.11.2016 08:48 5,1 °C 5,1 °C 96 % 1024,8 hPa 0,0 mm 0,0 km/h (0 Bft) W 277 ° 0 min 0,000 mm 0,0 UV-I 28 W/m² 4,5 °C 0,0 km/h (0 Bft)
16.11.2016 08:49 5,1 °C 5,1 °C 96 % 1024,8 hPa 0,0 mm 0,0 km/h (0 Bft) W 277 ° 0 min 0,000 mm 0,0 UV-I 26 W/m² 4,5 °C 0,0 km/h (0 Bft)
16.11.2016 08:50 5,1 °C 5,1 °C 96 % 1024,8 hPa 0,0 mm 0,0 km/h (0 Bft) W 277 ° 0 min 0,000 mm 0,0 UV-I 26 W/m² 4,5 °C 0,0 km/h (0 Bft)
16.11.2016 08:51 5,1 °C 5,1 °C 96 % 1024,8 hPa 0,0 mm 0,0 km/h (0 Bft) W 277 ° 0 min 0,000 mm 0,0 UV-I 26 W/m² 4,5 °C 0,0 km/h (0 Bft)
16.11.2016 08:52 5,2 °C 5,2 °C 96 % 1024,8 hPa 0,0 mm 0,0 km/h (0 Bft) W 277 ° 0 min 0,000 mm 0,0 UV-I 26 W/m² 4,6 °C 0,0 km/h (0 Bft)
16.11.2016 08:53 5,2 °C 5,2 °C 96 % 1024,8 hPa 0,0 mm 0,0 km/h (0 Bft) W 277 ° 0 min 0,000 mm 0,0 UV-I 26 W/m² 4,6 °C 0,0 km/h (0 Bft)
16.11.2016 08:54 5,2 °C 5,2 °C 96 % 1024,8 hPa 0,0 mm 0,0 km/h (0 Bft) W 277 ° 0 min 0,000 mm 0,0 UV-I 26 W/m² 4,6 °C 0,0 km/h (0 Bft)
16.11.2016 08:55 5,2 °C 5,2 °C 96 % 1024,8 hPa 0,0 mm 0,0 km/h (0 Bft) W 277 ° 0 min 0,000 mm 0,0 UV-I 26 W/m² 4,6 °C 0,0 km/h (0 Bft)
16.11.2016 08:56 5,2 °C 5,2 °C 96 % 1024,7 hPa 0,0 mm 0,0 km/h (0 Bft) W 277 ° 0 min 0,000 mm 0,0 UV-I 28 W/m² 4,6 °C 0,0 km/h (0 Bft)
16.11.2016 08:57 5,2 °C 5,2 °C 96 % 1024,7 hPa 0,0 mm 0,0 km/h (0 Bft) W 277 ° 0 min 0,000 mm 0,0 UV-I 28 W/m² 4,6 °C 0,0 km/h (0 Bft)
16.11.2016 08:58 5,3 °C 5,3 °C 96 % 1024,7 hPa 0,0 mm 0,0 km/h (0 Bft) W 277 ° 0 min 0,000 mm 0,0 UV-I 30 W/m² 4,7 °C 0,0 km/h (0 Bft)
16.11.2016 08:59 5,3 °C 5,3 °C 96 % 1024,8 hPa 0,0 mm 0,0 km/h (0 Bft) W 277 ° 0 min 0,000 mm 0,0 UV-I 33 W/m² 4,7 °C 0,0 km/h (0 Bft)
16.11.2016 09:00 5,3 °C 5,3 °C 96 % 1024,7 hPa 0,2 mm 0,0 km/h (0 Bft) W 277 ° 0 min 0,000 mm 0,0 UV-I 35 W/m² 4,7 °C 0,0 km/h (0 Bft)
16.11.2016 09:01 5,3 °C 5,3 °C 96 % 1024,7 hPa 0,0 mm 0,0 km/h (0 Bft) W 277 ° 0 min 0,000 mm 0,0 UV-I 35 W/m² 4,7 °C 0,0 km/h (0 Bft)
16.11.2016 09:02 5,3 °C 5,3 °C 96 % 1024,6 hPa 0,0 mm 0,0 km/h (0 Bft) W 277 ° 0 min 0,000 mm 0,0 UV-I 35 W/m² 4,7 °C 0,0 km/h (0 Bft)
16.11.2016 09:03 5,3 °C 5,3 °C 96 % 1024,7 hPa 0,0 mm 0,0 km/h (0 Bft) W 277 ° 0 min 0,000 mm 0,0 UV-I 35 W/m² 4,7 °C 0,0 km/h (0 Bft)
16.11.2016 09:04 5,3 °C 5,4 °C 96 % 1024,7 hPa 0,0 mm 0,0 km/h (0 Bft) W 277 ° 0 min 0,000 mm 0,0 UV-I 35 W/m² 4,7 °C 0,0 km/h (0 Bft)
16.11.2016 09:05 5,4 °C 5,4 °C 96 % 1024,7 hPa 0,0 mm 0,0 km/h (0 Bft) W 277 ° 0 min 0,000 mm 0,0 UV-I 37 W/m² 4,8 °C 0,0 km/h (0 Bft)
16.11.2016 09:06 5,4 °C 5,4 °C 96 % 1024,7 hPa 0,0 mm 0,0 km/h (0 Bft) W 277 ° 0 min 0,000 mm 0,0 UV-I 39 W/m² 4,8 °C 0,0 km/h (0 Bft)
16.11.2016 09:07 5,4 °C 5,4 °C 96 % 1024,7 hPa 0,0 mm 0,0 km/h (0 Bft) W 277 ° 0 min 0,000 mm 0,0 UV-I 39 W/m² 4,8 °C 0,0 km/h (0 Bft)
16.11.2016 09:08 5,4 °C 5,4 °C 96 % 1024,6 hPa 0,0 mm 0,0 km/h (0 Bft) W 277 ° 0 min 0,000 mm 0,0 UV-I 39 W/m² 4,8 °C 0,0 km/h (0 Bft)
16.11.2016 09:09 5,4 °C 5,4 °C 96 % 1024,6 hPa 0,0 mm 0,0 km/h (0 Bft) W 277 ° 0 min 0,000 mm 0,0 UV-I 39 W/m² 4,8 °C 0,0 km/h (0 Bft)
16.11.2016 09:10 5,5 °C 5,6 °C 96 % 1024,6 hPa 0,0 mm 0,0 km/h (0 Bft) W 277 ° 0 min 0,000 mm 0,0 UV-I 40 W/m² 4,9 °C 0,0 km/h (0 Bft)
16.11.2016 09:11 5,6 °C 5,6 °C 96 % 1024,6 hPa 0,0 mm 0,1 km/h (0 Bft) SW 217 ° 0 min 0,000 mm 0,0 UV-I 40 W/m² 5,0 °C 1,6 km/h (1 Bft)
16.11.2016 09:12 5,6 °C 5,6 °C 97 % 1024,6 hPa 0,0 mm 2,5 km/h (1 Bft) S-SW 205 ° 0 min 0,000 mm 0,0 UV-I 40 W/m² 5,2 °C 4,8 km/h (1 Bft)
16.11.2016 09:13 5,6 °C 5,7 °C 97 % 1024,6 hPa 0,0 mm 2,3 km/h (1 Bft) S-SW 205 ° 0 min 0,000 mm 0,0 UV-I 40 W/m² 5,2 °C 3,2 km/h (1 Bft)
16.11.2016 09:14 5,7 °C 5,7 °C 96 % 1024,5 hPa 0,0 mm 2,3 km/h (1 Bft) S-SW 205 ° 0 min 0,000 mm 0,0 UV-I 40 W/m² 5,1 °C 3,2 km/h (1 Bft)
16.11.2016 09:15 5,7 °C 5,7 °C 96 % 1024,5 hPa 0,0 mm 1,3 km/h (1 Bft) S-SW 205 ° 0 min 0,000 mm 0,0 UV-I 42 W/m² 5,1 °C 3,2 km/h (1 Bft)
16.11.2016 09:16 5,7 °C 5,7 °C 96 % 1024,5 hPa 0,0 mm 2,7 km/h (1 Bft) S-SW 205 ° 0 min 0,000 mm 0,0 UV-I 42 W/m² 5,1 °C 3,2 km/h (1 Bft)
16.11.2016 09:17 5,7 °C 5,7 °C 97 % 1024,4 hPa 0,0 mm 2,4 km/h (1 Bft) S-SW 205 ° 0 min 0,000 mm 0,0 UV-I 46 W/m² 5,3 °C 3,2 km/h (1 Bft)
16.11.2016 09:18 5,7 °C 5,8 °C 96 % 1024,4 hPa 0,0 mm 3,4 km/h (1 Bft) S 172 ° 0 min 0,000 mm 0,0 UV-I 49 W/m² 5,1 °C 4,8 km/h (1 Bft)
16.11.2016 09:19 5,8 °C 5,8 °C 96 % 1024,3 hPa 0,0 mm 2,3 km/h (1 Bft) S 172 ° 0 min 0,000 mm 0,0 UV-I 51 W/m² 5,2 °C 4,8 km/h (1 Bft)
16.11.2016 09:20 5,8 °C 5,8 °C 96 % 1024,3 hPa 0,0 mm 0,9 km/h (0 Bft) S 172 ° 0 min 0,000 mm 0,0 UV-I 53 W/m² 5,2 °C 1,6 km/h (1 Bft)
16.11.2016 09:21 5,8 °C 5,8 °C 96 % 1024,3 hPa 0,0 mm 1,8 km/h (1 Bft) S 178 ° 0 min 0,000 mm 0,0 UV-I 53 W/m² 5,2 °C 3,2 km/h (1 Bft)
16.11.2016 09:22 5,8 °C 5,8 °C 96 % 1024,3 hPa 0,0 mm 1,5 km/h (1 Bft) S 178 ° 0 min 0,000 mm 0,0 UV-I 54 W/m² 5,2 °C 3,2 km/h (1 Bft)
16.11.2016 09:23 5,8 °C 5,8 °C 96 % 1024,3 hPa 0,0 mm 0,6 km/h (0 Bft) S 178 ° 0 min 0,000 mm 0,0 UV-I 58 W/m² 5,2 °C 1,6 km/h (1 Bft)
16.11.2016 09:24 5,9 °C 5,9 °C 96 % 1024,3 hPa 0,0 mm 0,2 km/h (0 Bft) S 178 ° 0 min 0,000 mm 0,0 UV-I 62 W/m² 5,3 °C 1,6 km/h (1 Bft)
16.11.2016 09:25 5,9 °C 5,9 °C 96 % 1024,3 hPa 0,0 mm 2,1 km/h (1 Bft) S 178 ° 0 min 0,000 mm 0,0 UV-I 63 W/m² 5,3 °C 3,2 km/h (1 Bft)
16.11.2016 09:26 5,9 °C 5,9 °C 96 % 1024,3 hPa 0,0 mm 1,3 km/h (1 Bft) S 178 ° 0 min 0,000 mm 0,0 UV-I 67 W/m² 5,3 °C 3,2 km/h (1 Bft)
16.11.2016 09:27 5,9 °C 5,9 °C 96 % 1024,3 hPa 0,0 mm 1,7 km/h (1 Bft) S 178 ° 0 min 0,000 mm 0,0 UV-I 70 W/m² 5,3 °C 3,2 km/h (1 Bft)
16.11.2016 09:28 5,9 °C 5,9 °C 96 % 1024,3 hPa 0,0 mm 2,2 km/h (1 Bft) S 178 ° 0 min 0,000 mm 0,0 UV-I 74 W/m² 5,3 °C 3,2 km/h (1 Bft)
16.11.2016 09:29 5,9 °C 5,9 °C 96 % 1024,3 hPa 0,0 mm 2,4 km/h (1 Bft) S 178 ° 0 min 0,000 mm 0,0 UV-I 77 W/m² 5,3 °C 3,2 km/h (1 Bft)
16.11.2016 09:30 6,0 °C 6,0 °C 97 % 1024,2 hPa 0,0 mm 2,5 km/h (1 Bft) S 178 ° 0 min 0,000 mm 0,5 UV-I 77 W/m² 5,6 °C 3,2 km/h (1 Bft)
16.11.2016 09:31 6,1 °C 6,1 °C 97 % 1024,2 hPa 0,0 mm 2,1 km/h (1 Bft) S 178 ° 0 min 0,000 mm 0,5 UV-I 81 W/m² 5,7 °C 3,2 km/h (1 Bft)
16.11.2016 09:32 6,1 °C 6,1 °C 97 % 1024,3 hPa 0,0 mm 1,2 km/h (1 Bft) S 178 ° 0 min 0,000 mm 0,5 UV-I 81 W/m² 5,7 °C 1,6 km/h (1 Bft)
16.11.2016 09:33 6,1 °C 6,1 °C 97 % 1024,3 hPa 0,0 mm 1,8 km/h (1 Bft) S 178 ° 0 min 0,000 mm 0,0 UV-I 81 W/m² 5,7 °C 3,2 km/h (1 Bft)
16.11.2016 09:34 6,1 °C 6,1 °C 97 % 1024,2 hPa 0,0 mm 0,3 km/h (0 Bft) S 178 ° 0 min 0,000 mm 0,0 UV-I 76 W/m² 5,7 °C 1,6 km/h (1 Bft)
16.11.2016 09:35 6,1 °C 6,1 °C 97 % 1024,1 hPa 0,0 mm 0,0 km/h (0 Bft) S 178 ° 0 min 0,000 mm 0,0 UV-I 74 W/m² 5,7 °C 0,0 km/h (0 Bft)
16.11.2016 09:36 6,1 °C 6,1 °C 96 % 1024,1 hPa 0,0 mm 0,0 km/h (0 Bft) S 178 ° 0 min 0,000 mm 0,0 UV-I 70 W/m² 5,5 °C 0,0 km/h (0 Bft)
16.11.2016 09:37 6,1 °C 6,2 °C 97 % 1024,1 hPa 0,0 mm 0,0 km/h (0 Bft) S 178 ° 0 min 0,000 mm 0,0 UV-I 69 W/m² 5,7 °C 0,0 km/h (0 Bft)
16.11.2016 09:38 6,2 °C 6,2 °C 97 % 1024,1 hPa 0,0 mm 0,2 km/h (0 Bft) S 178 ° 0 min 0,000 mm 0,0 UV-I 67 W/m² 5,8 °C 1,6 km/h (1 Bft)
16.11.2016 09:39 6,2 °C 6,2 °C 97 % 1024,1 hPa 0,0 mm 0,4 km/h (0 Bft) S 178 ° 0 min 0,000 mm 0,0 UV-I 67 W/m² 5,8 °C 1,6 km/h (1 Bft)
16.11.2016 09:40 6,2 °C 6,2 °C 96 % 1024,1 hPa 0,0 mm 0,0 km/h (0 Bft) S 178 ° 0 min 0,000 mm 0,0 UV-I 65 W/m² 5,6 °C 0,0 km/h (0 Bft)
16.11.2016 09:41 6,2 °C 6,2 °C 96 % 1024,1 hPa 0,0 mm 0,0 km/h (0 Bft) S 178 ° 0 min 0,000 mm 0,0 UV-I 67 W/m² 5,6 °C 0,0 km/h (0 Bft)
16.11.2016 09:42 6,2 °C 6,2 °C 96 % 1024,1 hPa 0,0 mm 0,0 km/h (0 Bft) S 178 ° 0 min 0,000 mm 0,0 UV-I 67 W/m² 5,6 °C 0,0 km/h (0 Bft)
16.11.2016 09:43 6,2 °C 6,2 °C 96 % 1024,2 hPa 0,0 mm 0,0 km/h (0 Bft) S 178 ° 0 min 0,000 mm 0,0 UV-I 69 W/m² 5,6 °C 0,0 km/h (0 Bft)
16.11.2016 09:44 6,2 °C 6,2 °C 96 % 1024,1 hPa 0,0 mm 0,0 km/h (0 Bft) S 178 ° 0 min 0,000 mm 0,0 UV-I 70 W/m² 5,6 °C 0,0 km/h (0 Bft)
16.11.2016 09:45 6,2 °C 6,3 °C 96 % 1024,1 hPa 0,0 mm 0,0 km/h (0 Bft) S 178 ° 0 min 0,000 mm 0,0 UV-I 72 W/m² 5,6 °C 0,0 km/h (0 Bft)
16.11.2016 09:46 6,2 °C 6,3 °C 96 % 1024,1 hPa 0,0 mm 0,4 km/h (0 Bft) S 178 ° 0 min 0,000 mm 0,5 UV-I 79 W/m² 5,6 °C 3,2 km/h (1 Bft)
16.11.2016 09:47 6,3 °C 6,3 °C 96 % 1024,0 hPa 0,0 mm 1,1 km/h (1 Bft) S 178 ° 0 min 0,000 mm 0,5 UV-I 81 W/m² 5,7 °C 1,6 km/h (1 Bft)
16.11.2016 09:48 6,3 °C 6,3 °C 96 % 1024,1 hPa 0,0 mm 0,6 km/h (0 Bft) S 178 ° 0 min 0,000 mm 0,5 UV-I 84 W/m² 5,7 °C 1,6 km/h (1 Bft)
16.11.2016 09:49 6,3 °C 6,3 °C 96 % 1024,0 hPa 0,0 mm 1,4 km/h (1 Bft) S 178 ° 0 min 0,000 mm 0,5 UV-I 88 W/m² 5,7 °C 3,2 km/h (1 Bft)
16.11.2016 09:50 6,4 °C 6,4 °C 97 % 1024,0 hPa 0,0 mm 2,4 km/h (1 Bft) S-SW 205 ° 0 min 0,000 mm 0,6 UV-I 88 W/m² 6,0 °C 3,2 km/h (1 Bft)
16.11.2016 09:51 6,4 °C 6,4 °C 97 % 1024,0 hPa 0,0 mm 2,6 km/h (1 Bft) S-SW 205 ° 0 min 0,000 mm 0,6 UV-I 91 W/m² 6,0 °C 3,2 km/h (1 Bft)
16.11.2016 09:52 6,4 °C 6,4 °C 97 % 1023,9 hPa 0,0 mm 1,6 km/h (1 Bft) S-SW 205 ° 0 min 0,000 mm 0,6 UV-I 95 W/m² 6,0 °C 3,2 km/h (1 Bft)
16.11.2016 09:53 6,5 °C 6,5 °C 97 % 1024,0 hPa 0,0 mm 0,2 km/h (0 Bft) S-SW 205 ° 0 min 0,000 mm 0,6 UV-I 97 W/m² 6,1 °C 1,6 km/h (1 Bft)
16.11.2016 09:54 6,5 °C 6,5 °C 97 % 1023,9 hPa 0,0 mm 1,1 km/h (1 Bft) S-SW 205 ° 0 min 0,000 mm 0,6 UV-I 97 W/m² 6,1 °C 3,2 km/h (1 Bft)
16.11.2016 09:55 6,6 °C 6,6 °C 97 % 1023,9 hPa 0,0 mm 2,0 km/h (1 Bft) S-SW 205 ° 0 min 0,000 mm 0,6 UV-I 97 W/m² 6,2 °C 3,2 km/h (1 Bft)
16.11.2016 09:56 6,6 °C 6,6 °C 97 % 1023,9 hPa 0,0 mm 1,1 km/h (1 Bft) S-SW 205 ° 0 min 0,000 mm 0,6 UV-I 97 W/m² 6,2 °C 3,2 km/h (1 Bft)
16.11.2016 09:57 6,6 °C 6,6 °C 97 % 1023,9 hPa 0,0 mm 1,8 km/h (1 Bft) S-SW 205 ° 0 min 0,000 mm 0,6 UV-I 97 W/m² 6,2 °C 3,2 km/h (1 Bft)
16.11.2016 09:58 6,7 °C 6,7 °C 97 % 1023,9 hPa 0,0 mm 1,3 km/h (1 Bft) S-SW 205 ° 0 min 0,000 mm 0,6 UV-I 95 W/m² 6,3 °C 3,2 km/h (1 Bft)
16.11.2016 09:59 6,7 °C 6,7 °C 97 % 1023,9 hPa 0,0 mm 1,3 km/h (1 Bft) S-SW 205 ° 0 min 0,000 mm 0,6 UV-I 93 W/m² 6,3 °C 3,2 km/h (1 Bft)
16.11.2016 10:00 6,7 °C 6,7 °C 97 % 1023,9 hPa 0,0 mm 1,2 km/h (1 Bft) S-SW 205 ° 0 min 0,000 mm 0,6 UV-I 91 W/m² 6,3 °C 3,2 km/h (1 Bft)
16.11.2016 10:01 6,7 °C 6,7 °C 97 % 1023,9 hPa 0,0 mm 2,5 km/h (1 Bft) S-SW 207 ° 0 min 0,025 mm 0,6 UV-I 91 W/m² 6,3 °C 3,2 km/h (1 Bft)
16.11.2016 10:02 6,8 °C 6,8 °C 97 % 1023,9 hPa 0,0 mm 2,5 km/h (1 Bft) S-SW 207 ° 0 min 0,000 mm 0,6 UV-I 91 W/m² 6,4 °C 3,2 km/h (1 Bft)
16.11.2016 10:03 6,8 °C 6,8 °C 97 % 1023,9 hPa 0,0 mm 1,7 km/h (1 Bft) S-SW 207 ° 0 min 0,000 mm 0,6 UV-I 91 W/m² 6,4 °C 3,2 km/h (1 Bft)
16.11.2016 10:04 6,8 °C 6,8 °C 97 % 1024,0 hPa 0,0 mm 1,5 km/h (1 Bft) S-SW 207 ° 0 min 0,000 mm 0,6 UV-I 88 W/m² 6,4 °C 3,2 km/h (1 Bft)
16.11.2016 10:05 6,8 °C 6,8 °C 97 % 1024,0 hPa 0,0 mm 0,3 km/h (0 Bft) S-SW 207 ° 0 min 0,000 mm 0,6 UV-I 86 W/m² 6,4 °C 1,6 km/h (1 Bft)
16.11.2016 10:06 6,8 °C 6,8 °C 97 % 1024,0 hPa 0,0 mm 1,8 km/h (1 Bft) S-SW 207 ° 0 min 0,000 mm 0,5 UV-I 84 W/m² 6,4 °C 3,2 km/h (1 Bft)
16.11.2016 10:07 6,8 °C 6,8 °C 97 % 1024,0 hPa 0,0 mm 0,7 km/h (0 Bft) S-SW 207 ° 0 min 0,000 mm 0,5 UV-I 83 W/m² 6,4 °C 1,6 km/h (1 Bft)
16.11.2016 10:08 6,9 °C 6,9 °C 97 % 1024,0 hPa 0,0 mm 1,7 km/h (1 Bft) S-SW 207 ° 0 min 0,000 mm 0,5 UV-I 79 W/m² 6,5 °C 3,2 km/h (1 Bft)
16.11.2016 10:09 6,9 °C 6,9 °C 97 % 1024,0 hPa 0,0 mm 0,9 km/h (0 Bft) S-SW 207 ° 0 min 0,000 mm 0,5 UV-I 77 W/m² 6,5 °C 1,6 km/h (1 Bft)
16.11.2016 10:10 6,9 °C 6,9 °C 97 % 1024,0 hPa 0,0 mm 1,9 km/h (1 Bft) S-SW 207 ° 0 min 0,000 mm 0,5 UV-I 72 W/m² 6,5 °C 3,2 km/h (1 Bft)
16.11.2016 10:11 6,9 °C 6,9 °C 97 % 1024,0 hPa 0,0 mm 2,4 km/h (1 Bft) SW 221 ° 0 min 0,000 mm 0,5 UV-I 69 W/m² 6,5 °C 3,2 km/h (1 Bft)
16.11.2016 10:12 6,9 °C 6,9 °C 97 % 1024,0 hPa 0,0 mm 2,1 km/h (1 Bft) SW 225 ° 0 min 0,000 mm 0,0 UV-I 67 W/m² 6,5 °C 3,2 km/h (1 Bft)
16.11.2016 10:13 6,9 °C 6,9 °C 97 % 1024,0 hPa 0,0 mm 2,9 km/h (1 Bft) SW 226 ° 0 min 0,000 mm 0,0 UV-I 65 W/m² 6,5 °C 3,2 km/h (1 Bft)
16.11.2016 10:14 6,9 °C 6,9 °C 97 % 1024,0 hPa 0,0 mm 1,7 km/h (1 Bft) SW 226 ° 0 min 0,000 mm 0,0 UV-I 63 W/m² 6,5 °C 3,2 km/h (1 Bft)
16.11.2016 10:15 6,9 °C 6,9 °C 97 % 1024,0 hPa 0,0 mm 1,9 km/h (1 Bft) SW 226 ° 0 min 0,000 mm 0,0 UV-I 63 W/m² 6,5 °C 3,2 km/h (1 Bft)
16.11.2016 10:16 6,9 °C 6,9 °C 97 % 1024,0 hPa 0,0 mm 2,1 km/h (1 Bft) SW 226 ° 0 min 0,000 mm 0,0 UV-I 65 W/m² 6,5 °C 3,2 km/h (1 Bft)
16.11.2016 10:17 6,9 °C 6,9 °C 97 % 1023,9 hPa 0,0 mm 2,3 km/h (1 Bft) SW 227 ° 0 min 0,000 mm 0,5 UV-I 67 W/m² 6,5 °C 4,8 km/h (1 Bft)
16.11.2016 10:18 6,9 °C 7,0 °C 97 % 1023,9 hPa 0,0 mm 2,2 km/h (1 Bft) SW 227 ° 0 min 0,000 mm 0,5 UV-I 70 W/m² 6,5 °C 3,2 km/h (1 Bft)
16.11.2016 10:19 7,0 °C 7,0 °C 96 % 1024,0 hPa 0,0 mm 2,7 km/h (1 Bft) SW 229 ° 0 min 0,000 mm 0,5 UV-I 72 W/m² 6,4 °C 3,2 km/h (1 Bft)
16.11.2016 10:20 6,9 °C 7,0 °C 97 % 1023,9 hPa 0,0 mm 3,4 km/h (1 Bft) W 260 ° 0 min 0,000 mm 0,5 UV-I 76 W/m² 6,5 °C 4,8 km/h (1 Bft)
16.11.2016 10:21 7,0 °C 7,0 °C 96 % 1023,9 hPa 0,0 mm 2,4 km/h (1 Bft) W 261 ° 0 min 0,000 mm 0,5 UV-I 77 W/m² 6,4 °C 4,8 km/h (1 Bft)
16.11.2016 10:22 7,0 °C 7,0 °C 96 % 1024,0 hPa 0,0 mm 2,5 km/h (1 Bft) W 261 ° 0 min 0,000 mm 0,5 UV-I 77 W/m² 6,4 °C 3,2 km/h (1 Bft)
16.11.2016 10:23 7,0 °C 7,1 °C 97 % 1024,0 hPa 0,0 mm 2,7 km/h (1 Bft) W 261 ° 0 min 0,000 mm 0,6 UV-I 79 W/m² 6,6 °C 3,2 km/h (1 Bft)
16.11.2016 10:24 7,0 °C 7,0 °C 97 % 1024,0 hPa 0,0 mm 3,1 km/h (1 Bft) W 261 ° 0 min 0,000 mm 0,6 UV-I 81 W/m² 6,6 °C 4,8 km/h (1 Bft)
16.11.2016 10:25 7,0 °C 7,0 °C 97 % 1024,0 hPa 0,0 mm 3,1 km/h (1 Bft) W 260 ° 0 min 0,000 mm 0,6 UV-I 83 W/m² 6,6 °C 3,2 km/h (1 Bft)
16.11.2016 10:26 7,1 °C 7,1 °C 97 % 1023,9 hPa 0,0 mm 2,7 km/h (1 Bft) W 260 ° 0 min 0,000 mm 0,6 UV-I 84 W/m² 6,7 °C 4,8 km/h (1 Bft)
16.11.2016 10:27 7,1 °C 7,1 °C 97 % 1023,9 hPa 0,0 mm 3,4 km/h (1 Bft) W 260 ° 0 min 0,000 mm 0,6 UV-I 88 W/m² 6,7 °C 4,8 km/h (1 Bft)
16.11.2016 10:28 7,1 °C 7,1 °C 97 % 1023,9 hPa 0,0 mm 3,0 km/h (1 Bft) W 260 ° 0 min 0,000 mm 0,6 UV-I 90 W/m² 6,7 °C 4,8 km/h (1 Bft)
16.11.2016 10:29 7,1 °C 7,1 °C 97 % 1023,9 hPa 0,0 mm 1,8 km/h (1 Bft) W 260 ° 0 min 0,000 mm 0,6 UV-I 90 W/m² 6,7 °C 3,2 km/h (1 Bft)
16.11.2016 10:30 7,1 °C 7,1 °C 97 % 1023,9 hPa 0,0 mm 2,3 km/h (1 Bft) S-SW 211 ° 0 min 0,000 mm 0,6 UV-I 91 W/m² 6,7 °C 3,2 km/h (1 Bft)
16.11.2016 10:31 7,1 °C 7,1 °C 97 % 1023,9 hPa 0,0 mm 2,0 km/h (1 Bft) S-SW 211 ° 0 min 0,000 mm 0,7 UV-I 93 W/m² 6,7 °C 3,2 km/h (1 Bft)
16.11.2016 10:32 7,1 °C 7,1 °C 97 % 1023,8 hPa 0,0 mm 0,7 km/h (0 Bft) S-SW 211 ° 0 min 0,000 mm 0,7 UV-I 95 W/m² 6,7 °C 1,6 km/h (1 Bft)
16.11.2016 10:33 7,1 °C 7,1 °C 97 % 1023,8 hPa 0,0 mm 0,5 km/h (0 Bft) S-SW 211 ° 0 min 0,000 mm 0,7 UV-I 98 W/m² 6,7 °C 1,6 km/h (1 Bft)
16.11.2016 10:34 7,1 °C 7,1 °C 97 % 1023,9 hPa 0,0 mm 0,2 km/h (0 Bft) S-SW 211 ° 0 min 0,000 mm 0,7 UV-I 98 W/m² 6,7 °C 1,6 km/h (1 Bft)
16.11.2016 10:35 7,1 °C 7,1 °C 97 % 1023,8 hPa 0,0 mm 1,5 km/h (1 Bft) S-SW 211 ° 0 min 0,000 mm 0,7 UV-I 100 W/m² 6,7 °C 3,2 km/h (1 Bft)
16.11.2016 10:36 7,2 °C 7,2 °C 96 % 1023,9 hPa 0,0 mm 1,0 km/h (0 Bft) S-SW 211 ° 0 min 0,000 mm 0,7 UV-I 100 W/m² 6,6 °C 3,2 km/h (1 Bft)
16.11.2016 10:37 7,2 °C 7,2 °C 97 % 1023,8 hPa 0,0 mm 1,7 km/h (1 Bft) S-SW 211 ° 0 min 0,000 mm 0,7 UV-I 100 W/m² 6,8 °C 3,2 km/h (1 Bft)
16.11.2016 10:38 7,2 °C 7,2 °C 97 % 1023,9 hPa 0,0 mm 1,1 km/h (1 Bft) S-SW 211 ° 0 min 0,000 mm 0,7 UV-I 102 W/m² 6,8 °C 3,2 km/h (1 Bft)
16.11.2016 10:39 7,2 °C 7,2 °C 96 % 1023,9 hPa 0,0 mm 1,4 km/h (1 Bft) S-SW 211 ° 0 min 0,000 mm 0,7 UV-I 105 W/m² 6,6 °C 3,2 km/h (1 Bft)
16.11.2016 10:40 7,2 °C 7,2 °C 97 % 1023,9 hPa 0,0 mm 2,7 km/h (1 Bft) W-SW 253 ° 0 min 0,000 mm 0,8 UV-I 107 W/m² 6,8 °C 3,2 km/h (1 Bft)
16.11.2016 10:41 7,3 °C 7,3 °C 97 % 1023,9 hPa 0,0 mm 2,8 km/h (1 Bft) W-SW 253 ° 0 min 0,000 mm 0,8 UV-I 107 W/m² 6,9 °C 3,2 km/h (1 Bft)
16.11.2016 10:42 7,3 °C 7,3 °C 97 % 1023,9 hPa 0,0 mm 2,8 km/h (1 Bft) W-SW 253 ° 0 min 0,000 mm 0,8 UV-I 109 W/m² 6,9 °C 3,2 km/h (1 Bft)
16.11.2016 10:43 7,4 °C 7,4 °C 97 % 1023,8 hPa 0,0 mm 2,0 km/h (1 Bft) W-SW 253 ° 0 min 0,000 mm 0,8 UV-I 109 W/m² 7,0 °C 4,8 km/h (1 Bft)
16.11.2016 10:44 7,5 °C 7,5 °C 97 % 1023,8 hPa 0,0 mm 2,6 km/h (1 Bft) W-SW 253 ° 0 min 0,000 mm 0,8 UV-I 111 W/m² 7,1 °C 3,2 km/h (1 Bft)
16.11.2016 10:45 7,6 °C 7,6 °C 97 % 1023,9 hPa 0,0 mm 2,1 km/h (1 Bft) W-SW 253 ° 0 min 0,000 mm 0,8 UV-I 113 W/m² 7,2 °C 3,2 km/h (1 Bft)
16.11.2016 10:46 7,6 °C 7,6 °C 96 % 1023,8 hPa 0,0 mm 1,9 km/h (1 Bft) W-SW 253 ° 0 min 0,000 mm 0,8 UV-I 113 W/m² 7,0 °C 3,2 km/h (1 Bft)
16.11.2016 10:47 7,6 °C 7,6 °C 96 % 1023,9 hPa 0,0 mm 3,3 km/h (1 Bft) W-SW 247 ° 0 min 0,000 mm 0,8 UV-I 113 W/m² 7,0 °C 4,8 km/h (1 Bft)
16.11.2016 10:48 7,6 °C 7,7 °C 96 % 1023,8 hPa 0,0 mm 1,8 km/h (1 Bft) W-SW 247 ° 0 min 0,000 mm 0,8 UV-I 113 W/m² 7,0 °C 3,2 km/h (1 Bft)
16.11.2016 10:49 7,7 °C 7,7 °C 96 % 1023,8 hPa 0,0 mm 1,9 km/h (1 Bft) W-SW 247 ° 0 min 0,000 mm 0,8 UV-I 114 W/m² 7,1 °C 3,2 km/h (1 Bft)
16.11.2016 10:50 7,7 °C 7,7 °C 96 % 1023,8 hPa 0,0 mm 1,5 km/h (1 Bft) W-SW 247 ° 0 min 0,000 mm 0,8 UV-I 114 W/m² 7,1 °C 3,2 km/h (1 Bft)
16.11.2016 10:51 7,7 °C 7,7 °C 96 % 1023,8 hPa 0,0 mm 1,5 km/h (1 Bft) W-SW 247 ° 0 min 0,000 mm 0,8 UV-I 116 W/m² 7,1 °C 3,2 km/h (1 Bft)
16.11.2016 10:52 7,8 °C 7,8 °C 96 % 1023,7 hPa 0,0 mm 0,7 km/h (0 Bft) W-SW 247 ° 0 min 0,000 mm 0,8 UV-I 118 W/m² 7,2 °C 1,6 km/h (1 Bft)
16.11.2016 10:53 7,8 °C 7,8 °C 96 % 1023,7 hPa 0,0 mm 0,5 km/h (0 Bft) W-SW 247 ° 0 min 0,000 mm 0,8 UV-I 118 W/m² 7,2 °C 1,6 km/h (1 Bft)
16.11.2016 10:54 7,8 °C 7,8 °C 96 % 1023,7 hPa 0,0 mm 0,9 km/h (0 Bft) W-SW 247 ° 0 min 0,000 mm 0,8 UV-I 118 W/m² 7,2 °C 1,6 km/h (1 Bft)
16.11.2016 10:55 7,8 °C 7,9 °C 96 % 1023,7 hPa 0,0 mm 1,1 km/h (1 Bft) W-SW 247 ° 0 min 0,000 mm 0,8 UV-I 120 W/m² 7,2 °C 1,6 km/h (1 Bft)
16.11.2016 10:56 7,9 °C 7,9 °C 96 % 1023,7 hPa 0,0 mm 0,9 km/h (0 Bft) W-SW 247 ° 0 min 0,000 mm 0,8 UV-I 120 W/m² 7,3 °C 1,6 km/h (1 Bft)
16.11.2016 10:57 7,9 °C 7,9 °C 95 % 1023,7 hPa 0,0 mm 1,1 km/h (1 Bft) W-SW 247 ° 0 min 0,000 mm 0,8 UV-I 121 W/m² 7,1 °C 1,6 km/h (1 Bft)
16.11.2016 10:58 8,0 °C 8,0 °C 95 % 1023,6 hPa 0,0 mm 1,5 km/h (1 Bft) W-SW 247 ° 0 min 0,000 mm 0,8 UV-I 120 W/m² 7,2 °C 3,2 km/h (1 Bft)
16.11.2016 10:59 8,0 °C 8,0 °C 95 % 1023,7 hPa 0,0 mm 1,9 km/h (1 Bft) W-SW 247 ° 0 min 0,000 mm 0,8 UV-I 120 W/m² 7,2 °C 3,2 km/h (1 Bft)
16.11.2016 11:00 8,0 °C 8,1 °C 95 % 1023,7 hPa 0,0 mm 2,8 km/h (1 Bft) W 261 ° 0 min 0,051 mm 0,8 UV-I 120 W/m² 7,2 °C 4,8 km/h (1 Bft)
16.11.2016 11:01 8,1 °C 8,1 °C 95 % 1023,7 hPa 0,0 mm 3,7 km/h (1 Bft) W 269 ° 0 min 0,000 mm 0,8 UV-I 118 W/m² 7,3 °C 6,4 km/h (2 Bft)
16.11.2016 11:02 8,0 °C 8,1 °C 95 % 1023,6 hPa 0,0 mm 3,9 km/h (1 Bft) W 270 ° 0 min 0,000 mm 0,8 UV-I 116 W/m² 7,2 °C 6,4 km/h (2 Bft)
16.11.2016 11:03 8,0 °C 8,0 °C 94 % 1023,6 hPa 0,0 mm 3,8 km/h (1 Bft) W 270 ° 0 min 0,000 mm 0,8 UV-I 114 W/m² 7,1 °C 4,8 km/h (1 Bft)
16.11.2016 11:04 7,9 °C 8,0 °C 94 % 1023,6 hPa 0,0 mm 3,0 km/h (1 Bft) W 270 ° 0 min 0,000 mm 0,8 UV-I 114 W/m² 7,0 °C 4,8 km/h (1 Bft)
16.11.2016 11:05 7,9 °C 8,0 °C 94 % 1023,6 hPa 0,0 mm 3,1 km/h (1 Bft) W 270 ° 0 min 0,000 mm 0,8 UV-I 113 W/m² 7,0 °C 4,8 km/h (1 Bft)
16.11.2016 11:06 7,9 °C 8,0 °C 94 % 1023,6 hPa 0,0 mm 2,7 km/h (1 Bft) W 270 ° 0 min 0,000 mm 0,8 UV-I 113 W/m² 7,0 °C 3,2 km/h (1 Bft)
16.11.2016 11:07 7,9 °C 7,9 °C 94 % 1023,6 hPa 0,0 mm 2,7 km/h (1 Bft) W 270 ° 0 min 0,000 mm 0,8 UV-I 111 W/m² 7,0 °C 4,8 km/h (1 Bft)
16.11.2016 11:08 7,9 °C 7,9 °C 94 % 1023,5 hPa 0,0 mm 2,5 km/h (1 Bft) W 270 ° 0 min 0,000 mm 0,8 UV-I 105 W/m² 7,0 °C 4,8 km/h (1 Bft)
16.11.2016 11:09 7,9 °C 7,9 °C 94 % 1023,5 hPa 0,0 mm 3,0 km/h (1 Bft) W 270 ° 0 min 0,000 mm 0,8 UV-I 104 W/m² 7,0 °C 3,2 km/h (1 Bft)
16.11.2016 11:10 7,9 °C 7,9 °C 94 % 1023,5 hPa 0,0 mm 3,9 km/h (1 Bft) SW 236 ° 0 min 0,000 mm 0,7 UV-I 102 W/m² 7,0 °C 6,4 km/h (2 Bft)
16.11.2016 11:11 8,0 °C 8,0 °C 94 % 1023,5 hPa 0,0 mm 3,4 km/h (1 Bft) W-SW 252 ° 0 min 0,000 mm 0,7 UV-I 100 W/m² 7,1 °C 6,4 km/h (2 Bft)
16.11.2016 11:12 7,9 °C 8,0 °C 94 % 1023,5 hPa 0,0 mm 2,3 km/h (1 Bft) W-SW 252 ° 0 min 0,000 mm 0,7 UV-I 98 W/m² 7,0 °C 3,2 km/h (1 Bft)
16.11.2016 11:13 7,9 °C 7,9 °C 94 % 1023,5 hPa 0,0 mm 0,7 km/h (0 Bft) SW 226 ° 0 min 0,000 mm 0,7 UV-I 97 W/m² 7,0 °C 1,6 km/h (1 Bft)
16.11.2016 11:14 7,9 °C 7,9 °C 94 % 1023,4 hPa 0,0 mm 0,2 km/h (0 Bft) SW 226 ° 0 min 0,000 mm 0,7 UV-I 95 W/m² 7,0 °C 1,6 km/h (1 Bft)
16.11.2016 11:15 8,0 °C 8,0 °C 95 % 1023,5 hPa 0,0 mm 1,6 km/h (1 Bft) SW 227 ° 0 min 0,000 mm 0,7 UV-I 95 W/m² 7,2 °C 3,2 km/h (1 Bft)
16.11.2016 11:16 8,0 °C 8,0 °C 95 % 1023,4 hPa 0,0 mm 0,5 km/h (0 Bft) SW 227 ° 0 min 0,000 mm 0,6 UV-I 93 W/m² 7,2 °C 1,6 km/h (1 Bft)
16.11.2016 11:17 8,0 °C 8,0 °C 95 % 1023,3 hPa 0,0 mm 1,5 km/h (1 Bft) SW 227 ° 0 min 0,000 mm 0,6 UV-I 93 W/m² 7,2 °C 3,2 km/h (1 Bft)
16.11.2016 11:18 8,1 °C 8,1 °C 95 % 1023,3 hPa 0,0 mm 1,9 km/h (1 Bft) SW 227 ° 0 min 0,000 mm 0,6 UV-I 91 W/m² 7,3 °C 4,8 km/h (1 Bft)
16.11.2016 11:19 8,0 °C 8,1 °C 94 % 1023,3 hPa 0,0 mm 0,0 km/h (0 Bft) SW 227 ° 0 min 0,000 mm 0,6 UV-I 91 W/m² 7,1 °C 0,0 km/h (0 Bft)
16.11.2016 11:20 8,0 °C 8,0 °C 95 % 1023,3 hPa 0,0 mm 1,0 km/h (0 Bft) SW 227 ° 0 min 0,000 mm 0,6 UV-I 91 W/m² 7,2 °C 3,2 km/h (1 Bft)
16.11.2016 11:21 8,1 °C 8,1 °C 94 % 1023,2 hPa 0,0 mm 0,5 km/h (0 Bft) SW 227 ° 0 min 0,000 mm 0,6 UV-I 90 W/m² 7,2 °C 1,6 km/h (1 Bft)
16.11.2016 11:22 8,0 °C 8,1 °C 94 % 1023,3 hPa 0,0 mm 1,9 km/h (1 Bft) SW 227 ° 0 min 0,000 mm 0,6 UV-I 88 W/m² 7,1 °C 3,2 km/h (1 Bft)
16.11.2016 11:23 8,1 °C 8,1 °C 94 % 1023,3 hPa 0,0 mm 1,7 km/h (1 Bft) SW 227 ° 0 min 0,000 mm 0,6 UV-I 86 W/m² 7,2 °C 3,2 km/h (1 Bft)
16.11.2016 11:24 8,0 °C 8,1 °C 94 % 1023,3 hPa 0,0 mm 2,0 km/h (1 Bft) SW 227 ° 0 min 0,000 mm 0,6 UV-I 84 W/m² 7,1 °C 3,2 km/h (1 Bft)
16.11.2016 11:25 8,1 °C 8,1 °C 94 % 1023,2 hPa 0,0 mm 3,5 km/h (1 Bft) W 272 ° 0 min 0,000 mm 0,6 UV-I 83 W/m² 7,2 °C 4,8 km/h (1 Bft)
16.11.2016 11:26 8,0 °C 8,1 °C 94 % 1023,2 hPa 0,0 mm 2,5 km/h (1 Bft) W 271 ° 0 min 0,000 mm 0,6 UV-I 77 W/m² 7,1 °C 4,8 km/h (1 Bft)
16.11.2016 11:27 8,0 °C 8,0 °C 94 % 1023,1 hPa 0,0 mm 1,7 km/h (1 Bft) W 271 ° 0 min 0,000 mm 0,6 UV-I 76 W/m² 7,1 °C 3,2 km/h (1 Bft)
16.11.2016 11:28 8,0 °C 8,0 °C 94 % 1023,1 hPa 0,0 mm 1,0 km/h (0 Bft) W 271 ° 0 min 0,000 mm 0,6 UV-I 76 W/m² 7,1 °C 1,6 km/h (1 Bft)
16.11.2016 11:29 8,0 °C 8,0 °C 94 % 1023,1 hPa 0,0 mm 0,1 km/h (0 Bft) W 271 ° 0 min 0,000 mm 0,6 UV-I 74 W/m² 7,1 °C 1,6 km/h (1 Bft)
16.11.2016 11:30 8,0 °C 8,0 °C 94 % 1023,1 hPa 0,0 mm 0,9 km/h (0 Bft) W 271 ° 0 min 0,000 mm 0,6 UV-I 74 W/m² 7,1 °C 3,2 km/h (1 Bft)
16.11.2016 11:31 8,0 °C 8,0 °C 94 % 1023,1 hPa 0,0 mm 2,1 km/h (1 Bft) W 271 ° 0 min 0,000 mm 0,6 UV-I 74 W/m² 7,1 °C 3,2 km/h (1 Bft)
16.11.2016 11:32 8,0 °C 8,0 °C 94 % 1023,1 hPa 0,0 mm 2,1 km/h (1 Bft) W 271 ° 0 min 0,000 mm 0,6 UV-I 74 W/m² 7,1 °C 3,2 km/h (1 Bft)
16.11.2016 11:33 8,1 °C 8,1 °C 94 % 1023,1 hPa 0,0 mm 2,2 km/h (1 Bft) W 271 ° 0 min 0,000 mm 0,6 UV-I 74 W/m² 7,2 °C 3,2 km/h (1 Bft)
16.11.2016 11:34 8,1 °C 8,1 °C 94 % 1023,1 hPa 0,0 mm 1,7 km/h (1 Bft) W 271 ° 0 min 0,000 mm 0,6 UV-I 76 W/m² 7,2 °C 3,2 km/h (1 Bft)
16.11.2016 11:35 8,1 °C 8,1 °C 94 % 1023,1 hPa 0,2 mm 1,6 km/h (1 Bft) W 271 ° 0 min 0,000 mm 0,6 UV-I 76 W/m² 7,2 °C 3,2 km/h (1 Bft)
16.11.2016 11:36 8,1 °C 8,1 °C 94 % 1023,1 hPa 0,0 mm 0,4 km/h (0 Bft) W 271 ° 0 min 0,000 mm 0,6 UV-I 76 W/m² 7,2 °C 1,6 km/h (1 Bft)
16.11.2016 11:37 8,1 °C 8,1 °C 94 % 1023,0 hPa 0,0 mm 2,4 km/h (1 Bft) W-SW 254 ° 0 min 0,000 mm 0,6 UV-I 74 W/m² 7,2 °C 4,8 km/h (1 Bft)
16.11.2016 11:38 8,1 °C 8,1 °C 94 % 1023,0 hPa 0,0 mm 1,2 km/h (1 Bft) W-SW 254 ° 0 min 0,000 mm 0,6 UV-I 74 W/m² 7,2 °C 3,2 km/h (1 Bft)
16.11.2016 11:39 8,1 °C 8,1 °C 94 % 1023,0 hPa 0,0 mm 1,9 km/h (1 Bft) S 184 ° 0 min 0,000 mm 0,6 UV-I 74 W/m² 7,2 °C 3,2 km/h (1 Bft)
16.11.2016 11:40 8,1 °C 8,1 °C 94 % 1023,0 hPa 0,0 mm 2,3 km/h (1 Bft) S 185 ° 0 min 0,000 mm 0,6 UV-I 72 W/m² 7,2 °C 4,8 km/h (1 Bft)
16.11.2016 11:41 8,1 °C 8,1 °C 94 % 1022,9 hPa 0,0 mm 0,5 km/h (0 Bft) S 185 ° 0 min 0,000 mm 0,6 UV-I 72 W/m² 7,2 °C 3,2 km/h (1 Bft)
16.11.2016 11:42 8,1 °C 8,1 °C 94 % 1022,9 hPa 0,0 mm 0,7 km/h (0 Bft) S 185 ° 0 min 0,000 mm 0,5 UV-I 72 W/m² 7,2 °C 1,6 km/h (1 Bft)
16.11.2016 11:43 8,1 °C 8,1 °C 94 % 1022,9 hPa 0,0 mm 0,5 km/h (0 Bft) S 185 ° 0 min 0,000 mm 0,5 UV-I 70 W/m² 7,2 °C 1,6 km/h (1 Bft)
16.11.2016 11:44 8,1 °C 8,1 °C 94 % 1022,9 hPa 0,0 mm 0,5 km/h (0 Bft) S 185 ° 0 min 0,000 mm 0,5 UV-I 69 W/m² 7,2 °C 1,6 km/h (1 Bft)
16.11.2016 11:45 8,1 °C 8,1 °C 94 % 1022,9 hPa 0,0 mm 2,0 km/h (1 Bft) S 185 ° 0 min 0,000 mm 0,5 UV-I 69 W/m² 7,2 °C 4,8 km/h (1 Bft)
16.11.2016 11:46 8,1 °C 8,1 °C 94 % 1022,9 hPa 0,0 mm 0,8 km/h (0 Bft) S 185 ° 0 min 0,000 mm 0,5 UV-I 69 W/m² 7,2 °C 3,2 km/h (1 Bft)
16.11.2016 11:47 8,1 °C 8,1 °C 94 % 1022,8 hPa 0,0 mm 0,4 km/h (0 Bft) S 185 ° 0 min 0,000 mm 0,5 UV-I 69 W/m² 7,2 °C 1,6 km/h (1 Bft)
16.11.2016 11:48 8,1 °C 8,1 °C 94 % 1022,8 hPa 0,0 mm 0,9 km/h (0 Bft) S 185 ° 0 min 0,000 mm 0,5 UV-I 69 W/m² 7,2 °C 1,6 km/h (1 Bft)
16.11.2016 11:49 8,1 °C 8,1 °C 94 % 1022,8 hPa 0,0 mm 0,8 km/h (0 Bft) S 186 ° 0 min 0,000 mm 0,5 UV-I 69 W/m² 7,2 °C 1,6 km/h (1 Bft)
16.11.2016 11:50 8,1 °C 8,1 °C 94 % 1022,8 hPa 0,0 mm 1,0 km/h (0 Bft) S 186 ° 0 min 0,000 mm 0,5 UV-I 69 W/m² 7,2 °C 3,2 km/h (1 Bft)
16.11.2016 11:51 8,1 °C 8,1 °C 94 % 1022,8 hPa 0,0 mm 0,9 km/h (0 Bft) S 186 ° 0 min 0,000 mm 0,5 UV-I 72 W/m² 7,2 °C 3,2 km/h (1 Bft)
16.11.2016 11:52 8,0 °C 8,1 °C 94 % 1022,8 hPa 0,2 mm 0,4 km/h (0 Bft) S 186 ° 0 min 0,000 mm 0,5 UV-I 74 W/m² 7,1 °C 1,6 km/h (1 Bft)
16.11.2016 11:53 8,0 °C 8,1 °C 94 % 1022,8 hPa 0,0 mm 1,0 km/h (0 Bft) S 186 ° 0 min 0,000 mm 0,6 UV-I 77 W/m² 7,1 °C 1,6 km/h (1 Bft)
16.11.2016 11:54 8,0 °C 8,0 °C 94 % 1022,7 hPa 0,0 mm 0,5 km/h (0 Bft) S 186 ° 0 min 0,000 mm 0,6 UV-I 81 W/m² 7,1 °C 1,6 km/h (1 Bft)
16.11.2016 11:55 8,0 °C 8,0 °C 94 % 1022,7 hPa 0,0 mm 1,0 km/h (0 Bft) S 186 ° 0 min 0,000 mm 0,6 UV-I 88 W/m² 7,1 °C 3,2 km/h (1 Bft)
16.11.2016 11:56 8,0 °C 8,0 °C 94 % 1022,7 hPa 0,0 mm 1,7 km/h (1 Bft) S 186 ° 0 min 0,000 mm 0,7 UV-I 91 W/m² 7,1 °C 3,2 km/h (1 Bft)
16.11.2016 11:57 8,0 °C 8,0 °C 94 % 1022,7 hPa 0,0 mm 0,8 km/h (0 Bft) S 186 ° 0 min 0,000 mm 0,7 UV-I 93 W/m² 7,1 °C 1,6 km/h (1 Bft)
16.11.2016 11:58 8,1 °C 8,1 °C 94 % 1022,7 hPa 0,0 mm 0,0 km/h (0 Bft) S 186 ° 0 min 0,000 mm 0,7 UV-I 95 W/m² 7,2 °C 0,0 km/h (0 Bft)
16.11.2016 11:59 8,0 °C 8,1 °C 95 % 1022,6 hPa 0,0 mm 0,0 km/h (0 Bft) S 186 ° 0 min 0,000 mm 0,7 UV-I 95 W/m² 7,2 °C 0,0 km/h (0 Bft)
16.11.2016 12:00 8,0 °C 8,1 °C 95 % 1022,6 hPa 0,0 mm 0,0 km/h (0 Bft) S 186 ° 0 min 0,000 mm 0,7 UV-I 95 W/m² 7,2 °C 0,0 km/h (0 Bft)
16.11.2016 12:01 8,0 °C 8,1 °C 95 % 1022,5 hPa 0,0 mm 0,0 km/h (0 Bft) S 186 ° 0 min 0,051 mm 0,7 UV-I 91 W/m² 7,2 °C 0,0 km/h (0 Bft)
16.11.2016 12:02 8,0 °C 8,1 °C 95 % 1022,5 hPa 0,0 mm 0,0 km/h (0 Bft) S 186 ° 0 min 0,000 mm 0,6 UV-I 90 W/m² 7,2 °C 0,0 km/h (0 Bft)
16.11.2016 12:03 8,1 °C 8,1 °C 95 % 1022,5 hPa 0,0 mm 0,8 km/h (0 Bft) S 186 ° 0 min 0,000 mm 0,6 UV-I 86 W/m² 7,3 °C 1,6 km/h (1 Bft)
16.11.2016 12:04 8,0 °C 8,1 °C 95 % 1022,5 hPa 0,0 mm 0,2 km/h (0 Bft) S 186 ° 0 min 0,000 mm 0,6 UV-I 84 W/m² 7,2 °C 1,6 km/h (1 Bft)
16.11.2016 12:05 8,0 °C 8,0 °C 95 % 1022,5 hPa 0,0 mm 0,1 km/h (0 Bft) S 186 ° 0 min 0,000 mm 0,6 UV-I 81 W/m² 7,2 °C 1,6 km/h (1 Bft)
16.11.2016 12:06 8,0 °C 8,1 °C 95 % 1022,5 hPa 0,0 mm 0,0 km/h (0 Bft) S 186 ° 0 min 0,000 mm 0,6 UV-I 79 W/m² 7,2 °C 0,0 km/h (0 Bft)
16.11.2016 12:07 8,0 °C 8,0 °C 95 % 1022,5 hPa 0,0 mm 1,7 km/h (1 Bft) SW 224 ° 0 min 0,000 mm 0,6 UV-I 77 W/m² 7,2 °C 3,2 km/h (1 Bft)
16.11.2016 12:08 8,0 °C 8,1 °C 95 % 1022,5 hPa 0,0 mm 1,8 km/h (1 Bft) SW 224 ° 0 min 0,000 mm 0,6 UV-I 77 W/m² 7,2 °C 3,2 km/h (1 Bft)
16.11.2016 12:09 8,1 °C 8,1 °C 95 % 1022,5 hPa 0,0 mm 2,3 km/h (1 Bft) S-SW 193 ° 0 min 0,000 mm 0,6 UV-I 79 W/m² 7,3 °C 3,2 km/h (1 Bft)
16.11.2016 12:10 8,1 °C 8,1 °C 95 % 1022,5 hPa 0,0 mm 1,5 km/h (1 Bft) S-SW 207 ° 0 min 0,000 mm 0,6 UV-I 81 W/m² 7,3 °C 3,2 km/h (1 Bft)
16.11.2016 12:11 8,1 °C 8,1 °C 95 % 1022,5 hPa 0,0 mm 0,5 km/h (0 Bft) S-SW 207 ° 0 min 0,000 mm 0,6 UV-I 83 W/m² 7,3 °C 1,6 km/h (1 Bft)
16.11.2016 12:12 8,1 °C 8,1 °C 95 % 1022,4 hPa 0,0 mm 0,0 km/h (0 Bft) S-SW 207 ° 0 min 0,000 mm 0,6 UV-I 84 W/m² 7,3 °C 0,0 km/h (0 Bft)
16.11.2016 12:13 8,1 °C 8,1 °C 95 % 1022,5 hPa 0,0 mm 3,1 km/h (1 Bft) SW 224 ° 0 min 0,000 mm 0,6 UV-I 86 W/m² 7,3 °C 4,8 km/h (1 Bft)
16.11.2016 12:14 8,1 °C 8,1 °C 95 % 1022,4 hPa 0,0 mm 2,1 km/h (1 Bft) SW 224 ° 0 min 0,000 mm 0,6 UV-I 88 W/m² 7,3 °C 4,8 km/h (1 Bft)
16.11.2016 12:15 8,1 °C 8,1 °C 95 % 1022,5 hPa 0,0 mm 1,3 km/h (1 Bft) SW 224 ° 0 min 0,000 mm 0,6 UV-I 88 W/m² 7,3 °C 3,2 km/h (1 Bft)
16.11.2016 12:16 8,1 °C 8,1 °C 94 % 1022,5 hPa 0,0 mm 3,0 km/h (1 Bft) S-SW 204 ° 0 min 0,000 mm 0,6 UV-I 88 W/m² 7,2 °C 4,8 km/h (1 Bft)
16.11.2016 12:17 8,2 °C 8,2 °C 94 % 1022,4 hPa 0,0 mm 1,3 km/h (1 Bft) S-SW 204 ° 0 min 0,000 mm 0,6 UV-I 88 W/m² 7,3 °C 3,2 km/h (1 Bft)
16.11.2016 12:18 8,2 °C 8,2 °C 94 % 1022,4 hPa 0,0 mm 0,4 km/h (0 Bft) S-SW 204 ° 0 min 0,000 mm 0,6 UV-I 88 W/m² 7,3 °C 1,6 km/h (1 Bft)
16.11.2016 12:19 8,2 °C 8,2 °C 94 % 1022,4 hPa 0,0 mm 0,5 km/h (0 Bft) S-SW 204 ° 0 min 0,000 mm 0,6 UV-I 84 W/m² 7,3 °C 1,6 km/h (1 Bft)
16.11.2016 12:20 8,2 °C 8,2 °C 94 % 1022,4 hPa 0,0 mm 2,0 km/h (1 Bft) S-SW 204 ° 0 min 0,000 mm 0,6 UV-I 83 W/m² 7,3 °C 3,2 km/h (1 Bft)
16.11.2016 12:21 8,2 °C 8,2 °C 94 % 1022,3 hPa 0,0 mm 1,3 km/h (1 Bft) S-SW 204 ° 0 min 0,000 mm 0,6 UV-I 83 W/m² 7,3 °C 3,2 km/h (1 Bft)
16.11.2016 12:22 8,2 °C 8,2 °C 94 % 1022,3 hPa 0,0 mm 0,0 km/h (0 Bft) S-SW 204 ° 0 min 0,000 mm 0,6 UV-I 83 W/m² 7,3 °C 0,0 km/h (0 Bft)
16.11.2016 12:23 8,2 °C 8,2 °C 94 % 1022,4 hPa 0,0 mm 0,5 km/h (0 Bft) S-SW 204 ° 0 min 0,000 mm 0,6 UV-I 83 W/m² 7,3 °C 1,6 km/h (1 Bft)
16.11.2016 12:24 8,3 °C 8,3 °C 95 % 1022,3 hPa 0,0 mm 0,6 km/h (0 Bft) S-SW 204 ° 0 min 0,000 mm 0,6 UV-I 86 W/m² 7,5 °C 1,6 km/h (1 Bft)
16.11.2016 12:25 8,2 °C 8,3 °C 95 % 1022,3 hPa 0,0 mm 1,5 km/h (1 Bft) S-SW 204 ° 0 min 0,000 mm 0,6 UV-I 88 W/m² 7,4 °C 3,2 km/h (1 Bft)
16.11.2016 12:26 8,2 °C 8,3 °C 95 % 1022,3 hPa 0,2 mm 0,1 km/h (0 Bft) S-SW 204 ° 0 min 0,000 mm 0,6 UV-I 88 W/m² 7,4 °C 1,6 km/h (1 Bft)
16.11.2016 12:27 8,3 °C 8,3 °C 95 % 1022,3 hPa 0,0 mm 0,0 km/h (0 Bft) S-SW 204 ° 0 min 0,000 mm 0,7 UV-I 90 W/m² 7,5 °C 0,0 km/h (0 Bft)
16.11.2016 12:28 8,3 °C 8,3 °C 95 % 1022,3 hPa 0,0 mm 0,4 km/h (0 Bft) S-SW 204 ° 0 min 0,000 mm 0,7 UV-I 90 W/m² 7,5 °C 1,6 km/h (1 Bft)
16.11.2016 12:29 8,3 °C 8,3 °C 95 % 1022,2 hPa 0,0 mm 0,1 km/h (0 Bft) S-SW 204 ° 0 min 0,000 mm 0,7 UV-I 91 W/m² 7,5 °C 1,6 km/h (1 Bft)
16.11.2016 12:30 8,3 °C 8,3 °C 95 % 1022,2 hPa 0,0 mm 1,2 km/h (1 Bft) S-SW 203 ° 0 min 0,000 mm 0,7 UV-I 97 W/m² 7,5 °C 3,2 km/h (1 Bft)
16.11.2016 12:31 8,3 °C 8,3 °C 95 % 1022,2 hPa 0,0 mm 0,6 km/h (0 Bft) S-SW 203 ° 0 min 0,000 mm 0,7 UV-I 97 W/m² 7,5 °C 1,6 km/h (1 Bft)
16.11.2016 12:32 8,3 °C 8,3 °C 95 % 1022,2 hPa 0,0 mm 0,3 km/h (0 Bft) S-SW 203 ° 0 min 0,000 mm 0,8 UV-I 104 W/m² 7,5 °C 1,6 km/h (1 Bft)
16.11.2016 12:33 8,4 °C 8,4 °C 95 % 1022,2 hPa 0,0 mm 0,0 km/h (0 Bft) S-SW 203 ° 0 min 0,000 mm 0,9 UV-I 107 W/m² 7,6 °C 0,0 km/h (0 Bft)
16.11.2016 12:34 8,4 °C 8,4 °C 95 % 1022,1 hPa 0,0 mm 0,2 km/h (0 Bft) S-SW 203 ° 0 min 0,000 mm 0,9 UV-I 111 W/m² 7,6 °C 1,6 km/h (1 Bft)
16.11.2016 12:35 8,4 °C 8,5 °C 95 % 1022,1 hPa 0,0 mm 0,3 km/h (0 Bft) S-SW 203 ° 0 min 0,000 mm 0,9 UV-I 113 W/m² 7,6 °C 1,6 km/h (1 Bft)
16.11.2016 12:36 8,6 °C 8,6 °C 95 % 1022,1 hPa 0,0 mm 1,1 km/h (1 Bft) S-SW 204 ° 0 min 0,000 mm 0,9 UV-I 118 W/m² 7,8 °C 3,2 km/h (1 Bft)
16.11.2016 12:37 8,6 °C 8,6 °C 95 % 1022,1 hPa 0,0 mm 1,2 km/h (1 Bft) S-SW 204 ° 0 min 0,000 mm 1,0 UV-I 120 W/m² 7,8 °C 3,2 km/h (1 Bft)
16.11.2016 12:38 8,6 °C 8,6 °C 95 % 1022,1 hPa 0,0 mm 2,3 km/h (1 Bft) W 268 ° 0 min 0,000 mm 1,0 UV-I 125 W/m² 7,8 °C 4,8 km/h (1 Bft)
16.11.2016 12:39 8,6 °C 8,6 °C 95 % 1022,1 hPa 0,0 mm 1,1 km/h (1 Bft) W 268 ° 0 min 0,000 mm 1,0 UV-I 127 W/m² 7,8 °C 3,2 km/h (1 Bft)
16.11.2016 12:40 8,7 °C 8,7 °C 95 % 1022,1 hPa 0,0 mm 1,4 km/h (1 Bft) W 268 ° 0 min 0,000 mm 1,0 UV-I 128 W/m² 7,9 °C 3,2 km/h (1 Bft)
16.11.2016 12:41 8,8 °C 8,8 °C 95 % 1022,1 hPa 0,0 mm 1,3 km/h (1 Bft) W 267 ° 0 min 0,000 mm 1,0 UV-I 128 W/m² 8,0 °C 3,2 km/h (1 Bft)
16.11.2016 12:42 8,8 °C 8,8 °C 95 % 1022,0 hPa 0,0 mm 1,6 km/h (1 Bft) W 267 ° 0 min 0,000 mm 1,0 UV-I 134 W/m² 8,0 °C 1,6 km/h (1 Bft)
16.11.2016 12:43 8,8 °C 8,8 °C 94 % 1022,0 hPa 0,0 mm 0,5 km/h (0 Bft) W 267 ° 0 min 0,000 mm 1,1 UV-I 137 W/m² 7,9 °C 1,6 km/h (1 Bft)
16.11.2016 12:44 8,8 °C 8,8 °C 94 % 1022,0 hPa 0,0 mm 0,9 km/h (0 Bft) W 267 ° 0 min 0,000 mm 1,1 UV-I 141 W/m² 7,9 °C 3,2 km/h (1 Bft)
16.11.2016 12:45 8,9 °C 8,9 °C 94 % 1022,0 hPa 0,0 mm 1,0 km/h (0 Bft) W 267 ° 0 min 0,000 mm 1,1 UV-I 144 W/m² 8,0 °C 3,2 km/h (1 Bft)
16.11.2016 12:46 8,9 °C 8,9 °C 94 % 1022,0 hPa 0,0 mm 0,8 km/h (0 Bft) W 267 ° 0 min 0,000 mm 1,1 UV-I 148 W/m² 8,0 °C 1,6 km/h (1 Bft)
16.11.2016 12:47 8,9 °C 8,9 °C 93 % 1021,9 hPa 0,0 mm 0,1 km/h (0 Bft) W 267 ° 0 min 0,000 mm 1,1 UV-I 149 W/m² 7,8 °C 1,6 km/h (1 Bft)
16.11.2016 12:48 9,0 °C 9,0 °C 93 % 1022,0 hPa 0,0 mm 0,8 km/h (0 Bft) W 267 ° 0 min 0,000 mm 1,1 UV-I 156 W/m² 7,9 °C 1,6 km/h (1 Bft)
16.11.2016 12:49 9,1 °C 9,1 °C 94 % 1021,9 hPa 0,0 mm 0,3 km/h (0 Bft) W 267 ° 0 min 0,000 mm 1,1 UV-I 162 W/m² 8,2 °C 1,6 km/h (1 Bft)
16.11.2016 12:50 9,0 °C 9,1 °C 94 % 1021,9 hPa 0,0 mm 0,0 km/h (0 Bft) W 267 ° 0 min 0,000 mm 1,1 UV-I 165 W/m² 8,1 °C 0,0 km/h (0 Bft)
16.11.2016 12:51 9,1 °C 9,1 °C 94 % 1021,9 hPa 0,0 mm 0,2 km/h (0 Bft) W 267 ° 0 min 0,000 mm 1,1 UV-I 167 W/m² 8,2 °C 1,6 km/h (1 Bft)
16.11.2016 12:52 9,2 °C 9,2 °C 94 % 1021,9 hPa 0,0 mm 0,3 km/h (0 Bft) W 267 ° 0 min 0,000 mm 1,1 UV-I 169 W/m² 8,3 °C 1,6 km/h (1 Bft)
16.11.2016 12:53 9,2 °C 9,2 °C 94 % 1021,9 hPa 0,0 mm 0,6 km/h (0 Bft) W 267 ° 0 min 0,000 mm 1,1 UV-I 172 W/m² 8,3 °C 1,6 km/h (1 Bft)
16.11.2016 12:54 9,2 °C 9,2 °C 94 % 1021,9 hPa 0,0 mm 0,4 km/h (0 Bft) W 267 ° 0 min 0,000 mm 1,1 UV-I 179 W/m² 8,3 °C 1,6 km/h (1 Bft)
16.11.2016 12:55 9,3 °C 9,3 °C 94 % 1021,9 hPa 0,0 mm 0,2 km/h (0 Bft) W 267 ° 0 min 0,000 mm 1,1 UV-I 179 W/m² 8,4 °C 1,6 km/h (1 Bft)
16.11.2016 12:56 9,3 °C 9,3 °C 93 % 1021,9 hPa 0,0 mm 1,4 km/h (1 Bft) W 267 ° 0 min 0,000 mm 1,1 UV-I 178 W/m² 8,2 °C 3,2 km/h (1 Bft)
16.11.2016 12:57 9,3 °C 9,3 °C 93 % 1021,9 hPa 0,0 mm 1,5 km/h (1 Bft) W 267 ° 0 min 0,000 mm 1,1 UV-I 174 W/m² 8,2 °C 3,2 km/h (1 Bft)
16.11.2016 12:58 9,4 °C 9,4 °C 93 % 1021,8 hPa 0,0 mm 4,5 km/h (1 Bft) W 262 ° 0 min 0,000 mm 1,1 UV-I 169 W/m² 8,3 °C 6,4 km/h (2 Bft)
16.11.2016 12:59 9,4 °C 9,4 °C 92 % 1021,8 hPa 0,0 mm 4,0 km/h (1 Bft) W 277 ° 0 min 0,000 mm 1,0 UV-I 167 W/m² 8,2 °C 6,4 km/h (2 Bft)
16.11.2016 13:00 9,4 °C 9,4 °C 93 % 1021,9 hPa 0,0 mm 2,6 km/h (1 Bft) W 277 ° 0 min 0,051 mm 1,0 UV-I 160 W/m² 8,3 °C 3,2 km/h (1 Bft)
16.11.2016 13:01 9,4 °C 9,4 °C 92 % 1021,8 hPa 0,0 mm 2,2 km/h (1 Bft) W 277 ° 0 min 0,000 mm 1,0 UV-I 156 W/m² 8,2 °C 4,8 km/h (1 Bft)
16.11.2016 13:02 9,4 °C 9,4 °C 92 % 1021,8 hPa 0,0 mm 1,5 km/h (1 Bft) W 277 ° 0 min 0,000 mm 1,0 UV-I 153 W/m² 8,2 °C 3,2 km/h (1 Bft)
16.11.2016 13:03 9,4 °C 9,4 °C 93 % 1021,8 hPa 0,0 mm 1,7 km/h (1 Bft) W 277 ° 0 min 0,000 mm 0,9 UV-I 149 W/m² 8,3 °C 3,2 km/h (1 Bft)
16.11.2016 13:04 9,4 °C 9,4 °C 93 % 1021,8 hPa 0,0 mm 1,7 km/h (1 Bft) W 277 ° 0 min 0,000 mm 0,9 UV-I 148 W/m² 8,3 °C 4,8 km/h (1 Bft)
16.11.2016 13:05 9,4 °C 9,4 °C 92 % 1021,7 hPa 0,0 mm 2,5 km/h (1 Bft) W 273 ° 0 min 0,000 mm 0,9 UV-I 148 W/m² 8,2 °C 4,8 km/h (1 Bft)
16.11.2016 13:06 9,4 °C 9,4 °C 92 % 1021,7 hPa 0,0 mm 3,6 km/h (1 Bft) W-SW 252 ° 0 min 0,000 mm 0,9 UV-I 146 W/m² 8,2 °C 6,4 km/h (2 Bft)
16.11.2016 13:07 9,4 °C 9,4 °C 92 % 1021,7 hPa 0,0 mm 3,3 km/h (1 Bft) W 269 ° 0 min 0,000 mm 0,9 UV-I 146 W/m² 8,2 °C 4,8 km/h (1 Bft)
16.11.2016 13:08 9,5 °C 9,5 °C 93 % 1021,7 hPa 0,0 mm 4,6 km/h (1 Bft) W 259 ° 0 min 0,000 mm 0,9 UV-I 144 W/m² 8,4 °C 6,4 km/h (2 Bft)
16.11.2016 13:09 9,5 °C 9,5 °C 93 % 1021,6 hPa 0,0 mm 3,6 km/h (1 Bft) W 259 ° 0 min 0,000 mm 0,9 UV-I 144 W/m² 8,4 °C 4,8 km/h (1 Bft)
16.11.2016 13:10 9,4 °C 9,5 °C 92 % 1021,6 hPa 0,0 mm 3,3 km/h (1 Bft) W 259 ° 0 min 0,000 mm 0,9 UV-I 142 W/m² 8,2 °C 4,8 km/h (1 Bft)
16.11.2016 13:11 9,5 °C 9,5 °C 93 % 1021,6 hPa 0,0 mm 2,9 km/h (1 Bft) W 259 ° 0 min 0,000 mm 0,9 UV-I 137 W/m² 8,4 °C 4,8 km/h (1 Bft)
16.11.2016 13:12 9,5 °C 9,5 °C 93 % 1021,6 hPa 0,0 mm 3,4 km/h (1 Bft) W 259 ° 0 min 0,000 mm 0,9 UV-I 135 W/m² 8,4 °C 6,4 km/h (2 Bft)
16.11.2016 13:13 9,4 °C 9,5 °C 93 % 1021,6 hPa 0,0 mm 3,2 km/h (1 Bft) W 259 ° 0 min 0,000 mm 0,9 UV-I 134 W/m² 8,3 °C 4,8 km/h (1 Bft)
16.11.2016 13:14 9,5 °C 9,5 °C 93 % 1021,6 hPa 0,0 mm 2,5 km/h (1 Bft) W 259 ° 0 min 0,000 mm 0,9 UV-I 132 W/m² 8,4 °C 4,8 km/h (1 Bft)
16.11.2016 13:15 9,4 °C 9,5 °C 92 % 1021,5 hPa 0,0 mm 2,5 km/h (1 Bft) W 259 ° 0 min 0,000 mm 0,9 UV-I 128 W/m² 8,2 °C 4,8 km/h (1 Bft)
16.11.2016 13:16 9,4 °C 9,4 °C 92 % 1021,6 hPa 0,0 mm 1,7 km/h (1 Bft) W 259 ° 0 min 0,000 mm 0,9 UV-I 125 W/m² 8,2 °C 3,2 km/h (1 Bft)
16.11.2016 13:17 9,5 °C 9,5 °C 93 % 1021,6 hPa 0,0 mm 1,0 km/h (0 Bft) W 259 ° 0 min 0,000 mm 0,8 UV-I 120 W/m² 8,4 °C 3,2 km/h (1 Bft)
16.11.2016 13:18 9,5 °C 9,5 °C 93 % 1021,6 hPa 0,0 mm 2,5 km/h (1 Bft) W 259 ° 0 min 0,000 mm 0,8 UV-I 120 W/m² 8,4 °C 4,8 km/h (1 Bft)
16.11.2016 13:19 9,5 °C 9,5 °C 93 % 1021,6 hPa 0,0 mm 2,7 km/h (1 Bft) W 259 ° 0 min 0,000 mm 0,8 UV-I 120 W/m² 8,4 °C 3,2 km/h (1 Bft)
16.11.2016 13:20 9,6 °C 9,6 °C 93 % 1021,6 hPa 0,0 mm 3,3 km/h (1 Bft) W 259 ° 0 min 0,000 mm 0,8 UV-I 120 W/m² 8,5 °C 4,8 km/h (1 Bft)
16.11.2016 13:21 9,6 °C 9,6 °C 93 % 1021,5 hPa 0,0 mm 2,3 km/h (1 Bft) W 259 ° 0 min 0,000 mm 0,8 UV-I 118 W/m² 8,5 °C 3,2 km/h (1 Bft)
16.11.2016 13:22 9,6 °C 9,6 °C 93 % 1021,5 hPa 0,0 mm 1,9 km/h (1 Bft) W 259 ° 0 min 0,000 mm 0,8 UV-I 116 W/m² 8,5 °C 4,8 km/h (1 Bft)
16.11.2016 13:23 9,6 °C 9,6 °C 93 % 1021,5 hPa 0,0 mm 2,9 km/h (1 Bft) W 259 ° 0 min 0,000 mm 0,8 UV-I 107 W/m² 8,5 °C 4,8 km/h (1 Bft)
16.11.2016 13:24 9,6 °C 9,6 °C 93 % 1021,5 hPa 0,0 mm 2,5 km/h (1 Bft) W-SW 257 ° 0 min 0,000 mm 0,7 UV-I 100 W/m² 8,5 °C 9,7 km/h (2 Bft)
16.11.2016 13:25 9,6 °C 9,6 °C 93 % 1021,5 hPa 0,0 mm 2,6 km/h (1 Bft) SW 232 ° 0 min 0,000 mm 0,6 UV-I 100 W/m² 8,5 °C 6,4 km/h (2 Bft)
16.11.2016 13:26 9,6 °C 9,6 °C 92 % 1021,4 hPa 0,0 mm 5,3 km/h (1 Bft) W-SW 242 ° 0 min 0,000 mm 0,6 UV-I 83 W/m² 8,4 °C 8,0 km/h (2 Bft)
16.11.2016 13:27 9,5 °C 9,6 °C 92 % 1021,4 hPa 0,0 mm 5,9 km/h (2 Bft) W-SW 250 ° 0 min 0,000 mm 0,5 UV-I 74 W/m² 8,3 °C 9,7 km/h (2 Bft)
16.11.2016 13:28 9,5 °C 9,5 °C 92 % 1021,4 hPa 0,0 mm 2,5 km/h (1 Bft) W-SW 253 ° 0 min 0,000 mm 0,5 UV-I 67 W/m² 8,3 °C 3,2 km/h (1 Bft)
16.11.2016 13:29 9,5 °C 9,5 °C 92 % 1021,4 hPa 0,0 mm 2,1 km/h (1 Bft) W 274 ° 0 min 0,000 mm 0,0 UV-I 58 W/m² 8,3 °C 3,2 km/h (1 Bft)
16.11.2016 13:30 9,4 °C 9,5 °C 92 % 1021,4 hPa 0,0 mm 2,3 km/h (1 Bft) W 273 ° 0 min 0,000 mm 0,0 UV-I 56 W/m² 8,2 °C 4,8 km/h (1 Bft)
16.11.2016 13:31 9,4 °C 9,4 °C 92 % 1021,4 hPa 0,0 mm 3,5 km/h (1 Bft) W-NW 289 ° 0 min 0,000 mm 0,0 UV-I 56 W/m² 8,2 °C 6,4 km/h (2 Bft)
16.11.2016 13:32 9,4 °C 9,4 °C 92 % 1021,4 hPa 0,0 mm 4,8 km/h (1 Bft) W-SW 250 ° 0 min 0,000 mm 0,0 UV-I 54 W/m² 8,2 °C 6,4 km/h (2 Bft)
16.11.2016 13:33 9,4 °C 9,4 °C 92 % 1021,4 hPa 0,0 mm 3,9 km/h (1 Bft) W-NW 286 ° 0 min 0,000 mm 0,0 UV-I 54 W/m² 8,2 °C 9,7 km/h (2 Bft)
16.11.2016 13:34 9,3 °C 9,4 °C 92 % 1021,4 hPa 0,0 mm 4,9 km/h (1 Bft) W 279 ° 0 min 0,000 mm 0,0 UV-I 54 W/m² 8,1 °C 6,4 km/h (2 Bft)
16.11.2016 13:35 9,3 °C 9,4 °C 92 % 1021,3 hPa 0,0 mm 3,4 km/h (1 Bft) W 266 ° 0 min 0,000 mm 0,0 UV-I 54 W/m² 8,1 °C 6,4 km/h (2 Bft)
16.11.2016 13:36 9,3 °C 9,3 °C 92 % 1021,3 hPa 0,0 mm 3,9 km/h (1 Bft) W 261 ° 0 min 0,000 mm 0,0 UV-I 56 W/m² 8,1 °C 6,4 km/h (2 Bft)
16.11.2016 13:37 9,3 °C 9,3 °C 92 % 1021,4 hPa 0,0 mm 4,6 km/h (1 Bft) SW 233 ° 0 min 0,000 mm 0,0 UV-I 56 W/m² 8,1 °C 6,4 km/h (2 Bft)
16.11.2016 13:38 9,3 °C 9,3 °C 92 % 1021,3 hPa 0,0 mm 5,6 km/h (1 Bft) W-SW 258 ° 0 min 0,000 mm 0,0 UV-I 54 W/m² 8,1 °C 8,0 km/h (2 Bft)
16.11.2016 13:39 9,3 °C 9,3 °C 93 % 1021,3 hPa 0,0 mm 2,9 km/h (1 Bft) W-SW 253 ° 0 min 0,000 mm 0,0 UV-I 54 W/m² 8,2 °C 6,4 km/h (2 Bft)
16.11.2016 13:40 9,2 °C 9,3 °C 93 % 1021,3 hPa 0,0 mm 2,1 km/h (1 Bft) W 273 ° 0 min 0,000 mm 0,0 UV-I 53 W/m² 8,1 °C 3,2 km/h (1 Bft)
16.11.2016 13:41 9,2 °C 9,3 °C 93 % 1021,3 hPa 0,0 mm 8,2 km/h (2 Bft) SW 231 ° 0 min 0,000 mm 0,0 UV-I 54 W/m² 8,1 °C 11,3 km/h (2 Bft)
16.11.2016 13:42 9,2 °C 9,2 °C 92 % 1021,3 hPa 0,0 mm 5,7 km/h (1 Bft) W-SW 244 ° 0 min 0,000 mm 0,0 UV-I 56 W/m² 8,0 °C 11,3 km/h (2 Bft)
16.11.2016 13:43 9,2 °C 9,2 °C 92 % 1021,2 hPa 0,0 mm 5,4 km/h (1 Bft) W-SW 254 ° 0 min 0,000 mm 0,0 UV-I 58 W/m² 8,0 °C 9,7 km/h (2 Bft)
16.11.2016 13:44 9,2 °C 9,2 °C 92 % 1021,2 hPa 0,0 mm 2,4 km/h (1 Bft) SW 223 ° 0 min 0,000 mm 0,0 UV-I 58 W/m² 8,0 °C 4,8 km/h (1 Bft)
16.11.2016 13:45 9,2 °C 9,2 °C 92 % 1021,2 hPa 0,0 mm 2,0 km/h (1 Bft) SW 223 ° 0 min 0,000 mm 0,0 UV-I 60 W/m² 8,0 °C 3,2 km/h (1 Bft)
16.11.2016 13:46 9,2 °C 9,2 °C 92 % 1021,2 hPa 0,0 mm 0,9 km/h (0 Bft) SW 223 ° 0 min 0,000 mm 0,0 UV-I 60 W/m² 8,0 °C 3,2 km/h (1 Bft)
16.11.2016 13:47 9,2 °C 9,2 °C 92 % 1021,2 hPa 0,0 mm 4,6 km/h (1 Bft) W-SW 241 ° 0 min 0,000 mm 0,0 UV-I 58 W/m² 8,0 °C 6,4 km/h (2 Bft)
16.11.2016 13:48 9,2 °C 9,2 °C 92 % 1021,2 hPa 0,0 mm 3,3 km/h (1 Bft) W-SW 241 ° 0 min 0,000 mm 0,0 UV-I 58 W/m² 8,0 °C 4,8 km/h (1 Bft)
16.11.2016 13:49 9,2 °C 9,2 °C 92 % 1021,2 hPa 0,0 mm 2,3 km/h (1 Bft) W-SW 241 ° 0 min 0,000 mm 0,0 UV-I 56 W/m² 8,0 °C 3,2 km/h (1 Bft)
16.11.2016 13:50 9,1 °C 9,2 °C 93 % 1021,2 hPa 0,0 mm 3,0 km/h (1 Bft) W-SW 241 ° 0 min 0,000 mm 0,0 UV-I 56 W/m² 8,0 °C 4,8 km/h (1 Bft)
16.11.2016 13:51 9,1 °C 9,1 °C 92 % 1021,2 hPa 0,0 mm 1,7 km/h (1 Bft) W-SW 241 ° 0 min 0,000 mm 0,0 UV-I 54 W/m² 7,9 °C 3,2 km/h (1 Bft)
16.11.2016 13:52 9,1 °C 9,1 °C 92 % 1021,2 hPa 0,0 mm 0,8 km/h (0 Bft) W-SW 241 ° 0 min 0,000 mm 0,0 UV-I 46 W/m² 7,9 °C 3,2 km/h (1 Bft)
16.11.2016 13:53 9,1 °C 9,1 °C 92 % 1021,1 hPa 0,0 mm 0,1 km/h (0 Bft) W-SW 240 ° 0 min 0,000 mm 0,0 UV-I 42 W/m² 7,9 °C 1,6 km/h (1 Bft)
16.11.2016 13:54 9,1 °C 9,1 °C 92 % 1021,1 hPa 0,0 mm 0,1 km/h (0 Bft) W-SW 241 ° 0 min 0,000 mm 0,0 UV-I 40 W/m² 7,9 °C 1,6 km/h (1 Bft)
16.11.2016 13:55 9,0 °C 9,1 °C 92 % 1021,1 hPa 0,2 mm 2,0 km/h (1 Bft) W-SW 241 ° 0 min 0,000 mm 0,0 UV-I 39 W/m² 7,8 °C 3,2 km/h (1 Bft)
16.11.2016 13:56 9,0 °C 9,1 °C 93 % 1021,1 hPa 0,0 mm 0,6 km/h (0 Bft) W-SW 241 ° 0 min 0,000 mm 0,0 UV-I 39 W/m² 7,9 °C 1,6 km/h (1 Bft)
16.11.2016 13:57 8,9 °C 9,0 °C 93 % 1021,1 hPa 0,0 mm 1,7 km/h (1 Bft) W-SW 240 ° 0 min 0,000 mm 0,0 UV-I 40 W/m² 7,8 °C 3,2 km/h (1 Bft)
16.11.2016 13:58 8,9 °C 8,9 °C 93 % 1021,1 hPa 0,0 mm 0,8 km/h (0 Bft) W-SW 240 ° 0 min 0,000 mm 0,0 UV-I 40 W/m² 7,8 °C 3,2 km/h (1 Bft)
16.11.2016 13:59 8,9 °C 8,9 °C 93 % 1021,1 hPa 0,0 mm 2,7 km/h (1 Bft) W-SW 242 ° 0 min 0,000 mm 0,0 UV-I 40 W/m² 7,8 °C 4,8 km/h (1 Bft)
16.11.2016 14:00 8,9 °C 8,9 °C 93 % 1021,0 hPa 0,0 mm 1,5 km/h (1 Bft) W-SW 242 ° 0 min 0,051 mm 0,0 UV-I 40 W/m² 7,8 °C 3,2 km/h (1 Bft)
16.11.2016 14:01 8,9 °C 8,9 °C 93 % 1021,0 hPa 0,0 mm 0,5 km/h (0 Bft) W-SW 242 ° 0 min 0,000 mm 0,0 UV-I 40 W/m² 7,8 °C 1,6 km/h (1 Bft)
16.11.2016 14:02 8,9 °C 8,9 °C 93 % 1021,0 hPa 0,0 mm 0,4 km/h (0 Bft) W-SW 242 ° 0 min 0,000 mm 0,0 UV-I 42 W/m² 7,8 °C 1,6 km/h (1 Bft)
16.11.2016 14:03 8,8 °C 8,9 °C 93 % 1021,0 hPa 0,0 mm 0,1 km/h (0 Bft) W-SW 242 ° 0 min 0,000 mm 0,0 UV-I 42 W/m² 7,7 °C 1,6 km/h (1 Bft)
16.11.2016 14:04 8,8 °C 8,8 °C 94 % 1021,1 hPa 0,0 mm 1,1 km/h (1 Bft) W-SW 242 ° 0 min 0,000 mm 0,0 UV-I 47 W/m² 7,9 °C 3,2 km/h (1 Bft)
16.11.2016 14:05 8,7 °C 8,8 °C 94 % 1021,0 hPa 0,0 mm 1,4 km/h (1 Bft) W-SW 242 ° 0 min 0,000 mm 0,0 UV-I 51 W/m² 7,8 °C 3,2 km/h (1 Bft)
16.11.2016 14:06 8,7 °C 8,7 °C 94 % 1020,9 hPa 0,0 mm 1,1 km/h (1 Bft) W-SW 242 ° 0 min 0,000 mm 0,0 UV-I 54 W/m² 7,8 °C 3,2 km/h (1 Bft)
16.11.2016 14:07 8,6 °C 8,7 °C 94 % 1020,9 hPa 0,0 mm 1,3 km/h (1 Bft) W-SW 242 ° 0 min 0,000 mm 0,0 UV-I 58 W/m² 7,7 °C 1,6 km/h (1 Bft)
16.11.2016 14:08 8,6 °C 8,6 °C 94 % 1020,9 hPa 0,2 mm 2,5 km/h (1 Bft) W-SW 242 ° 0 min 0,000 mm 0,0 UV-I 60 W/m² 7,7 °C 3,2 km/h (1 Bft)
16.11.2016 14:09 8,6 °C 8,6 °C 94 % 1020,9 hPa 0,0 mm 2,1 km/h (1 Bft) W-SW 242 ° 0 min 0,000 mm 0,0 UV-I 60 W/m² 7,7 °C 3,2 km/h (1 Bft)
16.11.2016 14:10 8,6 °C 8,6 °C 94 % 1020,9 hPa 0,0 mm 2,2 km/h (1 Bft) S-SW 201 ° 0 min 0,000 mm 0,0 UV-I 58 W/m² 7,7 °C 3,2 km/h (1 Bft)
16.11.2016 14:11 8,6 °C 8,6 °C 95 % 1020,9 hPa 0,0 mm 1,9 km/h (1 Bft) S-SW 201 ° 0 min 0,000 mm 0,0 UV-I 58 W/m² 7,8 °C 3,2 km/h (1 Bft)
16.11.2016 14:12 8,6 °C 8,6 °C 94 % 1020,9 hPa 0,0 mm 1,1 km/h (1 Bft) S-SW 201 ° 0 min 0,000 mm 0,0 UV-I 60 W/m² 7,7 °C 1,6 km/h (1 Bft)
16.11.2016 14:13 8,6 °C 8,6 °C 95 % 1020,9 hPa 0,0 mm 1,4 km/h (1 Bft) S-SW 201 ° 0 min 0,000 mm 0,0 UV-I 62 W/m² 7,8 °C 1,6 km/h (1 Bft)
16.11.2016 14:14 8,6 °C 8,6 °C 95 % 1020,8 hPa 0,0 mm 1,0 km/h (0 Bft) S-SW 201 ° 0 min 0,000 mm 0,0 UV-I 62 W/m² 7,8 °C 1,6 km/h (1 Bft)
16.11.2016 14:15 8,7 °C 8,7 °C 95 % 1020,9 hPa 0,0 mm 1,9 km/h (1 Bft) S 184 ° 0 min 0,000 mm 0,0 UV-I 62 W/m² 7,9 °C 3,2 km/h (1 Bft)
16.11.2016 14:16 8,7 °C 8,7 °C 95 % 1020,8 hPa 0,0 mm 3,0 km/h (1 Bft) S 184 ° 0 min 0,000 mm 0,0 UV-I 67 W/m² 7,9 °C 4,8 km/h (1 Bft)
16.11.2016 14:17 8,7 °C 8,7 °C 95 % 1020,8 hPa 0,0 mm 0,9 km/h (0 Bft) S 184 ° 0 min 0,000 mm 0,0 UV-I 70 W/m² 7,9 °C 1,6 km/h (1 Bft)
16.11.2016 14:18 8,7 °C 8,7 °C 94 % 1020,7 hPa 0,0 mm 1,0 km/h (0 Bft) S 184 ° 0 min 0,000 mm 0,5 UV-I 72 W/m² 7,8 °C 1,6 km/h (1 Bft)
16.11.2016 14:19 8,7 °C 8,7 °C 94 % 1020,8 hPa 0,0 mm 0,1 km/h (0 Bft) S 184 ° 0 min 0,000 mm 0,5 UV-I 72 W/m² 7,8 °C 1,6 km/h (1 Bft)
16.11.2016 14:20 8,7 °C 8,7 °C 94 % 1020,8 hPa 0,0 mm 0,7 km/h (0 Bft) S 184 ° 0 min 0,000 mm 0,0 UV-I 69 W/m² 7,8 °C 3,2 km/h (1 Bft)
16.11.2016 14:21 8,8 °C 8,8 °C 94 % 1020,7 hPa 0,0 mm 1,8 km/h (1 Bft) S 184 ° 0 min 0,000 mm 0,0 UV-I 65 W/m² 7,9 °C 4,8 km/h (1 Bft)
16.11.2016 14:22 8,8 °C 8,8 °C 94 % 1020,7 hPa 0,0 mm 0,2 km/h (0 Bft) S 184 ° 0 min 0,000 mm 0,0 UV-I 60 W/m² 7,9 °C 1,6 km/h (1 Bft)
16.11.2016 14:23 8,8 °C 8,8 °C 94 % 1020,7 hPa 0,0 mm 0,9 km/h (0 Bft) S 184 ° 0 min 0,000 mm 0,0 UV-I 60 W/m² 7,9 °C 1,6 km/h (1 Bft)
16.11.2016 14:24 8,8 °C 8,8 °C 94 % 1020,7 hPa 0,0 mm 0,1 km/h (0 Bft) S 184 ° 0 min 0,000 mm 0,0 UV-I 58 W/m² 7,9 °C 1,6 km/h (1 Bft)
16.11.2016 14:25 8,8 °C 8,8 °C 94 % 1020,7 hPa 0,0 mm 2,7 km/h (1 Bft) S-SW 194 ° 0 min 0,000 mm 0,0 UV-I 54 W/m² 7,9 °C 4,8 km/h (1 Bft)
16.11.2016 14:26 8,8 °C 8,8 °C 94 % 1020,7 hPa 0,0 mm 3,6 km/h (1 Bft) S 183 ° 0 min 0,000 mm 0,0 UV-I 51 W/m² 7,9 °C 6,4 km/h (2 Bft)
16.11.2016 14:27 8,8 °C 8,9 °C 94 % 1020,7 hPa 0,0 mm 0,5 km/h (0 Bft) S 183 ° 0 min 0,000 mm 0,0 UV-I 46 W/m² 7,9 °C 1,6 km/h (1 Bft)
16.11.2016 14:28 8,9 °C 8,9 °C 94 % 1020,7 hPa 0,0 mm 0,8 km/h (0 Bft) W 259 ° 0 min 0,000 mm 0,0 UV-I 42 W/m² 8,0 °C 4,8 km/h (1 Bft)
16.11.2016 14:29 8,9 °C 8,9 °C 94 % 1020,7 hPa 0,0 mm 2,1 km/h (1 Bft) W 259 ° 0 min 0,000 mm 0,0 UV-I 40 W/m² 8,0 °C 4,8 km/h (1 Bft)
16.11.2016 14:30 8,9 °C 8,9 °C 94 % 1020,7 hPa 0,0 mm 0,4 km/h (0 Bft) W 259 ° 0 min 0,000 mm 0,0 UV-I 39 W/m² 8,0 °C 1,6 km/h (1 Bft)
16.11.2016 14:31 8,8 °C 8,9 °C 94 % 1020,7 hPa 0,0 mm 0,0 km/h (0 Bft) W 259 ° 0 min 0,000 mm 0,0 UV-I 37 W/m² 7,9 °C 0,0 km/h (0 Bft)
16.11.2016 14:32 8,9 °C 8,9 °C 94 % 1020,7 hPa 0,0 mm 1,8 km/h (1 Bft) W 259 ° 0 min 0,000 mm 0,0 UV-I 37 W/m² 8,0 °C 3,2 km/h (1 Bft)
16.11.2016 14:33 8,9 °C 8,9 °C 94 % 1020,7 hPa 0,0 mm 0,5 km/h (0 Bft) W 259 ° 0 min 0,000 mm 0,0 UV-I 35 W/m² 8,0 °C 1,6 km/h (1 Bft)
16.11.2016 14:34 8,9 °C 8,9 °C 94 % 1020,7 hPa 0,0 mm 0,0 km/h (0 Bft) W 259 ° 0 min 0,000 mm 0,0 UV-I 35 W/m² 8,0 °C 0,0 km/h (0 Bft)
16.11.2016 14:35 8,8 °C 8,9 °C 94 % 1020,7 hPa 0,0 mm 1,7 km/h (1 Bft) W-SW 245 ° 0 min 0,000 mm 0,0 UV-I 35 W/m² 7,9 °C 3,2 km/h (1 Bft)
16.11.2016 14:36 8,8 °C 8,9 °C 93 % 1020,7 hPa 0,0 mm 0,6 km/h (0 Bft) W-SW 245 ° 0 min 0,000 mm 0,0 UV-I 35 W/m² 7,7 °C 1,6 km/h (1 Bft)
16.11.2016 14:37 8,8 °C 8,8 °C 93 % 1020,6 hPa 0,0 mm 0,5 km/h (0 Bft) W-SW 245 ° 0 min 0,000 mm 0,0 UV-I 35 W/m² 7,7 °C 1,6 km/h (1 Bft)
16.11.2016 14:38 8,8 °C 8,8 °C 94 % 1020,6 hPa 0,0 mm 2,6 km/h (1 Bft) S-SW 204 ° 0 min 0,000 mm 0,0 UV-I 35 W/m² 7,9 °C 4,8 km/h (1 Bft)
16.11.2016 14:39 8,8 °C 8,8 °C 94 % 1020,5 hPa 0,0 mm 3,9 km/h (1 Bft) S 171 ° 0 min 0,000 mm 0,0 UV-I 35 W/m² 7,9 °C 8,0 km/h (2 Bft)
16.11.2016 14:40 8,7 °C 8,8 °C 94 % 1020,5 hPa 0,2 mm 3,5 km/h (1 Bft) S-SW 195 ° 0 min 0,000 mm 0,0 UV-I 33 W/m² 7,8 °C 8,0 km/h (2 Bft)
16.11.2016 14:41 8,7 °C 8,7 °C 94 % 1020,5 hPa 0,0 mm 1,4 km/h (1 Bft) S-SW 195 ° 0 min 0,000 mm 0,0 UV-I 32 W/m² 7,8 °C 3,2 km/h (1 Bft)
16.11.2016 14:42 8,7 °C 8,7 °C 94 % 1020,5 hPa 0,0 mm 1,2 km/h (1 Bft) S-SW 195 ° 0 min 0,000 mm 0,0 UV-I 32 W/m² 7,8 °C 1,6 km/h (1 Bft)
16.11.2016 14:43 8,6 °C 8,7 °C 94 % 1020,5 hPa 0,0 mm 1,3 km/h (1 Bft) S-SW 195 ° 0 min 0,000 mm 0,0 UV-I 30 W/m² 7,7 °C 3,2 km/h (1 Bft)
16.11.2016 14:44 8,6 °C 8,7 °C 94 % 1020,5 hPa 0,0 mm 1,2 km/h (1 Bft) S-SW 195 ° 0 min 0,000 mm 0,0 UV-I 30 W/m² 7,7 °C 3,2 km/h (1 Bft)
16.11.2016 14:45 8,6 °C 8,6 °C 94 % 1020,5 hPa 0,0 mm 4,5 km/h (1 Bft) S-SW 194 ° 0 min 0,000 mm 0,0 UV-I 33 W/m² 7,7 °C 6,4 km/h (2 Bft)
16.11.2016 14:46 8,6 °C 8,6 °C 94 % 1020,5 hPa 0,0 mm 4,5 km/h (1 Bft) S-SW 209 ° 0 min 0,000 mm 0,0 UV-I 33 W/m² 7,7 °C 6,4 km/h (2 Bft)
16.11.2016 14:47 8,5 °C 8,6 °C 94 % 1020,4 hPa 0,0 mm 3,0 km/h (1 Bft) S-SW 194 ° 0 min 0,000 mm 0,0 UV-I 35 W/m² 7,6 °C 4,8 km/h (1 Bft)
16.11.2016 14:48 8,6 °C 8,6 °C 94 % 1020,4 hPa 0,0 mm 3,4 km/h (1 Bft) S-SW 200 ° 0 min 0,000 mm 0,0 UV-I 35 W/m² 7,7 °C 4,8 km/h (1 Bft)
16.11.2016 14:49 8,6 °C 8,6 °C 94 % 1020,4 hPa 0,0 mm 2,7 km/h (1 Bft) S-SW 209 ° 0 min 0,000 mm 0,0 UV-I 37 W/m² 7,7 °C 4,8 km/h (1 Bft)
16.11.2016 14:50 8,6 °C 8,6 °C 94 % 1020,4 hPa 0,0 mm 0,3 km/h (0 Bft) S-SW 209 ° 0 min 0,000 mm 0,0 UV-I 35 W/m² 7,7 °C 1,6 km/h (1 Bft)
16.11.2016 14:51 8,6 °C 8,6 °C 94 % 1020,4 hPa 0,0 mm 1,7 km/h (1 Bft) SW 232 ° 0 min 0,000 mm 0,0 UV-I 35 W/m² 7,7 °C 3,2 km/h (1 Bft)
16.11.2016 14:52 8,6 °C 8,7 °C 94 % 1020,4 hPa 0,0 mm 1,9 km/h (1 Bft) SW 232 ° 0 min 0,000 mm 0,0 UV-I 35 W/m² 7,7 °C 4,8 km/h (1 Bft)
16.11.2016 14:53 8,7 °C 8,7 °C 94 % 1020,4 hPa 0,0 mm 2,3 km/h (1 Bft) SW 233 ° 0 min 0,000 mm 0,0 UV-I 35 W/m² 7,8 °C 3,2 km/h (1 Bft)
16.11.2016 14:54 8,7 °C 8,7 °C 94 % 1020,4 hPa 0,0 mm 1,1 km/h (1 Bft) SW 233 ° 0 min 0,000 mm 0,0 UV-I 33 W/m² 7,8 °C 3,2 km/h (1 Bft)
16.11.2016 14:55 8,7 °C 8,7 °C 94 % 1020,3 hPa 0,0 mm 0,0 km/h (0 Bft) SW 233 ° 0 min 0,000 mm 0,0 UV-I 32 W/m² 7,8 °C 0,0 km/h (0 Bft)
16.11.2016 14:56 8,6 °C 8,7 °C 94 % 1020,3 hPa 0,0 mm 0,8 km/h (0 Bft) SW 233 ° 0 min 0,000 mm 0,0 UV-I 32 W/m² 7,7 °C 3,2 km/h (1 Bft)
16.11.2016 14:57 8,6 °C 8,7 °C 94 % 1020,4 hPa 0,0 mm 0,6 km/h (0 Bft) SW 233 ° 0 min 0,000 mm 0,0 UV-I 32 W/m² 7,7 °C 3,2 km/h (1 Bft)
16.11.2016 14:58 8,6 °C 8,6 °C 94 % 1020,3 hPa 0,0 mm 0,0 km/h (0 Bft) SW 233 ° 0 min 0,000 mm 0,0 UV-I 33 W/m² 7,7 °C 0,0 km/h (0 Bft)
16.11.2016 14:59 8,6 °C 8,6 °C 94 % 1020,4 hPa 0,0 mm 0,0 km/h (0 Bft) SW 233 ° 0 min 0,000 mm 0,0 UV-I 33 W/m² 7,7 °C 0,0 km/h (0 Bft)
16.11.2016 15:00 8,6 °C 8,6 °C 94 % 1020,4 hPa 0,0 mm 0,1 km/h (0 Bft) SW 233 ° 0 min 0,000 mm 0,0 UV-I 33 W/m² 7,7 °C 1,6 km/h (1 Bft)
16.11.2016 15:01 8,6 °C 8,6 °C 94 % 1020,4 hPa 0,0 mm 0,0 km/h (0 Bft) SW 233 ° 0 min 0,025 mm 0,0 UV-I 35 W/m² 7,7 °C 0,0 km/h (0 Bft)
16.11.2016 15:02 8,6 °C 8,6 °C 94 % 1020,4 hPa 0,0 mm 0,1 km/h (0 Bft) SW 233 ° 0 min 0,000 mm 0,0 UV-I 37 W/m² 7,7 °C 1,6 km/h (1 Bft)
16.11.2016 15:03 8,6 °C 8,6 °C 94 % 1020,4 hPa 0,0 mm 0,1 km/h (0 Bft) SW 233 ° 0 min 0,000 mm 0,0 UV-I 39 W/m² 7,7 °C 1,6 km/h (1 Bft)
16.11.2016 15:04 8,6 °C 8,6 °C 94 % 1020,3 hPa 0,0 mm 0,0 km/h (0 Bft) SW 233 ° 0 min 0,000 mm 0,0 UV-I 39 W/m² 7,7 °C 0,0 km/h (0 Bft)
16.11.2016 15:05 8,5 °C 8,6 °C 94 % 1020,3 hPa 0,0 mm 1,4 km/h (1 Bft) SW 233 ° 0 min 0,000 mm 0,0 UV-I 39 W/m² 7,6 °C 1,6 km/h (1 Bft)
16.11.2016 15:06 8,6 °C 8,6 °C 94 % 1020,4 hPa 0,0 mm 0,3 km/h (0 Bft) SW 233 ° 0 min 0,000 mm 0,0 UV-I 37 W/m² 7,7 °C 1,6 km/h (1 Bft)
16.11.2016 15:07 8,6 °C 8,6 °C 94 % 1020,4 hPa 0,0 mm 0,2 km/h (0 Bft) SW 233 ° 0 min 0,000 mm 0,0 UV-I 35 W/m² 7,7 °C 1,6 km/h (1 Bft)
16.11.2016 15:08 8,5 °C 8,6 °C 95 % 1020,4 hPa 0,0 mm 0,2 km/h (0 Bft) SW 233 ° 0 min 0,000 mm 0,0 UV-I 33 W/m² 7,7 °C 1,6 km/h (1 Bft)
16.11.2016 15:09 8,5 °C 8,6 °C 94 % 1020,4 hPa 0,0 mm 0,0 km/h (0 Bft) SW 233 ° 0 min 0,000 mm 0,0 UV-I 33 W/m² 7,6 °C 0,0 km/h (0 Bft)
16.11.2016 15:10 8,5 °C 8,5 °C 95 % 1020,4 hPa 0,0 mm 0,0 km/h (0 Bft) SW 233 ° 0 min 0,000 mm 0,0 UV-I 32 W/m² 7,7 °C 0,0 km/h (0 Bft)
16.11.2016 15:11 8,5 °C 8,6 °C 95 % 1020,3 hPa 0,0 mm 0,0 km/h (0 Bft) SW 233 ° 0 min 0,000 mm 0,0 UV-I 32 W/m² 7,7 °C 0,0 km/h (0 Bft)
16.11.2016 15:12 8,6 °C 8,6 °C 95 % 1020,4 hPa 0,0 mm 0,4 km/h (0 Bft) SW 233 ° 0 min 0,000 mm 0,0 UV-I 30 W/m² 7,8 °C 1,6 km/h (1 Bft)
16.11.2016 15:13 8,5 °C 8,6 °C 95 % 1020,3 hPa 0,0 mm 2,1 km/h (1 Bft) SW 233 ° 0 min 0,000 mm 0,0 UV-I 28 W/m² 7,7 °C 3,2 km/h (1 Bft)
16.11.2016 15:14 8,5 °C 8,5 °C 95 % 1020,3 hPa 0,0 mm 1,6 km/h (1 Bft) SW 233 ° 0 min 0,000 mm 0,0 UV-I 25 W/m² 7,7 °C 3,2 km/h (1 Bft)
16.11.2016 15:15 8,5 °C 8,5 °C 95 % 1020,4 hPa 0,0 mm 0,5 km/h (0 Bft) SW 233 ° 0 min 0,000 mm 0,0 UV-I 25 W/m² 7,7 °C 1,6 km/h (1 Bft)
16.11.2016 15:16 8,5 °C 8,5 °C 95 % 1020,4 hPa 0,0 mm 0,0 km/h (0 Bft) SW 233 ° 0 min 0,000 mm 0,0 UV-I 25 W/m² 7,7 °C 0,0 km/h (0 Bft)
16.11.2016 15:17 8,5 °C 8,5 °C 95 % 1020,4 hPa 0,0 mm 0,0 km/h (0 Bft) SW 233 ° 0 min 0,000 mm 0,0 UV-I 23 W/m² 7,7 °C 0,0 km/h (0 Bft)
16.11.2016 15:18 8,6 °C 8,6 °C 95 % 1020,4 hPa 0,0 mm 0,0 km/h (0 Bft) SW 233 ° 0 min 0,000 mm 0,0 UV-I 23 W/m² 7,8 °C 0,0 km/h (0 Bft)
16.11.2016 15:19 8,5 °C 8,6 °C 95 % 1020,5 hPa 0,0 mm 0,0 km/h (0 Bft) SW 233 ° 0 min 0,000 mm 0,0 UV-I 23 W/m² 7,7 °C 0,0 km/h (0 Bft)
16.11.2016 15:20 8,5 °C 8,6 °C 95 % 1020,5 hPa 0,0 mm 0,0 km/h (0 Bft) SW 233 ° 0 min 0,000 mm 0,0 UV-I 21 W/m² 7,7 °C 0,0 km/h (0 Bft)
16.11.2016 15:21 8,5 °C 8,6 °C 95 % 1020,5 hPa 0,0 mm 0,0 km/h (0 Bft) SW 233 ° 0 min 0,000 mm 0,0 UV-I 21 W/m² 7,7 °C 0,0 km/h (0 Bft)
16.11.2016 15:22 8,5 °C 8,6 °C 95 % 1020,5 hPa 0,0 mm 0,0 km/h (0 Bft) SW 233 ° 0 min 0,000 mm 0,0 UV-I 21 W/m² 7,7 °C 0,0 km/h (0 Bft)
16.11.2016 15:23 8,5 °C 8,6 °C 94 % 1020,5 hPa 0,0 mm 0,1 km/h (0 Bft) SW 233 ° 0 min 0,000 mm 0,0 UV-I 21 W/m² 7,6 °C 1,6 km/h (1 Bft)
16.11.2016 15:24 8,5 °C 8,6 °C 94 % 1020,5 hPa 0,0 mm 0,1 km/h (0 Bft) SW 233 ° 0 min 0,000 mm 0,0 UV-I 21 W/m² 7,6 °C 1,6 km/h (1 Bft)
16.11.2016 15:25 8,5 °C 8,6 °C 94 % 1020,5 hPa 0,0 mm 0,4 km/h (0 Bft) SW 233 ° 0 min 0,000 mm 0,0 UV-I 19 W/m² 7,6 °C 1,6 km/h (1 Bft)
16.11.2016 15:26 8,5 °C 8,6 °C 94 % 1020,4 hPa 0,0 mm 1,7 km/h (1 Bft) SW 233 ° 0 min 0,000 mm 0,0 UV-I 18 W/m² 7,6 °C 3,2 km/h (1 Bft)
16.11.2016 15:27 8,5 °C 8,5 °C 95 % 1020,5 hPa 0,0 mm 2,6 km/h (1 Bft) SW 232 ° 0 min 0,000 mm 0,0 UV-I 18 W/m² 7,7 °C 3,2 km/h (1 Bft)
16.11.2016 15:28 8,5 °C 8,5 °C 95 % 1020,4 hPa 0,0 mm 2,0 km/h (1 Bft) SW 232 ° 0 min 0,000 mm 0,0 UV-I 16 W/m² 7,7 °C 3,2 km/h (1 Bft)
16.11.2016 15:29 8,4 °C 8,5 °C 94 % 1020,5 hPa 0,0 mm 0,3 km/h (0 Bft) SW 232 ° 0 min 0,000 mm 0,0 UV-I 16 W/m² 7,5 °C 1,6 km/h (1 Bft)
16.11.2016 15:30 8,5 °C 8,5 °C 94 % 1020,5 hPa 0,0 mm 0,9 km/h (0 Bft) SW 232 ° 0 min 0,000 mm 0,0 UV-I 14 W/m² 7,6 °C 1,6 km/h (1 Bft)
16.11.2016 15:31 8,4 °C 8,5 °C 94 % 1020,5 hPa 0,0 mm 1,3 km/h (1 Bft) SW 232 ° 0 min 0,000 mm 0,0 UV-I 12 W/m² 7,5 °C 1,6 km/h (1 Bft)
16.11.2016 15:32 8,5 °C 8,5 °C 94 % 1020,5 hPa 0,0 mm 0,8 km/h (0 Bft) SW 232 ° 0 min 0,000 mm 0,0 UV-I 12 W/m² 7,6 °C 1,6 km/h (1 Bft)
16.11.2016 15:33 8,4 °C 8,5 °C 94 % 1020,5 hPa 0,0 mm 0,6 km/h (0 Bft) SW 232 ° 0 min 0,000 mm 0,0 UV-I 11 W/m² 7,5 °C 1,6 km/h (1 Bft)
16.11.2016 15:34 8,4 °C 8,5 °C 94 % 1020,5 hPa 0,0 mm 0,7 km/h (0 Bft) SW 232 ° 0 min 0,000 mm 0,0 UV-I 11 W/m² 7,5 °C 1,6 km/h (1 Bft)
16.11.2016 15:35 8,4 °C 8,4 °C 94 % 1020,5 hPa 0,0 mm 0,0 km/h (0 Bft) SW 232 ° 0 min 0,000 mm 0,0 UV-I 11 W/m² 7,5 °C 0,0 km/h (0 Bft)
16.11.2016 15:36 8,4 °C 8,4 °C 94 % 1020,5 hPa 0,2 mm 1,4 km/h (1 Bft) SW 232 ° 0 min 0,000 mm 0,0 UV-I 11 W/m² 7,5 °C 3,2 km/h (1 Bft)
16.11.2016 15:37 8,4 °C 8,4 °C 94 % 1020,4 hPa 0,0 mm 0,3 km/h (0 Bft) SW 232 ° 0 min 0,000 mm 0,0 UV-I 11 W/m² 7,5 °C 1,6 km/h (1 Bft)
16.11.2016 15:38 8,4 °C 8,4 °C 94 % 1020,4 hPa 0,0 mm 0,4 km/h (0 Bft) SW 232 ° 0 min 0,000 mm 0,0 UV-I 11 W/m² 7,5 °C 1,6 km/h (1 Bft)
16.11.2016 15:39 8,4 °C 8,4 °C 94 % 1020,3 hPa 0,0 mm 2,2 km/h (1 Bft) SW 232 ° 0 min 0,000 mm 0,0 UV-I 9 W/m² 7,5 °C 3,2 km/h (1 Bft)
16.11.2016 15:40 8,4 °C 8,4 °C 94 % 1020,3 hPa 0,0 mm 0,7 km/h (0 Bft) SW 232 ° 0 min 0,000 mm 0,0 UV-I 9 W/m² 7,5 °C 1,6 km/h (1 Bft)
16.11.2016 15:41 8,4 °C 8,4 °C 94 % 1020,4 hPa 0,2 mm 0,0 km/h (0 Bft) SW 232 ° 0 min 0,000 mm 0,0 UV-I 11 W/m² 7,5 °C 0,0 km/h (0 Bft)
16.11.2016 15:42 8,4 °C 8,4 °C 94 % 1020,4 hPa 0,0 mm 0,1 km/h (0 Bft) SW 232 ° 0 min 0,000 mm 0,0 UV-I 11 W/m² 7,5 °C 1,6 km/h (1 Bft)
16.11.2016 15:43 8,4 °C 8,4 °C 94 % 1020,4 hPa 0,0 mm 0,0 km/h (0 Bft) SW 232 ° 0 min 0,000 mm 0,0 UV-I 11 W/m² 7,5 °C 0,0 km/h (0 Bft)
16.11.2016 15:44 8,4 °C 8,4 °C 94 % 1020,4 hPa 0,0 mm 0,0 km/h (0 Bft) SW 232 ° 0 min 0,000 mm 0,0 UV-I 12 W/m² 7,5 °C 0,0 km/h (0 Bft)
16.11.2016 15:45 8,4 °C 8,4 °C 94 % 1020,4 hPa 0,2 mm 0,4 km/h (0 Bft) SW 232 ° 0 min 0,000 mm 0,0 UV-I 14 W/m² 7,5 °C 1,6 km/h (1 Bft)
16.11.2016 15:46 8,4 °C 8,4 °C 94 % 1020,4 hPa 0,0 mm 0,0 km/h (0 Bft) SW 232 ° 0 min 0,000 mm 0,0 UV-I 14 W/m² 7,5 °C 0,0 km/h (0 Bft)
16.11.2016 15:47 8,4 °C 8,4 °C 94 % 1020,4 hPa 0,0 mm 0,3 km/h (0 Bft) SW 232 ° 0 min 0,000 mm 0,0 UV-I 14 W/m² 7,5 °C 1,6 km/h (1 Bft)
16.11.2016 15:48 8,4 °C 8,4 °C 94 % 1020,4 hPa 0,0 mm 0,2 km/h (0 Bft) SW 232 ° 0 min 0,000 mm 0,0 UV-I 14 W/m² 7,5 °C 1,6 km/h (1 Bft)
16.11.2016 15:49 8,4 °C 8,4 °C 94 % 1020,4 hPa 0,0 mm 0,5 km/h (0 Bft) SW 232 ° 0 min 0,000 mm 0,0 UV-I 14 W/m² 7,5 °C 1,6 km/h (1 Bft)
16.11.2016 15:50 8,4 °C 8,4 °C 94 % 1020,4 hPa 0,0 mm 0,6 km/h (0 Bft) SW 232 ° 0 min 0,000 mm 0,0 UV-I 14 W/m² 7,5 °C 1,6 km/h (1 Bft)
16.11.2016 15:51 8,4 °C 8,4 °C 94 % 1020,4 hPa 0,0 mm 1,3 km/h (1 Bft) SW 232 ° 0 min 0,000 mm 0,0 UV-I 12 W/m² 7,5 °C 3,2 km/h (1 Bft)
16.11.2016 15:52 8,3 °C 8,4 °C 94 % 1020,4 hPa 0,0 mm 2,7 km/h (1 Bft) SW 232 ° 0 min 0,000 mm 0,0 UV-I 12 W/m² 7,4 °C 4,8 km/h (1 Bft)
16.11.2016 15:53 8,3 °C 8,3 °C 94 % 1020,4 hPa 0,0 mm 4,3 km/h (1 Bft) SW 223 ° 0 min 0,000 mm 0,0 UV-I 11 W/m² 7,4 °C 8,0 km/h (2 Bft)
16.11.2016 15:54 8,3 °C 8,4 °C 94 % 1020,4 hPa 0,0 mm 6,6 km/h (2 Bft) W 272 ° 0 min 0,000 mm 0,0 UV-I 11 W/m² 7,4 °C 12,9 km/h (3 Bft)
16.11.2016 15:55 8,3 °C 8,3 °C 94 % 1020,4 hPa 0,2 mm 4,3 km/h (1 Bft) W 263 ° 0 min 0,000 mm 0,0 UV-I 11 W/m² 7,4 °C 6,4 km/h (2 Bft)
16.11.2016 15:56 8,3 °C 8,3 °C 94 % 1020,4 hPa 0,0 mm 1,5 km/h (1 Bft) W 263 ° 0 min 0,000 mm 0,0 UV-I 9 W/m² 7,4 °C 3,2 km/h (1 Bft)
16.11.2016 15:57 8,3 °C 8,3 °C 94 % 1020,5 hPa 0,0 mm 3,2 km/h (1 Bft) W-SW 255 ° 0 min 0,000 mm 0,0 UV-I 9 W/m² 7,4 °C 6,4 km/h (2 Bft)
16.11.2016 15:58 8,3 °C 8,3 °C 94 % 1020,5 hPa 0,2 mm 5,0 km/h (1 Bft) W 259 ° 0 min 0,000 mm 0,0 UV-I 9 W/m² 7,4 °C 8,0 km/h (2 Bft)
16.11.2016 15:59 8,3 °C 8,3 °C 94 % 1020,5 hPa 0,0 mm 5,7 km/h (1 Bft) W-SW 255 ° 0 min 0,000 mm 0,0 UV-I 7 W/m² 7,4 °C 9,7 km/h (2 Bft)
16.11.2016 16:00 8,3 °C 8,3 °C 94 % 1020,5 hPa 0,0 mm 2,2 km/h (1 Bft) W 268 ° 0 min 0,000 mm 0,0 UV-I 7 W/m² 7,4 °C 4,8 km/h (1 Bft)
16.11.2016 16:01 8,3 °C 8,3 °C 94 % 1020,6 hPa 0,0 mm 2,3 km/h (1 Bft) W-NW 282 ° 0 min 0,000 mm 0,0 UV-I 7 W/m² 7,4 °C 4,8 km/h (1 Bft)
16.11.2016 16:02 8,3 °C 8,3 °C 94 % 1020,6 hPa 0,2 mm 2,5 km/h (1 Bft) W 260 ° 0 min 0,000 mm 0,0 UV-I 7 W/m² 7,4 °C 8,0 km/h (2 Bft)
16.11.2016 16:03 8,2 °C 8,3 °C 94 % 1020,6 hPa 0,0 mm 3,4 km/h (1 Bft) W 266 ° 0 min 0,000 mm 0,0 UV-I 7 W/m² 7,3 °C 4,8 km/h (1 Bft)
16.11.2016 16:04 8,2 °C 8,2 °C 94 % 1020,5 hPa 0,0 mm 2,8 km/h (1 Bft) W 266 ° 0 min 0,000 mm 0,0 UV-I 7 W/m² 7,3 °C 3,2 km/h (1 Bft)
16.11.2016 16:05 8,2 °C 8,2 °C 94 % 1020,6 hPa 0,0 mm 4,4 km/h (1 Bft) W-SW 252 ° 0 min 0,000 mm 0,0 UV-I 7 W/m² 7,3 °C 9,7 km/h (2 Bft)
16.11.2016 16:06 8,2 °C 8,2 °C 94 % 1020,6 hPa 0,0 mm 3,1 km/h (1 Bft) W 281 ° 0 min 0,000 mm 0,0 UV-I 7 W/m² 7,3 °C 3,2 km/h (1 Bft)
16.11.2016 16:07 8,2 °C 8,2 °C 94 % 1020,6 hPa 0,0 mm 4,0 km/h (1 Bft) SW 217 ° 0 min 0,000 mm 0,0 UV-I 7 W/m² 7,3 °C 4,8 km/h (1 Bft)
16.11.2016 16:08 8,2 °C 8,2 °C 94 % 1020,6 hPa 0,0 mm 6,0 km/h (2 Bft) W-NW 286 ° 0 min 0,000 mm 0,0 UV-I 7 W/m² 7,3 °C 11,3 km/h (2 Bft)
16.11.2016 16:09 8,2 °C 8,2 °C 94 % 1020,6 hPa 0,0 mm 10,2 km/h (2 Bft) W-SW 255 ° 0 min 0,000 mm 0,0 UV-I 5 W/m² 7,3 °C 16,1 km/h (3 Bft)
16.11.2016 16:10 8,1 °C 8,2 °C 94 % 1020,6 hPa 0,2 mm 8,5 km/h (2 Bft) W 279 ° 0 min 0,000 mm 0,0 UV-I 5 W/m² 7,2 °C 14,5 km/h (3 Bft)
16.11.2016 16:11 8,1 °C 8,1 °C 94 % 1020,7 hPa 0,0 mm 3,2 km/h (1 Bft) W 265 ° 0 min 0,000 mm 0,0 UV-I 5 W/m² 7,2 °C 4,8 km/h (1 Bft)
16.11.2016 16:12 8,1 °C 8,1 °C 94 % 1020,6 hPa 0,0 mm 8,4 km/h (2 Bft) W-SW 248 ° 0 min 0,000 mm 0,0 UV-I 7 W/m² 7,2 °C 11,3 km/h (2 Bft)
16.11.2016 16:13 8,1 °C 8,1 °C 94 % 1020,6 hPa 0,0 mm 6,0 km/h (2 Bft) W-NW 295 ° 0 min 0,000 mm 0,0 UV-I 5 W/m² 7,2 °C 9,7 km/h (2 Bft)
16.11.2016 16:14 8,1 °C 8,1 °C 94 % 1020,6 hPa 0,0 mm 6,5 km/h (2 Bft) W-SW 248 ° 0 min 0,000 mm 0,0 UV-I 5 W/m² 7,2 °C 9,7 km/h (2 Bft)
16.11.2016 16:15 8,1 °C 8,1 °C 94 % 1020,6 hPa 0,0 mm 5,5 km/h (1 Bft) W-SW 244 ° 0 min 0,000 mm 0,0 UV-I 5 W/m² 7,2 °C 6,4 km/h (2 Bft)
16.11.2016 16:16 8,0 °C 8,1 °C 94 % 1020,6 hPa 0,0 mm 9,3 km/h (2 Bft) W-SW 258 ° 0 min 0,000 mm 0,0 UV-I 5 W/m² 7,1 °C 14,5 km/h (3 Bft)
16.11.2016 16:17 8,0 °C 8,0 °C 93 % 1020,6 hPa 0,0 mm 5,2 km/h (1 Bft) S-SW 192 ° 0 min 0,000 mm 0,0 UV-I 5 W/m² 6,9 °C 6,4 km/h (2 Bft)
16.11.2016 16:18 8,0 °C 8,0 °C 93 % 1020,6 hPa 0,0 mm 7,4 km/h (2 Bft) W 266 ° 0 min 0,000 mm 0,0 UV-I 5 W/m² 6,9 °C 11,3 km/h (2 Bft)
16.11.2016 16:19 7,9 °C 8,0 °C 93 % 1020,6 hPa 0,0 mm 4,8 km/h (1 Bft) W 271 ° 0 min 0,000 mm 0,0 UV-I 5 W/m² 6,8 °C 11,3 km/h (2 Bft)
16.11.2016 16:20 7,9 °C 7,9 °C 93 % 1020,6 hPa 0,0 mm 9,5 km/h (2 Bft) W-SW 238 ° 0 min 0,000 mm 0,0 UV-I 5 W/m² 6,8 °C 12,9 km/h (3 Bft)
16.11.2016 16:21 7,9 °C 7,9 °C 93 % 1020,6 hPa 0,0 mm 10,3 km/h (2 Bft) W-NW 286 ° 0 min 0,000 mm 0,0 UV-I 5 W/m² 6,8 °C 16,1 km/h (3 Bft)
16.11.2016 16:22 7,9 °C 7,9 °C 93 % 1020,6 hPa 0,0 mm 6,2 km/h (2 Bft) W 278 ° 0 min 0,000 mm 0,0 UV-I 5 W/m² 6,8 °C 11,3 km/h (2 Bft)
16.11.2016 16:23 7,9 °C 7,9 °C 93 % 1020,6 hPa 0,0 mm 13,9 km/h (3 Bft) W-SW 256 ° 0 min 0,000 mm 0,0 UV-I 5 W/m² 6,8 °C 19,3 km/h (3 Bft)
16.11.2016 16:24 7,8 °C 7,9 °C 93 % 1020,6 hPa 0,0 mm 12,1 km/h (2 Bft) W-SW 254 ° 0 min 0,000 mm 0,0 UV-I 0 W/m² 6,7 °C 17,7 km/h (3 Bft)
16.11.2016 16:25 7,8 °C 7,9 °C 93 % 1020,7 hPa 0,0 mm 9,5 km/h (2 Bft) W 259 ° 0 min 0,000 mm 0,0 UV-I 0 W/m² 6,7 °C 14,5 km/h (3 Bft)
16.11.2016 16:26 7,9 °C 7,9 °C 93 % 1020,6 hPa 0,0 mm 12,9 km/h (3 Bft) W-SW 257 ° 0 min 0,000 mm 0,0 UV-I 0 W/m² 6,8 °C 19,3 km/h (3 Bft)
16.11.2016 16:27 7,8 °C 7,9 °C 93 % 1020,6 hPa 0,0 mm 10,9 km/h (2 Bft) W-SW 254 ° 0 min 0,000 mm 0,0 UV-I 0 W/m² 6,7 °C 17,7 km/h (3 Bft)
16.11.2016 16:28 7,8 °C 7,8 °C 93 % 1020,7 hPa 0,0 mm 11,6 km/h (2 Bft) W-SW 250 ° 0 min 0,000 mm 0,0 UV-I 0 W/m² 6,7 °C 16,1 km/h (3 Bft)
16.11.2016 16:29 7,8 °C 7,8 °C 93 % 1020,6 hPa 0,0 mm 8,9 km/h (2 Bft) W-SW 242 ° 0 min 0,000 mm 0,0 UV-I 0 W/m² 6,7 °C 14,5 km/h (3 Bft)
16.11.2016 16:30 7,8 °C 7,8 °C 93 % 1020,6 hPa 0,2 mm 13,6 km/h (3 Bft) W-SW 244 ° 0 min 0,000 mm 0,0 UV-I 0 W/m² 6,7 °C 19,3 km/h (3 Bft)
16.11.2016 16:31 7,8 °C 7,8 °C 93 % 1020,6 hPa 0,0 mm 12,1 km/h (2 Bft) W-SW 244 ° 0 min 0,000 mm 0,0 UV-I 0 W/m² 6,7 °C 19,3 km/h (3 Bft)
16.11.2016 16:32 7,8 °C 7,8 °C 93 % 1020,6 hPa 0,0 mm 11,9 km/h (2 Bft) W 265 ° 0 min 0,000 mm 0,0 UV-I 0 W/m² 6,7 °C 17,7 km/h (3 Bft)
16.11.2016 16:33 7,8 °C 7,8 °C 93 % 1020,6 hPa 0,0 mm 16,3 km/h (3 Bft) W 281 ° 0 min 0,000 mm 0,0 UV-I 0 W/m² 6,7 °C 20,9 km/h (4 Bft)
16.11.2016 16:34 7,7 °C 7,8 °C 93 % 1020,6 hPa 0,0 mm 13,7 km/h (3 Bft) W 263 ° 0 min 0,000 mm 0,0 UV-I 0 W/m² 6,6 °C 19,3 km/h (3 Bft)
16.11.2016 16:35 7,7 °C 7,8 °C 93 % 1020,6 hPa 0,0 mm 13,9 km/h (3 Bft) W-NW 287 ° 0 min 0,000 mm 0,0 UV-I 0 W/m² 6,6 °C 17,7 km/h (3 Bft)
16.11.2016 16:36 7,8 °C 7,8 °C 93 % 1020,6 hPa 0,0 mm 11,7 km/h (2 Bft) SW 233 ° 0 min 0,000 mm 0,0 UV-I 0 W/m² 6,7 °C 17,7 km/h (3 Bft)
16.11.2016 16:37 7,7 °C 7,8 °C 93 % 1020,5 hPa 0,2 mm 14,9 km/h (3 Bft) W-SW 248 ° 0 min 0,000 mm 0,0 UV-I 0 W/m² 6,6 °C 24,1 km/h (4 Bft)
16.11.2016 16:38 7,7 °C 7,7 °C 93 % 1020,5 hPa 0,0 mm 10,3 km/h (2 Bft) S-SW 206 ° 0 min 0,000 mm 0,0 UV-I 0 W/m² 6,6 °C 22,5 km/h (4 Bft)
16.11.2016 16:39 7,7 °C 7,7 °C 93 % 1020,4 hPa 0,0 mm 5,7 km/h (1 Bft) S-SW 200 ° 0 min 0,000 mm 0,0 UV-I 0 W/m² 6,6 °C 9,7 km/h (2 Bft)
16.11.2016 16:40 7,7 °C 7,7 °C 93 % 1020,4 hPa 0,2 mm 7,8 km/h (2 Bft) S-SW 203 ° 0 min 0,000 mm 0,0 UV-I 0 W/m² 6,6 °C 12,9 km/h (3 Bft)
16.11.2016 16:41 7,7 °C 7,7 °C 93 % 1020,3 hPa 0,0 mm 6,8 km/h (2 Bft) W 261 ° 0 min 0,000 mm 0,0 UV-I 0 W/m² 6,6 °C 11,3 km/h (2 Bft)
16.11.2016 16:42 7,7 °C 7,7 °C 93 % 1020,3 hPa 0,0 mm 6,2 km/h (2 Bft) S-SW 205 ° 0 min 0,000 mm 0,0 UV-I 0 W/m² 6,6 °C 9,7 km/h (2 Bft)
16.11.2016 16:43 7,7 °C 7,7 °C 93 % 1020,3 hPa 0,2 mm 6,2 km/h (2 Bft) S-SW 200 ° 0 min 0,000 mm 0,0 UV-I 0 W/m² 6,6 °C 9,7 km/h (2 Bft)
16.11.2016 16:44 7,7 °C 7,7 °C 93 % 1020,3 hPa 0,0 mm 6,6 km/h (2 Bft) S 181 ° 0 min 0,000 mm 0,0 UV-I 0 W/m² 6,6 °C 9,7 km/h (2 Bft)
16.11.2016 16:45 7,8 °C 7,8 °C 93 % 1020,2 hPa 0,0 mm 9,3 km/h (2 Bft) SW 220 ° 0 min 0,000 mm 0,0 UV-I 0 W/m² 6,7 °C 12,9 km/h (3 Bft)
16.11.2016 16:46 7,7 °C 7,8 °C 93 % 1020,2 hPa 0,0 mm 7,3 km/h (2 Bft) SW 221 ° 0 min 0,000 mm 0,0 UV-I 0 W/m² 6,6 °C 11,3 km/h (2 Bft)
16.11.2016 16:47 7,8 °C 7,8 °C 93 % 1020,1 hPa 0,2 mm 6,6 km/h (2 Bft) W-SW 238 ° 0 min 0,000 mm 0,0 UV-I 0 W/m² 6,7 °C 11,3 km/h (2 Bft)
16.11.2016 16:48 7,8 °C 7,8 °C 93 % 1020,2 hPa 0,0 mm 6,6 km/h (2 Bft) S-SW 193 ° 0 min 0,000 mm 0,0 UV-I 0 W/m² 6,7 °C 12,9 km/h (3 Bft)
16.11.2016 16:49 7,8 °C 7,8 °C 93 % 1020,1 hPa 0,0 mm 9,4 km/h (2 Bft) SW 221 ° 0 min 0,000 mm 0,0 UV-I 0 W/m² 6,7 °C 14,5 km/h (3 Bft)
16.11.2016 16:50 7,8 °C 7,8 °C 94 % 1020,0 hPa 0,0 mm 7,6 km/h (2 Bft) W-SW 237 ° 0 min 0,000 mm 0,0 UV-I 0 W/m² 6,9 °C 12,9 km/h (3 Bft)
16.11.2016 16:51 7,9 °C 7,9 °C 94 % 1020,0 hPa 0,0 mm 7,8 km/h (2 Bft) SW 229 ° 0 min 0,000 mm 0,0 UV-I 0 W/m² 7,0 °C 20,9 km/h (4 Bft)
16.11.2016 16:52 7,9 °C 7,9 °C 94 % 1020,1 hPa 0,2 mm 10,1 km/h (2 Bft) SW 227 ° 0 min 0,000 mm 0,0 UV-I 0 W/m² 7,0 °C 16,1 km/h (3 Bft)
16.11.2016 16:53 7,9 °C 7,9 °C 94 % 1020,1 hPa 0,0 mm 5,0 km/h (1 Bft) W-SW 238 ° 0 min 0,000 mm 0,0 UV-I 0 W/m² 7,0 °C 8,0 km/h (2 Bft)
16.11.2016 16:54 7,9 °C 7,9 °C 94 % 1020,0 hPa 0,0 mm 5,1 km/h (1 Bft) W-SW 255 ° 0 min 0,000 mm 0,0 UV-I 0 W/m² 7,0 °C 11,3 km/h (2 Bft)
16.11.2016 16:55 7,9 °C 8,0 °C 94 % 1020,0 hPa 0,2 mm 8,9 km/h (2 Bft) SW 234 ° 0 min 0,000 mm 0,0 UV-I 0 W/m² 7,0 °C 12,9 km/h (3 Bft)
16.11.2016 16:56 8,0 °C 8,0 °C 94 % 1020,0 hPa 0,0 mm 9,6 km/h (2 Bft) W-SW 257 ° 0 min 0,000 mm 0,0 UV-I 0 W/m² 7,1 °C 12,9 km/h (3 Bft)
16.11.2016 16:57 8,1 °C 8,1 °C 94 % 1020,1 hPa 0,0 mm 7,1 km/h (2 Bft) S-SW 209 ° 0 min 0,000 mm 0,0 UV-I 0 W/m² 7,2 °C 9,7 km/h (2 Bft)
16.11.2016 16:58 8,1 °C 8,1 °C 94 % 1020,0 hPa 0,0 mm 6,7 km/h (2 Bft) W-SW 246 ° 0 min 0,000 mm 0,0 UV-I 0 W/m² 7,2 °C 9,7 km/h (2 Bft)
16.11.2016 16:59 8,1 °C 8,1 °C 94 % 1020,0 hPa 0,2 mm 4,8 km/h (1 Bft) SW 217 ° 0 min 0,000 mm 0,0 UV-I 0 W/m² 7,2 °C 6,4 km/h (2 Bft)
16.11.2016 17:00 8,1 °C 8,1 °C 94 % 1020,0 hPa 0,0 mm 5,1 km/h (1 Bft) W-SW 246 ° 0 min 0,000 mm 0,0 UV-I 0 W/m² 7,2 °C 9,7 km/h (2 Bft)
16.11.2016 17:01 8,1 °C 8,1 °C 94 % 1019,9 hPa 0,0 mm 6,5 km/h (2 Bft) S-SW 208 ° 0 min 0,000 mm 0,0 UV-I 0 W/m² 7,2 °C 11,3 km/h (2 Bft)
16.11.2016 17:02 8,2 °C 8,2 °C 94 % 1019,9 hPa 0,0 mm 7,8 km/h (2 Bft) SW 221 ° 0 min 0,000 mm 0,0 UV-I 0 W/m² 7,3 °C 11,3 km/h (2 Bft)
16.11.2016 17:03 8,2 °C 8,2 °C 94 % 1019,9 hPa 0,2 mm 5,6 km/h (1 Bft) W 263 ° 0 min 0,000 mm 0,0 UV-I 0 W/m² 7,3 °C 8,0 km/h (2 Bft)
16.11.2016 17:04 8,2 °C 8,2 °C 94 % 1019,9 hPa 0,0 mm 4,6 km/h (1 Bft) SW 217 ° 0 min 0,000 mm 0,0 UV-I 0 W/m² 7,3 °C 8,0 km/h (2 Bft)
16.11.2016 17:05 8,2 °C 8,2 °C 94 % 1019,9 hPa 0,0 mm 5,2 km/h (1 Bft) S-SW 212 ° 0 min 0,000 mm 0,0 UV-I 0 W/m² 7,3 °C 8,0 km/h (2 Bft)
16.11.2016 17:06 8,2 °C 8,2 °C 94 % 1019,9 hPa 0,2 mm 3,6 km/h (1 Bft) S-SW 195 ° 0 min 0,000 mm 0,0 UV-I 0 W/m² 7,3 °C 6,4 km/h (2 Bft)
16.11.2016 17:07 8,2 °C 8,3 °C 94 % 1019,9 hPa 0,0 mm 2,5 km/h (1 Bft) S-SW 195 ° 0 min 0,000 mm 0,0 UV-I 0 W/m² 7,3 °C 3,2 km/h (1 Bft)
16.11.2016 17:08 8,2 °C 8,3 °C 94 % 1019,9 hPa 0,0 mm 6,0 km/h (2 Bft) S-SW 196 ° 0 min 0,000 mm 0,0 UV-I 0 W/m² 7,3 °C 11,3 km/h (2 Bft)
16.11.2016 17:09 8,2 °C 8,3 °C 94 % 1019,9 hPa 0,2 mm 5,5 km/h (1 Bft) S-SW 211 ° 0 min 0,000 mm 0,0 UV-I 0 W/m² 7,3 °C 9,7 km/h (2 Bft)
16.11.2016 17:10 8,2 °C 8,3 °C 94 % 1019,9 hPa 0,0 mm 4,8 km/h (1 Bft) S-SW 200 ° 0 min 0,000 mm 0,0 UV-I 0 W/m² 7,3 °C 6,4 km/h (2 Bft)
16.11.2016 17:11 8,3 °C 8,3 °C 94 % 1019,9 hPa 0,2 mm 2,5 km/h (1 Bft) S 183 ° 0 min 0,000 mm 0,0 UV-I 0 W/m² 7,4 °C 6,4 km/h (2 Bft)
16.11.2016 17:12 8,2 °C 8,3 °C 94 % 1019,8 hPa 0,0 mm 1,4 km/h (1 Bft) S 184 ° 0 min 0,000 mm 0,0 UV-I 0 W/m² 7,3 °C 3,2 km/h (1 Bft)
16.11.2016 17:13 8,2 °C 8,2 °C 94 % 1019,8 hPa 0,2 mm 2,8 km/h (1 Bft) S 182 ° 0 min 0,000 mm 0,0 UV-I 0 W/m² 7,3 °C 4,8 km/h (1 Bft)
16.11.2016 17:14 8,2 °C 8,2 °C 94 % 1019,7 hPa 0,0 mm 2,0 km/h (1 Bft) S 182 ° 0 min 0,000 mm 0,0 UV-I 0 W/m² 7,3 °C 3,2 km/h (1 Bft)
16.11.2016 17:15 8,2 °C 8,2 °C 94 % 1019,7 hPa 0,0 mm 0,8 km/h (0 Bft) S 182 ° 0 min 0,000 mm 0,0 UV-I 0 W/m² 7,3 °C 3,2 km/h (1 Bft)
16.11.2016 17:16 8,2 °C 8,2 °C 94 % 1019,7 hPa 0,0 mm 0,9 km/h (0 Bft) S 182 ° 0 min 0,000 mm 0,0 UV-I 0 W/m² 7,3 °C 1,6 km/h (1 Bft)
16.11.2016 17:17 8,2 °C 8,2 °C 94 % 1019,7 hPa 0,2 mm 0,6 km/h (0 Bft) S 178 ° 0 min 0,000 mm 0,0 UV-I 0 W/m² 7,3 °C 1,6 km/h (1 Bft)
16.11.2016 17:18 8,2 °C 8,2 °C 94 % 1019,7 hPa 0,0 mm 0,0 km/h (0 Bft) S 178 ° 0 min 0,000 mm 0,0 UV-I 0 W/m² 7,3 °C 0,0 km/h (0 Bft)
16.11.2016 17:19 8,2 °C 8,2 °C 94 % 1019,6 hPa 0,0 mm 0,0 km/h (0 Bft) S 178 ° 0 min 0,000 mm 0,0 UV-I 0 W/m² 7,3 °C 0,0 km/h (0 Bft)
16.11.2016 17:20 8,2 °C 8,2 °C 94 % 1019,7 hPa 0,0 mm 0,0 km/h (0 Bft) SW 226 ° 0 min 0,000 mm 0,0 UV-I 0 W/m² 7,3 °C 0,0 km/h (0 Bft)
16.11.2016 17:21 8,2 °C 8,2 °C 94 % 1019,7 hPa 0,0 mm 0,0 km/h (0 Bft) SW 226 ° 0 min 0,000 mm 0,0 UV-I 0 W/m² 7,3 °C 0,0 km/h (0 Bft)
16.11.2016 17:22 8,2 °C 8,2 °C 94 % 1019,7 hPa 0,0 mm 0,0 km/h (0 Bft) SW 226 ° 0 min 0,000 mm 0,0 UV-I 0 W/m² 7,3 °C 0,0 km/h (0 Bft)
16.11.2016 17:23 8,1 °C 8,2 °C 94 % 1019,7 hPa 0,2 mm 0,0 km/h (0 Bft) S-SW 210 ° 0 min 0,000 mm 0,0 UV-I 0 W/m² 7,2 °C 0,0 km/h (0 Bft)
16.11.2016 17:24 8,1 °C 8,2 °C 94 % 1019,7 hPa 0,0 mm 0,0 km/h (0 Bft) S-SW 210 ° 0 min 0,000 mm 0,0 UV-I 0 W/m² 7,2 °C 0,0 km/h (0 Bft)
16.11.2016 17:25 8,1 °C 8,2 °C 94 % 1019,7 hPa 0,0 mm 0,0 km/h (0 Bft) S-SW 210 ° 0 min 0,000 mm 0,0 UV-I 0 W/m² 7,2 °C 0,0 km/h (0 Bft)
16.11.2016 17:26 8,1 °C 8,2 °C 94 % 1019,7 hPa 0,0 mm 0,0 km/h (0 Bft) S-SW 210 ° 0 min 0,000 mm 0,0 UV-I 0 W/m² 7,2 °C 0,0 km/h (0 Bft)
16.11.2016 17:27 8,1 °C 8,2 °C 94 % 1019,7 hPa 0,0 mm 0,0 km/h (0 Bft) S-SW 208 ° 0 min 0,000 mm 0,0 UV-I 0 W/m² 7,2 °C 0,0 km/h (0 Bft)
16.11.2016 17:28 8,1 °C 8,1 °C 94 % 1019,7 hPa 0,0 mm 0,0 km/h (0 Bft) S 188 ° 0 min 0,000 mm 0,0 UV-I 0 W/m² 7,2 °C 0,0 km/h (0 Bft)
16.11.2016 17:29 8,1 °C 8,1 °C 94 % 1019,7 hPa 0,0 mm 0,2 km/h (0 Bft) S 184 ° 0 min 0,000 mm 0,0 UV-I 0 W/m² 7,2 °C 3,2 km/h (1 Bft)
16.11.2016 17:30 8,1 °C 8,1 °C 94 % 1019,8 hPa 0,2 mm 3,2 km/h (1 Bft) S 189 ° 0 min 0,000 mm 0,0 UV-I 0 W/m² 7,2 °C 6,4 km/h (2 Bft)
16.11.2016 17:31 8,1 °C 8,1 °C 94 % 1019,7 hPa 0,0 mm 4,5 km/h (1 Bft) S-SW 196 ° 0 min 0,000 mm 0,0 UV-I 0 W/m² 7,2 °C 6,4 km/h (2 Bft)
16.11.2016 17:32 8,1 °C 8,1 °C 94 % 1019,8 hPa 0,0 mm 2,1 km/h (1 Bft) S-SW 196 ° 0 min 0,000 mm 0,0 UV-I 0 W/m² 7,2 °C 4,8 km/h (1 Bft)
16.11.2016 17:33 8,1 °C 8,1 °C 94 % 1019,7 hPa 0,0 mm 3,7 km/h (1 Bft) SW 217 ° 0 min 0,000 mm 0,0 UV-I 0 W/m² 7,2 °C 6,4 km/h (2 Bft)
16.11.2016 17:34 8,1 °C 8,1 °C 94 % 1019,7 hPa 0,0 mm 3,1 km/h (1 Bft) S 179 ° 0 min 0,000 mm 0,0 UV-I 0 W/m² 7,2 °C 6,4 km/h (2 Bft)
16.11.2016 17:35 8,1 °C 8,1 °C 94 % 1019,7 hPa 0,0 mm 1,9 km/h (1 Bft) S 179 ° 0 min 0,000 mm 0,0 UV-I 0 W/m² 7,2 °C 3,2 km/h (1 Bft)
16.11.2016 17:36 8,1 °C 8,1 °C 94 % 1019,6 hPa 0,0 mm 0,8 km/h (0 Bft) S 179 ° 0 min 0,000 mm 0,0 UV-I 0 W/m² 7,2 °C 1,6 km/h (1 Bft)
16.11.2016 17:37 8,1 °C 8,1 °C 94 % 1019,6 hPa 0,0 mm 1,1 km/h (1 Bft) S 180 ° 0 min 0,000 mm 0,0 UV-I 0 W/m² 7,2 °C 1,6 km/h (1 Bft)
16.11.2016 17:38 8,0 °C 8,1 °C 94 % 1019,7 hPa 0,0 mm 2,3 km/h (1 Bft) S 180 ° 0 min 0,000 mm 0,0 UV-I 0 W/m² 7,1 °C 4,8 km/h (1 Bft)
16.11.2016 17:39 8,1 °C 8,1 °C 94 % 1019,7 hPa 0,0 mm 3,6 km/h (1 Bft) S 173 ° 0 min 0,000 mm 0,0 UV-I 0 W/m² 7,2 °C 6,4 km/h (2 Bft)
16.11.2016 17:40 8,0 °C 8,1 °C 94 % 1019,7 hPa 0,0 mm 2,5 km/h (1 Bft) S-SO 165 ° 0 min 0,000 mm 0,0 UV-I 0 W/m² 7,1 °C 6,4 km/h (2 Bft)
16.11.2016 17:41 8,0 °C 8,1 °C 94 % 1019,7 hPa 0,0 mm 2,0 km/h (1 Bft) S-SW 200 ° 0 min 0,000 mm 0,0 UV-I 0 W/m² 7,1 °C 3,2 km/h (1 Bft)
16.11.2016 17:42 8,0 °C 8,0 °C 94 % 1019,6 hPa 0,2 mm 3,4 km/h (1 Bft) S 188 ° 0 min 0,000 mm 0,0 UV-I 0 W/m² 7,1 °C 4,8 km/h (1 Bft)
16.11.2016 17:43 8,0 °C 8,0 °C 94 % 1019,7 hPa 0,0 mm 3,6 km/h (1 Bft) S 179 ° 0 min 0,000 mm 0,0 UV-I 0 W/m² 7,1 °C 4,8 km/h (1 Bft)
16.11.2016 17:44 8,0 °C 8,0 °C 94 % 1019,6 hPa 0,0 mm 2,7 km/h (1 Bft) S 178 ° 0 min 0,000 mm 0,0 UV-I 0 W/m² 7,1 °C 4,8 km/h (1 Bft)
16.11.2016 17:45 8,0 °C 8,0 °C 94 % 1019,6 hPa 0,0 mm 4,2 km/h (1 Bft) S 184 ° 0 min 0,000 mm 0,0 UV-I 0 W/m² 7,1 °C 8,0 km/h (2 Bft)
16.11.2016 17:46 8,0 °C 8,0 °C 94 % 1019,6 hPa 0,0 mm 2,5 km/h (1 Bft) S 180 ° 0 min 0,000 mm 0,0 UV-I 0 W/m² 7,1 °C 4,8 km/h (1 Bft)
16.11.2016 17:47 8,0 °C 8,0 °C 94 % 1019,6 hPa 0,0 mm 3,9 km/h (1 Bft) S-SW 209 ° 0 min 0,000 mm 0,0 UV-I 0 W/m² 7,1 °C 6,4 km/h (2 Bft)
16.11.2016 17:48 8,0 °C 8,0 °C 95 % 1019,6 hPa 0,0 mm 3,0 km/h (1 Bft) S 183 ° 0 min 0,000 mm 0,0 UV-I 0 W/m² 7,2 °C 3,2 km/h (1 Bft)
16.11.2016 17:49 8,0 °C 8,1 °C 95 % 1019,6 hPa 0,0 mm 2,7 km/h (1 Bft) S 184 ° 0 min 0,000 mm 0,0 UV-I 0 W/m² 7,2 °C 4,8 km/h (1 Bft)
16.11.2016 17:50 8,1 °C 8,1 °C 95 % 1019,6 hPa 0,0 mm 4,4 km/h (1 Bft) S-SW 198 ° 0 min 0,000 mm 0,0 UV-I 0 W/m² 7,3 °C 6,4 km/h (2 Bft)
16.11.2016 17:51 8,1 °C 8,1 °C 95 % 1019,6 hPa 0,0 mm 3,6 km/h (1 Bft) SW 225 ° 0 min 0,000 mm 0,0 UV-I 0 W/m² 7,3 °C 4,8 km/h (1 Bft)
16.11.2016 17:52 8,1 °C 8,1 °C 95 % 1019,6 hPa 0,0 mm 2,3 km/h (1 Bft) SW 215 ° 0 min 0,000 mm 0,0 UV-I 0 W/m² 7,3 °C 3,2 km/h (1 Bft)
16.11.2016 17:53 8,1 °C 8,1 °C 95 % 1019,6 hPa 0,0 mm 1,3 km/h (1 Bft) SW 215 ° 0 min 0,000 mm 0,0 UV-I 0 W/m² 7,3 °C 3,2 km/h (1 Bft)
16.11.2016 17:54 8,1 °C 8,1 °C 95 % 1019,6 hPa 0,0 mm 0,4 km/h (0 Bft) SW 215 ° 0 min 0,000 mm 0,0 UV-I 0 W/m² 7,3 °C 1,6 km/h (1 Bft)
16.11.2016 17:55 8,1 °C 8,1 °C 95 % 1019,6 hPa 0,0 mm 2,4 km/h (1 Bft) S-SW 194 ° 0 min 0,000 mm 0,0 UV-I 0 W/m² 7,3 °C 4,8 km/h (1 Bft)
16.11.2016 17:56 8,1 °C 8,1 °C 95 % 1019,6 hPa 0,0 mm 1,0 km/h (0 Bft) S-SW 194 ° 0 min 0,000 mm 0,0 UV-I 0 W/m² 7,3 °C 1,6 km/h (1 Bft)
16.11.2016 17:57 8,1 °C 8,1 °C 95 % 1019,6 hPa 0,0 mm 1,4 km/h (1 Bft) S-SW 194 ° 0 min 0,000 mm 0,0 UV-I 0 W/m² 7,3 °C 3,2 km/h (1 Bft)
16.11.2016 17:58 8,1 °C 8,1 °C 95 % 1019,6 hPa 0,0 mm 2,5 km/h (1 Bft) S-SW 194 ° 0 min 0,000 mm 0,0 UV-I 0 W/m² 7,3 °C 3,2 km/h (1 Bft)
16.11.2016 17:59 8,1 °C 8,2 °C 95 % 1019,6 hPa 0,0 mm 2,2 km/h (1 Bft) S-SW 194 ° 0 min 0,000 mm 0,0 UV-I 0 W/m² 7,3 °C 3,2 km/h (1 Bft)
16.11.2016 18:00 8,1 °C 8,1 °C 95 % 1019,6 hPa 0,0 mm 0,7 km/h (0 Bft) S-SW 194 ° 0 min 0,000 mm 0,0 UV-I 0 W/m² 7,3 °C 1,6 km/h (1 Bft)
16.11.2016 18:01 8,2 °C 8,2 °C 95 % 1019,6 hPa 0,0 mm 2,2 km/h (1 Bft) S-SW 194 ° 0 min 0,000 mm 0,0 UV-I 0 W/m² 7,4 °C 4,8 km/h (1 Bft)
16.11.2016 18:02 8,1 °C 8,2 °C 95 % 1019,6 hPa 0,0 mm 2,9 km/h (1 Bft) S-SW 194 ° 0 min 0,000 mm 0,0 UV-I 0 W/m² 7,3 °C 4,8 km/h (1 Bft)
16.11.2016 18:03 8,2 °C 8,2 °C 95 % 1019,6 hPa 0,0 mm 1,2 km/h (1 Bft) S-SW 194 ° 0 min 0,000 mm 0,0 UV-I 0 W/m² 7,4 °C 1,6 km/h (1 Bft)
16.11.2016 18:04 8,1 °C 8,2 °C 95 % 1019,6 hPa 0,0 mm 0,6 km/h (0 Bft) S-SW 194 ° 0 min 0,000 mm 0,0 UV-I 0 W/m² 7,3 °C 1,6 km/h (1 Bft)
16.11.2016 18:05 8,2 °C 8,2 °C 95 % 1019,6 hPa 0,0 mm 1,0 km/h (0 Bft) S-SW 194 ° 0 min 0,000 mm 0,0 UV-I 0 W/m² 7,4 °C 1,6 km/h (1 Bft)
16.11.2016 18:06 8,1 °C 8,2 °C 95 % 1019,6 hPa 0,2 mm 1,1 km/h (1 Bft) S-SW 194 ° 0 min 0,000 mm 0,0 UV-I 0 W/m² 7,3 °C 1,6 km/h (1 Bft)
16.11.2016 18:07 8,1 °C 8,1 °C 95 % 1019,6 hPa 0,0 mm 1,0 km/h (0 Bft) S-SW 194 ° 0 min 0,000 mm 0,0 UV-I 0 W/m² 7,3 °C 1,6 km/h (1 Bft)
16.11.2016 18:08 8,1 °C 8,2 °C 95 % 1019,6 hPa 0,0 mm 1,1 km/h (1 Bft) S-SW 194 ° 0 min 0,000 mm 0,0 UV-I 0 W/m² 7,3 °C 3,2 km/h (1 Bft)
16.11.2016 18:09 8,1 °C 8,1 °C 95 % 1019,6 hPa 0,0 mm 1,0 km/h (0 Bft) S-SW 194 ° 0 min 0,000 mm 0,0 UV-I 0 W/m² 7,3 °C 3,2 km/h (1 Bft)
16.11.2016 18:10 8,1 °C 8,2 °C 95 % 1019,5 hPa 0,0 mm 1,7 km/h (1 Bft) S-SW 194 ° 0 min 0,000 mm 0,0 UV-I 0 W/m² 7,3 °C 3,2 km/h (1 Bft)
16.11.2016 18:11 8,1 °C 8,1 °C 95 % 1019,5 hPa 0,0 mm 1,5 km/h (1 Bft) S-SW 194 ° 0 min 0,000 mm 0,0 UV-I 0 W/m² 7,3 °C 1,6 km/h (1 Bft)
16.11.2016 18:12 8,1 °C 8,1 °C 95 % 1019,6 hPa 0,0 mm 1,3 km/h (1 Bft) S-SW 194 ° 0 min 0,000 mm 0,0 UV-I 0 W/m² 7,3 °C 3,2 km/h (1 Bft)
16.11.2016 18:13 8,1 °C 8,1 °C 95 % 1019,5 hPa 0,0 mm 0,9 km/h (0 Bft) S-SW 194 ° 0 min 0,000 mm 0,0 UV-I 0 W/m² 7,3 °C 1,6 km/h (1 Bft)
16.11.2016 18:14 8,1 °C 8,1 °C 95 % 1019,5 hPa 0,0 mm 0,4 km/h (0 Bft) S-SW 197 ° 0 min 0,000 mm 0,0 UV-I 0 W/m² 7,3 °C 3,2 km/h (1 Bft)
16.11.2016 18:15 8,1 °C 8,1 °C 95 % 1019,5 hPa 0,0 mm 0,9 km/h (0 Bft) S-SW 198 ° 0 min 0,000 mm 0,0 UV-I 0 W/m² 7,3 °C 3,2 km/h (1 Bft)
16.11.2016 18:16 8,1 °C 8,1 °C 95 % 1019,5 hPa 0,0 mm 0,8 km/h (0 Bft) S-SW 198 ° 0 min 0,000 mm 0,0 UV-I 0 W/m² 7,3 °C 1,6 km/h (1 Bft)
16.11.2016 18:17 8,1 °C 8,1 °C 95 % 1019,5 hPa 0,0 mm 0,2 km/h (0 Bft) S-SW 198 ° 0 min 0,000 mm 0,0 UV-I 0 W/m² 7,3 °C 1,6 km/h (1 Bft)
16.11.2016 18:18 8,1 °C 8,1 °C 95 % 1019,5 hPa 0,0 mm 0,1 km/h (0 Bft) S-SW 198 ° 0 min 0,000 mm 0,0 UV-I 0 W/m² 7,3 °C 1,6 km/h (1 Bft)
16.11.2016 18:19 8,1 °C 8,1 °C 95 % 1019,5 hPa 0,0 mm 0,9 km/h (0 Bft) S-SW 198 ° 0 min 0,000 mm 0,0 UV-I 0 W/m² 7,3 °C 1,6 km/h (1 Bft)
16.11.2016 18:20 8,1 °C 8,1 °C 95 % 1019,5 hPa 0,0 mm 1,7 km/h (1 Bft) S-SW 198 ° 0 min 0,000 mm 0,0 UV-I 0 W/m² 7,3 °C 3,2 km/h (1 Bft)
16.11.2016 18:21 8,1 °C 8,1 °C 95 % 1019,5 hPa 0,0 mm 1,8 km/h (1 Bft) S-SW 198 ° 0 min 0,000 mm 0,0 UV-I 0 W/m² 7,3 °C 3,2 km/h (1 Bft)
16.11.2016 18:22 8,1 °C 8,1 °C 95 % 1019,5 hPa 0,2 mm 2,3 km/h (1 Bft) S-SW 198 ° 0 min 0,000 mm 0,0 UV-I 0 W/m² 7,3 °C 3,2 km/h (1 Bft)
16.11.2016 18:23 8,1 °C 8,1 °C 95 % 1019,4 hPa 0,0 mm 2,2 km/h (1 Bft) S-SW 198 ° 0 min 0,000 mm 0,0 UV-I 0 W/m² 7,3 °C 3,2 km/h (1 Bft)
16.11.2016 18:24 8,1 °C 8,1 °C 95 % 1019,5 hPa 0,0 mm 2,7 km/h (1 Bft) S-SW 196 ° 0 min 0,000 mm 0,0 UV-I 0 W/m² 7,3 °C 4,8 km/h (1 Bft)
16.11.2016 18:25 8,1 °C 8,1 °C 95 % 1019,5 hPa 0,0 mm 2,7 km/h (1 Bft) S 183 ° 0 min 0,000 mm 0,0 UV-I 0 W/m² 7,3 °C 4,8 km/h (1 Bft)
16.11.2016 18:26 8,1 °C 8,1 °C 95 % 1019,4 hPa 0,0 mm 2,0 km/h (1 Bft) S 183 ° 0 min 0,000 mm 0,0 UV-I 0 W/m² 7,3 °C 3,2 km/h (1 Bft)
16.11.2016 18:27 8,1 °C 8,1 °C 95 % 1019,4 hPa 0,0 mm 3,5 km/h (1 Bft) S 184 ° 0 min 0,000 mm 0,0 UV-I 0 W/m² 7,3 °C 4,8 km/h (1 Bft)
16.11.2016 18:28 8,0 °C 8,1 °C 95 % 1019,5 hPa 0,0 mm 2,1 km/h (1 Bft) S 184 ° 0 min 0,000 mm 0,0 UV-I 0 W/m² 7,2 °C 3,2 km/h (1 Bft)
16.11.2016 18:29 8,0 °C 8,1 °C 95 % 1019,5 hPa 0,0 mm 1,2 km/h (1 Bft) S 184 ° 0 min 0,000 mm 0,0 UV-I 0 W/m² 7,2 °C 1,6 km/h (1 Bft)
16.11.2016 18:30 8,0 °C 8,0 °C 95 % 1019,4 hPa 0,0 mm 1,1 km/h (1 Bft) S 184 ° 0 min 0,000 mm 0,0 UV-I 0 W/m² 7,2 °C 3,2 km/h (1 Bft)
16.11.2016 18:31 8,0 °C 8,0 °C 95 % 1019,5 hPa 0,0 mm 0,3 km/h (0 Bft) S 184 ° 0 min 0,000 mm 0,0 UV-I 0 W/m² 7,2 °C 1,6 km/h (1 Bft)
16.11.2016 18:32 8,0 °C 8,0 °C 95 % 1019,5 hPa 0,0 mm 1,2 km/h (1 Bft) S 184 ° 0 min 0,000 mm 0,0 UV-I 0 W/m² 7,2 °C 1,6 km/h (1 Bft)
16.11.2016 18:33 8,0 °C 8,0 °C 95 % 1019,6 hPa 0,0 mm 1,7 km/h (1 Bft) S 184 ° 0 min 0,000 mm 0,0 UV-I 0 W/m² 7,2 °C 3,2 km/h (1 Bft)
16.11.2016 18:34 8,0 °C 8,0 °C 95 % 1019,6 hPa 0,0 mm 1,9 km/h (1 Bft) S 184 ° 0 min 0,000 mm 0,0 UV-I 0 W/m² 7,2 °C 3,2 km/h (1 Bft)
16.11.2016 18:35 8,0 °C 8,0 °C 95 % 1019,6 hPa 0,0 mm 1,5 km/h (1 Bft) S 184 ° 0 min 0,000 mm 0,0 UV-I 0 W/m² 7,2 °C 1,6 km/h (1 Bft)
16.11.2016 18:36 7,9 °C 8,0 °C 95 % 1019,6 hPa 0,0 mm 0,6 km/h (0 Bft) S 184 ° 0 min 0,000 mm 0,0 UV-I 0 W/m² 7,1 °C 1,6 km/h (1 Bft)
16.11.2016 18:37 7,9 °C 7,9 °C 95 % 1019,6 hPa 0,0 mm 0,1 km/h (0 Bft) S 184 ° 0 min 0,000 mm 0,0 UV-I 0 W/m² 7,1 °C 1,6 km/h (1 Bft)
16.11.2016 18:38 7,9 °C 7,9 °C 95 % 1019,6 hPa 0,0 mm 1,0 km/h (0 Bft) S 184 ° 0 min 0,000 mm 0,0 UV-I 0 W/m² 7,1 °C 3,2 km/h (1 Bft)
16.11.2016 18:39 7,9 °C 7,9 °C 95 % 1019,6 hPa 0,0 mm 0,1 km/h (0 Bft) S 184 ° 0 min 0,000 mm 0,0 UV-I 0 W/m² 7,1 °C 1,6 km/h (1 Bft)
16.11.2016 18:40 7,9 °C 7,9 °C 95 % 1019,6 hPa 0,0 mm 1,2 km/h (1 Bft) S 184 ° 0 min 0,000 mm 0,0 UV-I 0 W/m² 7,1 °C 3,2 km/h (1 Bft)
16.11.2016 18:41 7,9 °C 7,9 °C 95 % 1019,6 hPa 0,0 mm 2,5 km/h (1 Bft) S 184 ° 0 min 0,000 mm 0,0 UV-I 0 W/m² 7,1 °C 3,2 km/h (1 Bft)
16.11.2016 18:42 7,9 °C 7,9 °C 95 % 1019,6 hPa 0,0 mm 3,6 km/h (1 Bft) S 184 ° 0 min 0,000 mm 0,0 UV-I 0 W/m² 7,1 °C 4,8 km/h (1 Bft)
16.11.2016 18:43 7,9 °C 7,9 °C 95 % 1019,7 hPa 0,0 mm 2,0 km/h (1 Bft) S 184 ° 0 min 0,000 mm 0,0 UV-I 0 W/m² 7,1 °C 3,2 km/h (1 Bft)
16.11.2016 18:44 7,9 °C 7,9 °C 95 % 1019,6 hPa 0,0 mm 1,0 km/h (0 Bft) S 184 ° 0 min 0,000 mm 0,0 UV-I 0 W/m² 7,1 °C 3,2 km/h (1 Bft)
16.11.2016 18:45 7,9 °C 7,9 °C 95 % 1019,7 hPa 0,0 mm 2,9 km/h (1 Bft) S 184 ° 0 min 0,000 mm 0,0 UV-I 0 W/m² 7,1 °C 3,2 km/h (1 Bft)
16.11.2016 18:46 7,9 °C 7,9 °C 95 % 1019,7 hPa 0,0 mm 2,5 km/h (1 Bft) S 184 ° 0 min 0,000 mm 0,0 UV-I 0 W/m² 7,1 °C 3,2 km/h (1 Bft)
16.11.2016 18:47 7,9 °C 7,9 °C 95 % 1019,7 hPa 0,0 mm 2,3 km/h (1 Bft) S 184 ° 0 min 0,000 mm 0,0 UV-I 0 W/m² 7,1 °C 3,2 km/h (1 Bft)
16.11.2016 18:48 7,8 °C 7,9 °C 95 % 1019,7 hPa 0,0 mm 1,9 km/h (1 Bft) S 175 ° 0 min 0,000 mm 0,0 UV-I 0 W/m² 7,0 °C 3,2 km/h (1 Bft)
16.11.2016 18:49 7,8 °C 7,9 °C 95 % 1019,7 hPa 0,0 mm 2,2 km/h (1 Bft) S 175 ° 0 min 0,000 mm 0,0 UV-I 0 W/m² 7,0 °C 3,2 km/h (1 Bft)
16.11.2016 18:50 7,9 °C 7,9 °C 95 % 1019,7 hPa 0,0 mm 1,8 km/h (1 Bft) S 175 ° 0 min 0,000 mm 0,0 UV-I 0 W/m² 7,1 °C 3,2 km/h (1 Bft)
16.11.2016 18:51 7,8 °C 7,9 °C 95 % 1019,7 hPa 0,0 mm 1,0 km/h (0 Bft) S 175 ° 0 min 0,000 mm 0,0 UV-I 0 W/m² 7,0 °C 3,2 km/h (1 Bft)
16.11.2016 18:52 7,9 °C 7,9 °C 95 % 1019,7 hPa 0,0 mm 1,6 km/h (1 Bft) S 175 ° 0 min 0,000 mm 0,0 UV-I 0 W/m² 7,1 °C 3,2 km/h (1 Bft)
16.11.2016 18:53 7,8 °C 7,9 °C 95 % 1019,7 hPa 0,0 mm 1,7 km/h (1 Bft) S 175 ° 0 min 0,000 mm 0,0 UV-I 0 W/m² 7,0 °C 3,2 km/h (1 Bft)
16.11.2016 18:54 7,8 °C 7,8 °C 95 % 1019,7 hPa 0,0 mm 0,9 km/h (0 Bft) S 175 ° 0 min 0,000 mm 0,0 UV-I 0 W/m² 7,0 °C 3,2 km/h (1 Bft)
16.11.2016 18:55 7,9 °C 7,9 °C 95 % 1019,7 hPa 0,0 mm 1,7 km/h (1 Bft) S 175 ° 0 min 0,000 mm 0,0 UV-I 0 W/m² 7,1 °C 3,2 km/h (1 Bft)
16.11.2016 18:56 7,8 °C 7,9 °C 95 % 1019,7 hPa 0,0 mm 2,3 km/h (1 Bft) S 175 ° 0 min 0,000 mm 0,0 UV-I 0 W/m² 7,0 °C 3,2 km/h (1 Bft)
16.11.2016 18:57 7,9 °C 7,9 °C 95 % 1019,7 hPa 0,0 mm 2,4 km/h (1 Bft) S 174 ° 0 min 0,000 mm 0,0 UV-I 0 W/m² 7,1 °C 3,2 km/h (1 Bft)
16.11.2016 18:58 7,9 °C 7,9 °C 95 % 1019,6 hPa 0,0 mm 1,5 km/h (1 Bft) S 179 ° 0 min 0,000 mm 0,0 UV-I 0 W/m² 7,1 °C 3,2 km/h (1 Bft)
16.11.2016 18:59 7,9 °C 7,9 °C 95 % 1019,6 hPa 0,0 mm 4,1 km/h (1 Bft) W-NW 283 ° 0 min 0,000 mm 0,0 UV-I 0 W/m² 7,1 °C 6,4 km/h (2 Bft)
16.11.2016 19:00 7,9 °C 7,9 °C 95 % 1019,7 hPa 0,0 mm 1,0 km/h (0 Bft) W-NW 283 ° 0 min 0,000 mm 0,0 UV-I 0 W/m² 7,1 °C 3,2 km/h (1 Bft)
16.11.2016 19:01 7,9 °C 7,9 °C 95 % 1019,6 hPa 0,0 mm 3,0 km/h (1 Bft) W-NW 282 ° 0 min 0,000 mm 0,0 UV-I 0 W/m² 7,1 °C 4,8 km/h (1 Bft)
16.11.2016 19:02 7,9 °C 7,9 °C 95 % 1019,6 hPa 0,0 mm 2,7 km/h (1 Bft) W 260 ° 0 min 0,000 mm 0,0 UV-I 0 W/m² 7,1 °C 3,2 km/h (1 Bft)
16.11.2016 19:03 7,9 °C 7,9 °C 95 % 1019,7 hPa 0,0 mm 2,3 km/h (1 Bft) S-SW 205 ° 0 min 0,000 mm 0,0 UV-I 0 W/m² 7,1 °C 4,8 km/h (1 Bft)
16.11.2016 19:04 7,9 °C 7,9 °C 95 % 1019,6 hPa 0,2 mm 4,3 km/h (1 Bft) W-SW 245 ° 0 min 0,000 mm 0,0 UV-I 0 W/m² 7,1 °C 4,8 km/h (1 Bft)
16.11.2016 19:05 7,9 °C 7,9 °C 95 % 1019,6 hPa 0,0 mm 4,1 km/h (1 Bft) W-SW 258 ° 0 min 0,000 mm 0,0 UV-I 0 W/m² 7,1 °C 6,4 km/h (2 Bft)
16.11.2016 19:06 7,9 °C 7,9 °C 95 % 1019,5 hPa 0,0 mm 1,1 km/h (1 Bft) W-SW 258 ° 0 min 0,000 mm 0,0 UV-I 0 W/m² 7,1 °C 1,6 km/h (1 Bft)
16.11.2016 19:07 7,9 °C 7,9 °C 95 % 1019,5 hPa 0,0 mm 2,7 km/h (1 Bft) W 266 ° 0 min 0,000 mm 0,0 UV-I 0 W/m² 7,1 °C 4,8 km/h (1 Bft)
16.11.2016 19:08 7,9 °C 7,9 °C 95 % 1019,4 hPa 0,2 mm 3,6 km/h (1 Bft) SW 221 ° 0 min 0,000 mm 0,0 UV-I 0 W/m² 7,1 °C 6,4 km/h (2 Bft)
16.11.2016 19:09 8,0 °C 8,0 °C 95 % 1019,5 hPa 0,0 mm 4,5 km/h (1 Bft) W-SW 243 ° 0 min 0,000 mm 0,0 UV-I 0 W/m² 7,2 °C 6,4 km/h (2 Bft)
16.11.2016 19:10 7,9 °C 8,0 °C 95 % 1019,5 hPa 0,0 mm 3,0 km/h (1 Bft) W-SW 242 ° 0 min 0,000 mm 0,0 UV-I 0 W/m² 7,1 °C 4,8 km/h (1 Bft)
16.11.2016 19:11 8,0 °C 8,0 °C 95 % 1019,4 hPa 0,0 mm 4,8 km/h (1 Bft) SW 231 ° 0 min 0,000 mm 0,0 UV-I 0 W/m² 7,2 °C 9,7 km/h (2 Bft)
16.11.2016 19:12 8,0 °C 8,0 °C 95 % 1019,4 hPa 0,2 mm 5,3 km/h (1 Bft) SW 232 ° 0 min 0,000 mm 0,0 UV-I 0 W/m² 7,2 °C 8,0 km/h (2 Bft)
16.11.2016 19:13 8,0 °C 8,0 °C 95 % 1019,4 hPa 0,0 mm 4,4 km/h (1 Bft) W-SW 242 ° 0 min 0,000 mm 0,0 UV-I 0 W/m² 7,2 °C 6,4 km/h (2 Bft)
16.11.2016 19:14 8,0 °C 8,0 °C 95 % 1019,4 hPa 0,0 mm 3,4 km/h (1 Bft) W-SW 237 ° 0 min 0,000 mm 0,0 UV-I 0 W/m² 7,2 °C 8,0 km/h (2 Bft)
16.11.2016 19:15 8,0 °C 8,1 °C 95 % 1019,4 hPa 0,0 mm 2,5 km/h (1 Bft) W 259 ° 0 min 0,000 mm 0,0 UV-I 0 W/m² 7,2 °C 6,4 km/h (2 Bft)
16.11.2016 19:16 8,0 °C 8,1 °C 95 % 1019,4 hPa 0,0 mm 6,7 km/h (2 Bft) W-SW 255 ° 0 min 0,000 mm 0,0 UV-I 0 W/m² 7,2 °C 11,3 km/h (2 Bft)
16.11.2016 19:17 8,0 °C 8,1 °C 95 % 1019,4 hPa 0,0 mm 5,6 km/h (1 Bft) W-SW 258 ° 0 min 0,000 mm 0,0 UV-I 0 W/m² 7,2 °C 11,3 km/h (2 Bft)
16.11.2016 19:18 8,1 °C 8,1 °C 95 % 1019,4 hPa 0,0 mm 3,0 km/h (1 Bft) SW 217 ° 0 min 0,000 mm 0,0 UV-I 0 W/m² 7,3 °C 6,4 km/h (2 Bft)
16.11.2016 19:19 8,1 °C 8,1 °C 95 % 1019,4 hPa 0,0 mm 2,5 km/h (1 Bft) SW 220 ° 0 min 0,000 mm 0,0 UV-I 0 W/m² 7,3 °C 3,2 km/h (1 Bft)
16.11.2016 19:20 8,1 °C 8,1 °C 95 % 1019,4 hPa 0,0 mm 2,3 km/h (1 Bft) SW 236 ° 0 min 0,000 mm 0,0 UV-I 0 W/m² 7,3 °C 3,2 km/h (1 Bft)
16.11.2016 19:21 8,1 °C 8,1 °C 95 % 1019,5 hPa 0,0 mm 4,4 km/h (1 Bft) S-SW 202 ° 0 min 0,000 mm 0,0 UV-I 0 W/m² 7,3 °C 6,4 km/h (2 Bft)
16.11.2016 19:22 8,1 °C 8,1 °C 95 % 1019,5 hPa 0,0 mm 2,9 km/h (1 Bft) S-SW 203 ° 0 min 0,000 mm 0,0 UV-I 0 W/m² 7,3 °C 6,4 km/h (2 Bft)
16.11.2016 19:23 8,1 °C 8,1 °C 95 % 1019,4 hPa 0,0 mm 3,2 km/h (1 Bft) SW 220 ° 0 min 0,000 mm 0,0 UV-I 0 W/m² 7,3 °C 6,4 km/h (2 Bft)
16.11.2016 19:24 8,1 °C 8,1 °C 95 % 1019,4 hPa 0,0 mm 3,5 km/h (1 Bft) SW 220 ° 0 min 0,000 mm 0,0 UV-I 0 W/m² 7,3 °C 4,8 km/h (1 Bft)
16.11.2016 19:25 8,1 °C 8,1 °C 95 % 1019,4 hPa 0,0 mm 6,1 km/h (2 Bft) S-SW 205 ° 0 min 0,000 mm 0,0 UV-I 0 W/m² 7,3 °C 9,7 km/h (2 Bft)
16.11.2016 19:26 8,1 °C 8,1 °C 95 % 1019,3 hPa 0,0 mm 4,5 km/h (1 Bft) S 171 ° 0 min 0,000 mm 0,0 UV-I 0 W/m² 7,3 °C 8,0 km/h (2 Bft)
16.11.2016 19:27 8,1 °C 8,1 °C 95 % 1019,3 hPa 0,0 mm 6,3 km/h (2 Bft) W-SW 239 ° 0 min 0,000 mm 0,0 UV-I 0 W/m² 7,3 °C 8,0 km/h (2 Bft)
16.11.2016 19:28 8,1 °C 8,1 °C 95 % 1019,3 hPa 0,0 mm 3,6 km/h (1 Bft) SW 214 ° 0 min 0,000 mm 0,0 UV-I 0 W/m² 7,3 °C 6,4 km/h (2 Bft)
16.11.2016 19:29 8,0 °C 8,1 °C 95 % 1019,2 hPa 0,0 mm 6,1 km/h (2 Bft) S 176 ° 0 min 0,000 mm 0,0 UV-I 0 W/m² 7,2 °C 8,0 km/h (2 Bft)
16.11.2016 19:30 8,0 °C 8,1 °C 95 % 1019,3 hPa 0,0 mm 3,9 km/h (1 Bft) S-SW 198 ° 0 min 0,000 mm 0,0 UV-I 0 W/m² 7,2 °C 6,4 km/h (2 Bft)
16.11.2016 19:31 8,0 °C 8,1 °C 95 % 1019,2 hPa 0,0 mm 2,4 km/h (1 Bft) S 188 ° 0 min 0,000 mm 0,0 UV-I 0 W/m² 7,2 °C 4,8 km/h (1 Bft)
16.11.2016 19:32 8,0 °C 8,1 °C 95 % 1019,3 hPa 0,0 mm 4,6 km/h (1 Bft) S-SW 196 ° 0 min 0,000 mm 0,0 UV-I 0 W/m² 7,2 °C 8,0 km/h (2 Bft)
16.11.2016 19:33 8,0 °C 8,0 °C 95 % 1019,3 hPa 0,0 mm 6,8 km/h (2 Bft) S-SW 197 ° 0 min 0,000 mm 0,0 UV-I 0 W/m² 7,2 °C 9,7 km/h (2 Bft)
16.11.2016 19:34 8,0 °C 8,0 °C 95 % 1019,3 hPa 0,0 mm 6,0 km/h (2 Bft) SW 225 ° 0 min 0,000 mm 0,0 UV-I 0 W/m² 7,2 °C 9,7 km/h (2 Bft)
16.11.2016 19:35 7,9 °C 8,0 °C 95 % 1019,2 hPa 0,0 mm 5,7 km/h (1 Bft) S-SW 199 ° 0 min 0,000 mm 0,0 UV-I 0 W/m² 7,1 °C 12,9 km/h (3 Bft)
16.11.2016 19:36 8,0 °C 8,0 °C 95 % 1019,2 hPa 0,0 mm 4,3 km/h (1 Bft) SW 219 ° 0 min 0,000 mm 0,0 UV-I 0 W/m² 7,2 °C 8,0 km/h (2 Bft)
16.11.2016 19:37 7,9 °C 8,0 °C 95 % 1019,2 hPa 0,0 mm 6,4 km/h (2 Bft) S-SW 203 ° 0 min 0,000 mm 0,0 UV-I 0 W/m² 7,1 °C 9,7 km/h (2 Bft)
16.11.2016 19:38 7,9 °C 7,9 °C 95 % 1019,2 hPa 0,0 mm 4,9 km/h (1 Bft) S-SW 196 ° 0 min 0,000 mm 0,0 UV-I 0 W/m² 7,1 °C 12,9 km/h (3 Bft)
16.11.2016 19:39 7,9 °C 8,0 °C 95 % 1019,2 hPa 0,0 mm 4,6 km/h (1 Bft) S 190 ° 0 min 0,000 mm 0,0 UV-I 0 W/m² 7,1 °C 9,7 km/h (2 Bft)
16.11.2016 19:40 7,9 °C 7,9 °C 95 % 1019,2 hPa 0,0 mm 6,3 km/h (2 Bft) S-SW 194 ° 0 min 0,000 mm 0,0 UV-I 0 W/m² 7,1 °C 9,7 km/h (2 Bft)
16.11.2016 19:41 7,9 °C 7,9 °C 95 % 1019,2 hPa 0,0 mm 3,4 km/h (1 Bft) S-SW 196 ° 0 min 0,000 mm 0,0 UV-I 0 W/m² 7,1 °C 4,8 km/h (1 Bft)
16.11.2016 19:42 7,9 °C 7,9 °C 95 % 1019,1 hPa 0,0 mm 3,5 km/h (1 Bft) S 185 ° 0 min 0,000 mm 0,0 UV-I 0 W/m² 7,1 °C 4,8 km/h (1 Bft)
16.11.2016 19:43 7,9 °C 7,9 °C 95 % 1019,1 hPa 0,0 mm 2,0 km/h (1 Bft) S 185 ° 0 min 0,000 mm 0,0 UV-I 0 W/m² 7,1 °C 3,2 km/h (1 Bft)
16.11.2016 19:44 7,9 °C 7,9 °C 95 % 1019,1 hPa 0,0 mm 3,6 km/h (1 Bft) S-SW 198 ° 0 min 0,000 mm 0,0 UV-I 0 W/m² 7,1 °C 4,8 km/h (1 Bft)
16.11.2016 19:45 7,9 °C 7,9 °C 95 % 1019,1 hPa 0,0 mm 7,0 km/h (2 Bft) SW 225 ° 0 min 0,000 mm 0,0 UV-I 0 W/m² 7,1 °C 11,3 km/h (2 Bft)
16.11.2016 19:46 7,9 °C 7,9 °C 95 % 1019,1 hPa 0,0 mm 4,4 km/h (1 Bft) SW 220 ° 0 min 0,000 mm 0,0 UV-I 0 W/m² 7,1 °C 6,4 km/h (2 Bft)
16.11.2016 19:47 7,9 °C 7,9 °C 95 % 1019,1 hPa 0,0 mm 5,1 km/h (1 Bft) S-SW 209 ° 0 min 0,000 mm 0,0 UV-I 0 W/m² 7,1 °C 11,3 km/h (2 Bft)
16.11.2016 19:48 7,9 °C 7,9 °C 95 % 1019,1 hPa 0,0 mm 4,8 km/h (1 Bft) S 175 ° 0 min 0,000 mm 0,0 UV-I 0 W/m² 7,1 °C 11,3 km/h (2 Bft)
16.11.2016 19:49 7,9 °C 7,9 °C 95 % 1019,1 hPa 0,0 mm 3,4 km/h (1 Bft) S-SW 211 ° 0 min 0,000 mm 0,0 UV-I 0 W/m² 7,1 °C 6,4 km/h (2 Bft)
16.11.2016 19:50 7,9 °C 7,9 °C 95 % 1019,1 hPa 0,0 mm 4,0 km/h (1 Bft) S 176 ° 0 min 0,000 mm 0,0 UV-I 0 W/m² 7,1 °C 4,8 km/h (1 Bft)
16.11.2016 19:51 7,9 °C 7,9 °C 95 % 1019,1 hPa 0,0 mm 4,3 km/h (1 Bft) SW 216 ° 0 min 0,000 mm 0,0 UV-I 0 W/m² 7,1 °C 8,0 km/h (2 Bft)
16.11.2016 19:52 7,9 °C 7,9 °C 95 % 1019,1 hPa 0,0 mm 3,8 km/h (1 Bft) S-SW 200 ° 0 min 0,000 mm 0,0 UV-I 0 W/m² 7,1 °C 6,4 km/h (2 Bft)
16.11.2016 19:53 7,9 °C 7,9 °C 95 % 1019,2 hPa 0,0 mm 3,4 km/h (1 Bft) S-SW 196 ° 0 min 0,000 mm 0,0 UV-I 0 W/m² 7,1 °C 4,8 km/h (1 Bft)
16.11.2016 19:54 7,9 °C 7,9 °C 95 % 1019,2 hPa 0,0 mm 3,8 km/h (1 Bft) SW 228 ° 0 min 0,000 mm 0,0 UV-I 0 W/m² 7,1 °C 4,8 km/h (1 Bft)
16.11.2016 19:55 7,9 °C 7,9 °C 95 % 1019,2 hPa 0,0 mm 4,4 km/h (1 Bft) S-SW 196 ° 0 min 0,000 mm 0,0 UV-I 0 W/m² 7,1 °C 6,4 km/h (2 Bft)
16.11.2016 19:56 7,9 °C 7,9 °C 95 % 1019,2 hPa 0,0 mm 4,0 km/h (1 Bft) S-SW 194 ° 0 min 0,000 mm 0,0 UV-I 0 W/m² 7,1 °C 4,8 km/h (1 Bft)
16.11.2016 19:57 7,9 °C 7,9 °C 95 % 1019,2 hPa 0,0 mm 6,3 km/h (2 Bft) S-SW 198 ° 0 min 0,000 mm 0,0 UV-I 0 W/m² 7,1 °C 9,7 km/h (2 Bft)
16.11.2016 19:58 7,9 °C 7,9 °C 95 % 1019,2 hPa 0,0 mm 6,2 km/h (2 Bft) S-SW 192 ° 0 min 0,000 mm 0,0 UV-I 0 W/m² 7,1 °C 9,7 km/h (2 Bft)
16.11.2016 19:59 7,9 °C 7,9 °C 94 % 1019,2 hPa 0,0 mm 4,7 km/h (1 Bft) S-SW 196 ° 0 min 0,000 mm 0,0 UV-I 0 W/m² 7,0 °C 8,0 km/h (2 Bft)
16.11.2016 20:00 7,8 °C 7,9 °C 94 % 1019,2 hPa 0,0 mm 6,1 km/h (2 Bft) S 186 ° 0 min 0,000 mm 0,0 UV-I 0 W/m² 6,9 °C 8,0 km/h (2 Bft)
16.11.2016 20:01 7,8 °C 7,9 °C 94 % 1019,3 hPa 0,0 mm 7,0 km/h (2 Bft) S-SO 168 ° 0 min 0,000 mm 0,0 UV-I 0 W/m² 6,9 °C 11,3 km/h (2 Bft)
16.11.2016 20:02 7,8 °C 7,9 °C 94 % 1019,2 hPa 0,0 mm 5,3 km/h (1 Bft) S 180 ° 0 min 0,000 mm 0,0 UV-I 0 W/m² 6,9 °C 8,0 km/h (2 Bft)
16.11.2016 20:03 7,8 °C 7,8 °C 94 % 1019,3 hPa 0,0 mm 5,3 km/h (1 Bft) S-SW 192 ° 0 min 0,000 mm 0,0 UV-I 0 W/m² 6,9 °C 8,0 km/h (2 Bft)
16.11.2016 20:04 7,8 °C 7,8 °C 94 % 1019,4 hPa 0,0 mm 4,2 km/h (1 Bft) S-SW 194 ° 0 min 0,000 mm 0,0 UV-I 0 W/m² 6,9 °C 6,4 km/h (2 Bft)
16.11.2016 20:05 7,8 °C 7,8 °C 94 % 1019,3 hPa 0,0 mm 3,6 km/h (1 Bft) S-SW 192 ° 0 min 0,000 mm 0,0 UV-I 0 W/m² 6,9 °C 6,4 km/h (2 Bft)
16.11.2016 20:06 7,8 °C 7,8 °C 94 % 1019,4 hPa 0,0 mm 4,6 km/h (1 Bft) S 186 ° 0 min 0,000 mm 0,0 UV-I 0 W/m² 6,9 °C 6,4 km/h (2 Bft)
16.11.2016 20:07 7,8 °C 7,8 °C 94 % 1019,3 hPa 0,0 mm 2,7 km/h (1 Bft) S 185 ° 0 min 0,000 mm 0,0 UV-I 0 W/m² 6,9 °C 4,8 km/h (1 Bft)
16.11.2016 20:08 7,8 °C 7,8 °C 94 % 1019,3 hPa 0,0 mm 4,1 km/h (1 Bft) S 189 ° 0 min 0,000 mm 0,0 UV-I 0 W/m² 6,9 °C 6,4 km/h (2 Bft)
16.11.2016 20:09 7,8 °C 7,8 °C 94 % 1019,3 hPa 0,0 mm 4,4 km/h (1 Bft) S-SW 200 ° 0 min 0,000 mm 0,0 UV-I 0 W/m² 6,9 °C 6,4 km/h (2 Bft)
16.11.2016 20:10 7,8 °C 7,8 °C 94 % 1019,3 hPa 0,0 mm 3,7 km/h (1 Bft) S 176 ° 0 min 0,000 mm 0,0 UV-I 0 W/m² 6,9 °C 6,4 km/h (2 Bft)
16.11.2016 20:11 7,8 °C 7,8 °C 94 % 1019,3 hPa 0,0 mm 3,5 km/h (1 Bft) S 176 ° 0 min 0,000 mm 0,0 UV-I 0 W/m² 6,9 °C 4,8 km/h (1 Bft)
16.11.2016 20:12 7,8 °C 7,8 °C 94 % 1019,3 hPa 0,0 mm 3,6 km/h (1 Bft) SW 226 ° 0 min 0,000 mm 0,0 UV-I 0 W/m² 6,9 °C 4,8 km/h (1 Bft)
16.11.2016 20:13 7,8 °C 7,8 °C 94 % 1019,3 hPa 0,0 mm 3,5 km/h (1 Bft) SW 218 ° 0 min 0,000 mm 0,0 UV-I 0 W/m² 6,9 °C 6,4 km/h (2 Bft)
16.11.2016 20:14 7,8 °C 7,8 °C 94 % 1019,3 hPa 0,0 mm 5,6 km/h (1 Bft) S-SW 196 ° 0 min 0,000 mm 0,0 UV-I 0 W/m² 6,9 °C 8,0 km/h (2 Bft)
16.11.2016 20:15 7,8 °C 7,8 °C 94 % 1019,2 hPa 0,2 mm 5,1 km/h (1 Bft) S 180 ° 0 min 0,000 mm 0,0 UV-I 0 W/m² 6,9 °C 6,4 km/h (2 Bft)
16.11.2016 20:16 7,8 °C 7,8 °C 95 % 1019,2 hPa 0,0 mm 4,8 km/h (1 Bft) S-SW 195 ° 0 min 0,000 mm 0,0 UV-I 0 W/m² 7,0 °C 6,4 km/h (2 Bft)
16.11.2016 20:17 7,8 °C 7,8 °C 95 % 1019,2 hPa 0,0 mm 2,3 km/h (1 Bft) S-SW 195 ° 0 min 0,000 mm 0,0 UV-I 0 W/m² 7,0 °C 4,8 km/h (1 Bft)
16.11.2016 20:18 7,8 °C 7,8 °C 95 % 1019,2 hPa 0,0 mm 4,0 km/h (1 Bft) S 182 ° 0 min 0,000 mm 0,0 UV-I 0 W/m² 7,0 °C 6,4 km/h (2 Bft)
16.11.2016 20:19 7,8 °C 7,9 °C 95 % 1019,2 hPa 0,0 mm 3,5 km/h (1 Bft) S 183 ° 0 min 0,000 mm 0,0 UV-I 0 W/m² 7,0 °C 4,8 km/h (1 Bft)
16.11.2016 20:20 7,8 °C 7,9 °C 95 % 1019,2 hPa 0,0 mm 4,0 km/h (1 Bft) SW 223 ° 0 min 0,000 mm 0,0 UV-I 0 W/m² 7,0 °C 8,0 km/h (2 Bft)
16.11.2016 20:21 7,8 °C 7,9 °C 95 % 1019,3 hPa 0,0 mm 4,6 km/h (1 Bft) S 190 ° 0 min 0,000 mm 0,0 UV-I 0 W/m² 7,0 °C 6,4 km/h (2 Bft)
16.11.2016 20:22 7,8 °C 7,9 °C 95 % 1019,2 hPa 0,0 mm 3,3 km/h (1 Bft) S-SW 196 ° 0 min 0,000 mm 0,0 UV-I 0 W/m² 7,0 °C 4,8 km/h (1 Bft)
16.11.2016 20:23 7,9 °C 7,9 °C 95 % 1019,2 hPa 0,0 mm 3,8 km/h (1 Bft) S-SW 198 ° 0 min 0,000 mm 0,0 UV-I 0 W/m² 7,1 °C 4,8 km/h (1 Bft)
16.11.2016 20:24 7,9 °C 7,9 °C 95 % 1019,2 hPa 0,0 mm 2,9 km/h (1 Bft) S 182 ° 0 min 0,000 mm 0,0 UV-I 0 W/m² 7,1 °C 4,8 km/h (1 Bft)
16.11.2016 20:25 7,9 °C 7,9 °C 95 % 1019,2 hPa 0,0 mm 3,0 km/h (1 Bft) S 186 ° 0 min 0,000 mm 0,0 UV-I 0 W/m² 7,1 °C 6,4 km/h (2 Bft)
16.11.2016 20:26 7,9 °C 7,9 °C 95 % 1019,2 hPa 0,0 mm 3,0 km/h (1 Bft) S 191 ° 0 min 0,000 mm 0,0 UV-I 0 W/m² 7,1 °C 6,4 km/h (2 Bft)
16.11.2016 20:27 7,9 °C 7,9 °C 95 % 1019,2 hPa 0,0 mm 3,4 km/h (1 Bft) S 186 ° 0 min 0,000 mm 0,0 UV-I 0 W/m² 7,1 °C 6,4 km/h (2 Bft)
16.11.2016 20:28 7,9 °C 7,9 °C 95 % 1019,2 hPa 0,2 mm 4,1 km/h (1 Bft) S 185 ° 0 min 0,000 mm 0,0 UV-I 0 W/m² 7,1 °C 6,4 km/h (2 Bft)
16.11.2016 20:29 8,0 °C 8,0 °C 95 % 1019,3 hPa 0,0 mm 4,6 km/h (1 Bft) S 177 ° 0 min 0,000 mm 0,0 UV-I 0 W/m² 7,2 °C 8,0 km/h (2 Bft)
16.11.2016 20:30 8,0 °C 8,0 °C 95 % 1019,2 hPa 0,0 mm 6,6 km/h (2 Bft) SW 226 ° 0 min 0,000 mm 0,0 UV-I 0 W/m² 7,2 °C 9,7 km/h (2 Bft)
16.11.2016 20:31 8,0 °C 8,0 °C 95 % 1019,2 hPa 0,0 mm 5,0 km/h (1 Bft) S-SW 209 ° 0 min 0,000 mm 0,0 UV-I 0 W/m² 7,2 °C 8,0 km/h (2 Bft)
16.11.2016 20:32 8,0 °C 8,0 °C 95 % 1019,2 hPa 0,0 mm 4,4 km/h (1 Bft) S-SW 198 ° 0 min 0,000 mm 0,0 UV-I 0 W/m² 7,2 °C 6,4 km/h (2 Bft)
16.11.2016 20:33 8,0 °C 8,0 °C 95 % 1019,2 hPa 0,0 mm 4,8 km/h (1 Bft) S-SW 203 ° 0 min 0,000 mm 0,0 UV-I 0 W/m² 7,2 °C 6,4 km/h (2 Bft)
16.11.2016 20:34 8,0 °C 8,0 °C 95 % 1019,2 hPa 0,0 mm 3,7 km/h (1 Bft) W-SW 240 ° 0 min 0,000 mm 0,0 UV-I 0 W/m² 7,2 °C 6,4 km/h (2 Bft)
16.11.2016 20:35 8,0 °C 8,0 °C 95 % 1019,2 hPa 0,0 mm 4,0 km/h (1 Bft) S-SW 205 ° 0 min 0,000 mm 0,0 UV-I 0 W/m² 7,2 °C 6,4 km/h (2 Bft)
16.11.2016 20:36 8,0 °C 8,0 °C 95 % 1019,2 hPa 0,0 mm 5,6 km/h (1 Bft) S-SW 194 ° 0 min 0,000 mm 0,0 UV-I 0 W/m² 7,2 °C 8,0 km/h (2 Bft)
16.11.2016 20:37 8,0 °C 8,0 °C 95 % 1019,2 hPa 0,0 mm 5,9 km/h (2 Bft) S-SW 196 ° 0 min 0,000 mm 0,0 UV-I 0 W/m² 7,2 °C 9,7 km/h (2 Bft)
16.11.2016 20:38 8,0 °C 8,1 °C 95 % 1019,2 hPa 0,0 mm 7,0 km/h (2 Bft) S-SW 204 ° 0 min 0,000 mm 0,0 UV-I 0 W/m² 7,2 °C 11,3 km/h (2 Bft)
16.11.2016 20:39 8,0 °C 8,0 °C 95 % 1019,1 hPa 0,0 mm 5,4 km/h (1 Bft) S-SW 195 ° 0 min 0,000 mm 0,0 UV-I 0 W/m² 7,2 °C 8,0 km/h (2 Bft)
16.11.2016 20:40 8,0 °C 8,0 °C 95 % 1019,1 hPa 0,0 mm 5,6 km/h (1 Bft) S-SW 194 ° 0 min 0,000 mm 0,0 UV-I 0 W/m² 7,2 °C 9,7 km/h (2 Bft)
16.11.2016 20:41 8,0 °C 8,0 °C 95 % 1019,1 hPa 0,2 mm 4,6 km/h (1 Bft) W-SW 248 ° 0 min 0,000 mm 0,0 UV-I 0 W/m² 7,2 °C 8,0 km/h (2 Bft)
16.11.2016 20:42 8,0 °C 8,0 °C 95 % 1019,2 hPa 0,0 mm 3,3 km/h (1 Bft) SW 224 ° 0 min 0,000 mm 0,0 UV-I 0 W/m² 7,2 °C 4,8 km/h (1 Bft)
16.11.2016 20:43 8,0 °C 8,0 °C 95 % 1019,1 hPa 0,0 mm 2,6 km/h (1 Bft) W-SW 248 ° 0 min 0,000 mm 0,0 UV-I 0 W/m² 7,2 °C 4,8 km/h (1 Bft)
16.11.2016 20:44 8,0 °C 8,0 °C 95 % 1019,1 hPa 0,0 mm 4,1 km/h (1 Bft) S-SW 211 ° 0 min 0,000 mm 0,0 UV-I 0 W/m² 7,2 °C 6,4 km/h (2 Bft)
16.11.2016 20:45 8,0 °C 8,1 °C 95 % 1019,1 hPa 0,0 mm 3,0 km/h (1 Bft) S 180 ° 0 min 0,000 mm 0,0 UV-I 0 W/m² 7,2 °C 4,8 km/h (1 Bft)
16.11.2016 20:46 8,0 °C 8,1 °C 95 % 1019,1 hPa 0,0 mm 4,5 km/h (1 Bft) SW 215 ° 0 min 0,000 mm 0,0 UV-I 0 W/m² 7,2 °C 6,4 km/h (2 Bft)
16.11.2016 20:47 8,1 °C 8,1 °C 95 % 1019,1 hPa 0,0 mm 3,8 km/h (1 Bft) S-SW 212 ° 0 min 0,000 mm 0,0 UV-I 0 W/m² 7,3 °C 4,8 km/h (1 Bft)
16.11.2016 20:48 8,1 °C 8,1 °C 95 % 1019,1 hPa 0,0 mm 2,9 km/h (1 Bft) S-SW 205 ° 0 min 0,000 mm 0,0 UV-I 0 W/m² 7,3 °C 3,2 km/h (1 Bft)
16.11.2016 20:49 8,1 °C 8,1 °C 95 % 1019,1 hPa 0,0 mm 2,2 km/h (1 Bft) S-SW 205 ° 0 min 0,000 mm 0,0 UV-I 0 W/m² 7,3 °C 3,2 km/h (1 Bft)
16.11.2016 20:50 8,1 °C 8,1 °C 95 % 1019,1 hPa 0,0 mm 4,0 km/h (1 Bft) S-SW 205 ° 0 min 0,000 mm 0,0 UV-I 0 W/m² 7,3 °C 8,0 km/h (2 Bft)
16.11.2016 20:51 8,1 °C 8,1 °C 95 % 1019,1 hPa 0,0 mm 5,5 km/h (1 Bft) S-SW 192 ° 0 min 0,000 mm 0,0 UV-I 0 W/m² 7,3 °C 8,0 km/h (2 Bft)
16.11.2016 20:52 8,1 °C 8,1 °C 95 % 1019,1 hPa 0,2 mm 4,5 km/h (1 Bft) S-SW 196 ° 0 min 0,000 mm 0,0 UV-I 0 W/m² 7,3 °C 6,4 km/h (2 Bft)
16.11.2016 20:53 8,1 °C 8,1 °C 95 % 1019,1 hPa 0,0 mm 6,1 km/h (2 Bft) S-SW 205 ° 0 min 0,000 mm 0,0 UV-I 0 W/m² 7,3 °C 8,0 km/h (2 Bft)
16.11.2016 20:54 8,0 °C 8,1 °C 95 % 1019,1 hPa 0,0 mm 6,7 km/h (2 Bft) S-SW 200 ° 0 min 0,000 mm 0,0 UV-I 0 W/m² 7,2 °C 9,7 km/h (2 Bft)
16.11.2016 20:55 8,1 °C 8,1 °C 95 % 1019,0 hPa 0,0 mm 5,9 km/h (2 Bft) S 186 ° 0 min 0,000 mm 0,0 UV-I 0 W/m² 7,3 °C 8,0 km/h (2 Bft)
16.11.2016 20:56 8,0 °C 8,1 °C 95 % 1019,0 hPa 0,0 mm 5,7 km/h (1 Bft) S-SW 199 ° 0 min 0,000 mm 0,0 UV-I 0 W/m² 7,2 °C 8,0 km/h (2 Bft)
16.11.2016 20:57 8,0 °C 8,1 °C 95 % 1018,9 hPa 0,0 mm 6,0 km/h (2 Bft) S-SW 196 ° 0 min 0,000 mm 0,0 UV-I 0 W/m² 7,2 °C 9,7 km/h (2 Bft)
16.11.2016 20:58 8,0 °C 8,1 °C 95 % 1019,0 hPa 0,0 mm 5,0 km/h (1 Bft) S 191 ° 0 min 0,000 mm 0,0 UV-I 0 W/m² 7,2 °C 6,4 km/h (2 Bft)
16.11.2016 20:59 8,0 °C 8,1 °C 95 % 1019,0 hPa 0,0 mm 6,4 km/h (2 Bft) S 186 ° 0 min 0,000 mm 0,0 UV-I 0 W/m² 7,2 °C 9,7 km/h (2 Bft)
16.11.2016 21:00 8,1 °C 8,1 °C 95 % 1018,9 hPa 0,0 mm 5,8 km/h (2 Bft) S-SW 192 ° 0 min 0,000 mm 0,0 UV-I 0 W/m² 7,3 °C 8,0 km/h (2 Bft)
16.11.2016 21:01 8,0 °C 8,1 °C 95 % 1019,0 hPa 0,0 mm 7,1 km/h (2 Bft) S-SW 200 ° 0 min 0,000 mm 0,0 UV-I 0 W/m² 7,2 °C 9,7 km/h (2 Bft)
16.11.2016 21:02 8,0 °C 8,1 °C 95 % 1019,0 hPa 0,0 mm 6,1 km/h (2 Bft) W-SW 244 ° 0 min 0,000 mm 0,0 UV-I 0 W/m² 7,2 °C 9,7 km/h (2 Bft)
16.11.2016 21:03 8,0 °C 8,0 °C 95 % 1018,9 hPa 0,0 mm 5,0 km/h (1 Bft) SW 221 ° 0 min 0,000 mm 0,0 UV-I 0 W/m² 7,2 °C 8,0 km/h (2 Bft)
16.11.2016 21:04 8,0 °C 8,0 °C 95 % 1019,0 hPa 0,0 mm 6,5 km/h (2 Bft) S 189 ° 0 min 0,000 mm 0,0 UV-I 0 W/m² 7,2 °C 9,7 km/h (2 Bft)
16.11.2016 21:05 8,0 °C 8,0 °C 95 % 1018,9 hPa 0,0 mm 3,7 km/h (1 Bft) S-SW 194 ° 0 min 0,000 mm 0,0 UV-I 0 W/m² 7,2 °C 6,4 km/h (2 Bft)
16.11.2016 21:06 8,0 °C 8,0 °C 95 % 1019,0 hPa 0,0 mm 2,5 km/h (1 Bft) S-SW 194 ° 0 min 0,000 mm 0,0 UV-I 0 W/m² 7,2 °C 6,4 km/h (2 Bft)
16.11.2016 21:07 8,0 °C 8,0 °C 95 % 1018,9 hPa 0,0 mm 4,6 km/h (1 Bft) SW 219 ° 0 min 0,000 mm 0,0 UV-I 0 W/m² 7,2 °C 6,4 km/h (2 Bft)
16.11.2016 21:08 8,0 °C 8,0 °C 95 % 1018,9 hPa 0,0 mm 2,9 km/h (1 Bft) S 186 ° 0 min 0,000 mm 0,0 UV-I 0 W/m² 7,2 °C 4,8 km/h (1 Bft)
16.11.2016 21:09 8,0 °C 8,0 °C 95 % 1018,9 hPa 0,0 mm 2,0 km/h (1 Bft) S 186 ° 0 min 0,000 mm 0,0 UV-I 0 W/m² 7,2 °C 3,2 km/h (1 Bft)
16.11.2016 21:10 7,9 °C 8,0 °C 95 % 1018,9 hPa 0,0 mm 0,7 km/h (0 Bft) S 186 ° 0 min 0,000 mm 0,0 UV-I 0 W/m² 7,1 °C 1,6 km/h (1 Bft)
16.11.2016 21:11 7,9 °C 8,0 °C 95 % 1018,9 hPa 0,0 mm 1,1 km/h (1 Bft) S 186 ° 0 min 0,000 mm 0,0 UV-I 0 W/m² 7,1 °C 3,2 km/h (1 Bft)
16.11.2016 21:12 7,9 °C 8,0 °C 95 % 1018,9 hPa 0,0 mm 0,6 km/h (0 Bft) S 186 ° 0 min 0,000 mm 0,0 UV-I 0 W/m² 7,1 °C 1,6 km/h (1 Bft)
16.11.2016 21:13 7,9 °C 8,0 °C 95 % 1018,8 hPa 0,0 mm 1,3 km/h (1 Bft) S 186 ° 0 min 0,000 mm 0,0 UV-I 0 W/m² 7,1 °C 3,2 km/h (1 Bft)
16.11.2016 21:14 7,9 °C 8,0 °C 95 % 1018,8 hPa 0,0 mm 0,3 km/h (0 Bft) S 186 ° 0 min 0,000 mm 0,0 UV-I 0 W/m² 7,1 °C 1,6 km/h (1 Bft)
16.11.2016 21:15 7,9 °C 8,0 °C 95 % 1018,8 hPa 0,0 mm 2,7 km/h (1 Bft) S-SW 210 ° 0 min 0,000 mm 0,0 UV-I 0 W/m² 7,1 °C 4,8 km/h (1 Bft)
16.11.2016 21:16 7,9 °C 7,9 °C 95 % 1018,9 hPa 0,0 mm 3,6 km/h (1 Bft) S 191 ° 0 min 0,000 mm 0,0 UV-I 0 W/m² 7,1 °C 4,8 km/h (1 Bft)
16.11.2016 21:17 7,9 °C 7,9 °C 95 % 1018,8 hPa 0,0 mm 3,0 km/h (1 Bft) S 189 ° 0 min 0,000 mm 0,0 UV-I 0 W/m² 7,1 °C 4,8 km/h (1 Bft)
16.11.2016 21:18 7,9 °C 7,9 °C 95 % 1018,8 hPa 0,0 mm 3,0 km/h (1 Bft) S 189 ° 0 min 0,000 mm 0,0 UV-I 0 W/m² 7,1 °C 4,8 km/h (1 Bft)
16.11.2016 21:19 7,9 °C 7,9 °C 95 % 1018,8 hPa 0,0 mm 2,0 km/h (1 Bft) S 175 ° 0 min 0,000 mm 0,0 UV-I 0 W/m² 7,1 °C 3,2 km/h (1 Bft)
16.11.2016 21:20 7,9 °C 7,9 °C 95 % 1018,8 hPa 0,0 mm 1,4 km/h (1 Bft) S 176 ° 0 min 0,000 mm 0,0 UV-I 0 W/m² 7,1 °C 3,2 km/h (1 Bft)
16.11.2016 21:21 7,9 °C 7,9 °C 95 % 1018,8 hPa 0,0 mm 2,2 km/h (1 Bft) S 176 ° 0 min 0,000 mm 0,0 UV-I 0 W/m² 7,1 °C 3,2 km/h (1 Bft)
16.11.2016 21:22 7,9 °C 7,9 °C 95 % 1018,8 hPa 0,0 mm 2,0 km/h (1 Bft) S 176 ° 0 min 0,000 mm 0,0 UV-I 0 W/m² 7,1 °C 3,2 km/h (1 Bft)
16.11.2016 21:23 7,9 °C 7,9 °C 95 % 1018,7 hPa 0,0 mm 2,7 km/h (1 Bft) S 176 ° 0 min 0,000 mm 0,0 UV-I 0 W/m² 7,1 °C 4,8 km/h (1 Bft)
16.11.2016 21:24 7,9 °C 7,9 °C 95 % 1018,8 hPa 0,0 mm 1,8 km/h (1 Bft) S 176 ° 0 min 0,000 mm 0,0 UV-I 0 W/m² 7,1 °C 3,2 km/h (1 Bft)
16.11.2016 21:25 7,9 °C 7,9 °C 95 % 1018,7 hPa 0,0 mm 3,5 km/h (1 Bft) S-SW 197 ° 0 min 0,000 mm 0,0 UV-I 0 W/m² 7,1 °C 4,8 km/h (1 Bft)
16.11.2016 21:26 7,9 °C 7,9 °C 95 % 1018,7 hPa 0,0 mm 2,5 km/h (1 Bft) S-SW 197 ° 0 min 0,000 mm 0,0 UV-I 0 W/m² 7,1 °C 4,8 km/h (1 Bft)
16.11.2016 21:27 7,9 °C 7,9 °C 95 % 1018,6 hPa 0,0 mm 3,2 km/h (1 Bft) S 179 ° 0 min 0,000 mm 0,0 UV-I 0 W/m² 7,1 °C 4,8 km/h (1 Bft)
16.11.2016 21:28 7,9 °C 7,9 °C 95 % 1018,6 hPa 0,0 mm 3,9 km/h (1 Bft) S 184 ° 0 min 0,000 mm 0,0 UV-I 0 W/m² 7,1 °C 6,4 km/h (2 Bft)
16.11.2016 21:29 7,9 °C 7,9 °C 95 % 1018,6 hPa 0,0 mm 3,3 km/h (1 Bft) S 179 ° 0 min 0,000 mm 0,0 UV-I 0 W/m² 7,1 °C 6,4 km/h (2 Bft)
16.11.2016 21:30 8,0 °C 8,0 °C 95 % 1018,6 hPa 0,0 mm 2,8 km/h (1 Bft) S-SO 150 ° 0 min 0,000 mm 0,0 UV-I 0 W/m² 7,2 °C 4,8 km/h (1 Bft)
16.11.2016 21:31 8,0 °C 8,0 °C 95 % 1018,6 hPa 0,0 mm 4,2 km/h (1 Bft) S 178 ° 0 min 0,000 mm 0,0 UV-I 0 W/m² 7,2 °C 6,4 km/h (2 Bft)
16.11.2016 21:32 8,0 °C 8,0 °C 95 % 1018,6 hPa 0,0 mm 2,8 km/h (1 Bft) S 180 ° 0 min 0,000 mm 0,0 UV-I 0 W/m² 7,2 °C 4,8 km/h (1 Bft)
16.11.2016 21:33 8,0 °C 8,0 °C 95 % 1018,5 hPa 0,0 mm 1,1 km/h (1 Bft) S 180 ° 0 min 0,000 mm 0,0 UV-I 0 W/m² 7,2 °C 3,2 km/h (1 Bft)
16.11.2016 21:34 8,0 °C 8,0 °C 95 % 1018,5 hPa 0,0 mm 1,3 km/h (1 Bft) S 180 ° 0 min 0,000 mm 0,0 UV-I 0 W/m² 7,2 °C 3,2 km/h (1 Bft)
16.11.2016 21:35 8,0 °C 8,0 °C 95 % 1018,6 hPa 0,0 mm 1,2 km/h (1 Bft) S 180 ° 0 min 0,000 mm 0,0 UV-I 0 W/m² 7,2 °C 3,2 km/h (1 Bft)
16.11.2016 21:36 8,0 °C 8,0 °C 95 % 1018,5 hPa 0,0 mm 0,1 km/h (0 Bft) S 180 ° 0 min 0,000 mm 0,0 UV-I 0 W/m² 7,2 °C 1,6 km/h (1 Bft)
16.11.2016 21:37 8,0 °C 8,0 °C 95 % 1018,5 hPa 0,0 mm 1,1 km/h (1 Bft) S 180 ° 0 min 0,000 mm 0,0 UV-I 0 W/m² 7,2 °C 1,6 km/h (1 Bft)
16.11.2016 21:38 8,0 °C 8,0 °C 95 % 1018,5 hPa 0,0 mm 0,8 km/h (0 Bft) S 180 ° 0 min 0,000 mm 0,0 UV-I 0 W/m² 7,2 °C 1,6 km/h (1 Bft)
16.11.2016 21:39 8,0 °C 8,0 °C 95 % 1018,5 hPa 0,0 mm 0,6 km/h (0 Bft) S 180 ° 0 min 0,000 mm 0,0 UV-I 0 W/m² 7,2 °C 1,6 km/h (1 Bft)
16.11.2016 21:40 8,0 °C 8,0 °C 95 % 1018,5 hPa 0,0 mm 1,2 km/h (1 Bft) S 180 ° 0 min 0,000 mm 0,0 UV-I 0 W/m² 7,2 °C 1,6 km/h (1 Bft)
16.11.2016 21:41 8,0 °C 8,0 °C 95 % 1018,5 hPa 0,0 mm 1,3 km/h (1 Bft) S 180 ° 0 min 0,000 mm 0,0 UV-I 0 W/m² 7,2 °C 1,6 km/h (1 Bft)
16.11.2016 21:42 8,0 °C 8,0 °C 95 % 1018,5 hPa 0,0 mm 0,9 km/h (0 Bft) S 180 ° 0 min 0,000 mm 0,0 UV-I 0 W/m² 7,2 °C 1,6 km/h (1 Bft)
16.11.2016 21:43 7,9 °C 8,0 °C 95 % 1018,5 hPa 0,0 mm 0,4 km/h (0 Bft) S 180 ° 0 min 0,000 mm 0,0 UV-I 0 W/m² 7,1 °C 1,6 km/h (1 Bft)
16.11.2016 21:44 8,0 °C 8,0 °C 95 % 1018,4 hPa 0,0 mm 0,3 km/h (0 Bft) S 180 ° 0 min 0,000 mm 0,0 UV-I 0 W/m² 7,2 °C 1,6 km/h (1 Bft)
16.11.2016 21:45 8,0 °C 8,0 °C 95 % 1018,5 hPa 0,0 mm 0,1 km/h (0 Bft) S 180 ° 0 min 0,000 mm 0,0 UV-I 0 W/m² 7,2 °C 1,6 km/h (1 Bft)
16.11.2016 21:46 7,9 °C 8,0 °C 95 % 1018,5 hPa 0,0 mm 0,3 km/h (0 Bft) S 180 ° 0 min 0,000 mm 0,0 UV-I 0 W/m² 7,1 °C 1,6 km/h (1 Bft)
16.11.2016 21:47 8,0 °C 8,0 °C 95 % 1018,5 hPa 0,0 mm 0,7 km/h (0 Bft) S 180 ° 0 min 0,000 mm 0,0 UV-I 0 W/m² 7,2 °C 1,6 km/h (1 Bft)
16.11.2016 21:48 8,0 °C 8,0 °C 95 % 1018,5 hPa 0,0 mm 0,2 km/h (0 Bft) S 180 ° 0 min 0,000 mm 0,0 UV-I 0 W/m² 7,2 °C 1,6 km/h (1 Bft)
16.11.2016 21:49 8,0 °C 8,0 °C 95 % 1018,5 hPa 0,0 mm 0,5 km/h (0 Bft) S 180 ° 0 min 0,000 mm 0,0 UV-I 0 W/m² 7,2 °C 1,6 km/h (1 Bft)
16.11.2016 21:50 7,9 °C 8,0 °C 95 % 1018,5 hPa 0,0 mm 2,9 km/h (1 Bft) S-SW 203 ° 0 min 0,000 mm 0,0 UV-I 0 W/m² 7,1 °C 3,2 km/h (1 Bft)
16.11.2016 21:51 7,9 °C 8,0 °C 95 % 1018,5 hPa 0,0 mm 2,9 km/h (1 Bft) S-SW 203 ° 0 min 0,000 mm 0,0 UV-I 0 W/m² 7,1 °C 3,2 km/h (1 Bft)
16.11.2016 21:52 7,9 °C 8,0 °C 95 % 1018,4 hPa 0,0 mm 2,3 km/h (1 Bft) S-SW 203 ° 0 min 0,000 mm 0,0 UV-I 0 W/m² 7,1 °C 3,2 km/h (1 Bft)
16.11.2016 21:53 7,9 °C 7,9 °C 95 % 1018,5 hPa 0,0 mm 3,0 km/h (1 Bft) S-SW 203 ° 0 min 0,000 mm 0,0 UV-I 0 W/m² 7,1 °C 3,2 km/h (1 Bft)
16.11.2016 21:54 7,9 °C 7,9 °C 95 % 1018,5 hPa 0,0 mm 2,3 km/h (1 Bft) S-SW 203 ° 0 min 0,000 mm 0,0 UV-I 0 W/m² 7,1 °C 4,8 km/h (1 Bft)
16.11.2016 21:55 7,9 °C 7,9 °C 95 % 1018,5 hPa 0,0 mm 0,5 km/h (0 Bft) S-SW 203 ° 0 min 0,000 mm 0,0 UV-I 0 W/m² 7,1 °C 3,2 km/h (1 Bft)
16.11.2016 21:56 7,9 °C 7,9 °C 95 % 1018,5 hPa 0,0 mm 0,1 km/h (0 Bft) S-SW 203 ° 0 min 0,000 mm 0,0 UV-I 0 W/m² 7,1 °C 1,6 km/h (1 Bft)
16.11.2016 21:57 7,9 °C 7,9 °C 95 % 1018,4 hPa 0,0 mm 0,0 km/h (0 Bft) S-SW 203 ° 0 min 0,000 mm 0,0 UV-I 0 W/m² 7,1 °C 0,0 km/h (0 Bft)
16.11.2016 21:58 7,9 °C 7,9 °C 95 % 1018,4 hPa 0,0 mm 0,0 km/h (0 Bft) S-SW 203 ° 0 min 0,000 mm 0,0 UV-I 0 W/m² 7,1 °C 0,0 km/h (0 Bft)
16.11.2016 21:59 7,9 °C 7,9 °C 95 % 1018,4 hPa 0,0 mm 0,0 km/h (0 Bft) S-SW 203 ° 0 min 0,000 mm 0,0 UV-I 0 W/m² 7,1 °C 0,0 km/h (0 Bft)
16.11.2016 22:00 7,9 °C 7,9 °C 95 % 1018,4 hPa 0,0 mm 0,0 km/h (0 Bft) S-SW 203 ° 0 min 0,000 mm 0,0 UV-I 0 W/m² 7,1 °C 0,0 km/h (0 Bft)
16.11.2016 22:01 7,8 °C 7,9 °C 95 % 1018,4 hPa 0,0 mm 0,0 km/h (0 Bft) S-SW 203 ° 0 min 0,000 mm 0,0 UV-I 0 W/m² 7,0 °C 0,0 km/h (0 Bft)
16.11.2016 22:02 7,9 °C 7,9 °C 95 % 1018,4 hPa 0,0 mm 0,3 km/h (0 Bft) S-SW 203 ° 0 min 0,000 mm 0,0 UV-I 0 W/m² 7,1 °C 1,6 km/h (1 Bft)
16.11.2016 22:03 7,8 °C 7,9 °C 95 % 1018,4 hPa 0,0 mm 2,3 km/h (1 Bft) S-SW 203 ° 0 min 0,000 mm 0,0 UV-I 0 W/m² 7,0 °C 3,2 km/h (1 Bft)
16.11.2016 22:04 7,8 °C 7,9 °C 95 % 1018,4 hPa 0,0 mm 2,0 km/h (1 Bft) S-SW 203 ° 0 min 0,000 mm 0,0 UV-I 0 W/m² 7,0 °C 4,8 km/h (1 Bft)
16.11.2016 22:05 7,8 °C 7,8 °C 95 % 1018,4 hPa 0,0 mm 2,7 km/h (1 Bft) S-SW 203 ° 0 min 0,000 mm 0,0 UV-I 0 W/m² 7,0 °C 3,2 km/h (1 Bft)
16.11.2016 22:06 7,8 °C 7,8 °C 95 % 1018,4 hPa 0,0 mm 3,4 km/h (1 Bft) SW 221 ° 0 min 0,000 mm 0,0 UV-I 0 W/m² 7,0 °C 4,8 km/h (1 Bft)
16.11.2016 22:07 7,8 °C 7,8 °C 95 % 1018,4 hPa 0,0 mm 2,0 km/h (1 Bft) SW 221 ° 0 min 0,000 mm 0,0 UV-I 0 W/m² 7,0 °C 3,2 km/h (1 Bft)
16.11.2016 22:08 7,8 °C 7,8 °C 95 % 1018,4 hPa 0,0 mm 3,5 km/h (1 Bft) S-SW 209 ° 0 min 0,000 mm 0,0 UV-I 0 W/m² 7,0 °C 4,8 km/h (1 Bft)
16.11.2016 22:09 7,8 °C 7,8 °C 95 % 1018,4 hPa 0,0 mm 4,3 km/h (1 Bft) S-SW 204 ° 0 min 0,000 mm 0,0 UV-I 0 W/m² 7,0 °C 4,8 km/h (1 Bft)
16.11.2016 22:10 7,8 °C 7,8 °C 95 % 1018,4 hPa 0,0 mm 4,7 km/h (1 Bft) S 188 ° 0 min 0,000 mm 0,0 UV-I 0 W/m² 7,0 °C 6,4 km/h (2 Bft)
16.11.2016 22:11 7,8 °C 7,8 °C 95 % 1018,4 hPa 0,0 mm 4,8 km/h (1 Bft) S 188 ° 0 min 0,000 mm 0,0 UV-I 0 W/m² 7,0 °C 6,4 km/h (2 Bft)
16.11.2016 22:12 7,8 °C 7,8 °C 95 % 1018,4 hPa 0,0 mm 2,2 km/h (1 Bft) S 188 ° 0 min 0,000 mm 0,0 UV-I 0 W/m² 7,0 °C 4,8 km/h (1 Bft)
16.11.2016 22:13 7,8 °C 7,8 °C 95 % 1018,4 hPa 0,0 mm 3,6 km/h (1 Bft) S 188 ° 0 min 0,000 mm 0,0 UV-I 0 W/m² 7,0 °C 4,8 km/h (1 Bft)
16.11.2016 22:14 7,8 °C 7,8 °C 95 % 1018,4 hPa 0,0 mm 3,0 km/h (1 Bft) S 188 ° 0 min 0,000 mm 0,0 UV-I 0 W/m² 7,0 °C 4,8 km/h (1 Bft)
16.11.2016 22:15 7,8 °C 7,8 °C 95 % 1018,4 hPa 0,0 mm 1,7 km/h (1 Bft) S 188 ° 0 min 0,000 mm 0,0 UV-I 0 W/m² 7,0 °C 3,2 km/h (1 Bft)
16.11.2016 22:16 7,8 °C 7,8 °C 95 % 1018,4 hPa 0,0 mm 4,7 km/h (1 Bft) S 189 ° 0 min 0,000 mm 0,0 UV-I 0 W/m² 7,0 °C 6,4 km/h (2 Bft)
16.11.2016 22:17 7,8 °C 7,8 °C 95 % 1018,3 hPa 0,0 mm 6,2 km/h (2 Bft) S 188 ° 0 min 0,000 mm 0,0 UV-I 0 W/m² 7,0 °C 8,0 km/h (2 Bft)
16.11.2016 22:18 7,7 °C 7,8 °C 95 % 1018,3 hPa 0,0 mm 4,0 km/h (1 Bft) S 174 ° 0 min 0,000 mm 0,0 UV-I 0 W/m² 7,0 °C 6,4 km/h (2 Bft)
16.11.2016 22:19 7,7 °C 7,8 °C 95 % 1018,3 hPa 0,0 mm 1,6 km/h (1 Bft) S 174 ° 0 min 0,000 mm 0,0 UV-I 0 W/m² 7,0 °C 3,2 km/h (1 Bft)
16.11.2016 22:20 7,7 °C 7,8 °C 95 % 1018,2 hPa 0,0 mm 0,8 km/h (0 Bft) S 174 ° 0 min 0,000 mm 0,0 UV-I 0 W/m² 7,0 °C 3,2 km/h (1 Bft)
16.11.2016 22:21 7,7 °C 7,8 °C 95 % 1018,2 hPa 0,0 mm 2,2 km/h (1 Bft) S 174 ° 0 min 0,000 mm 0,0 UV-I 0 W/m² 7,0 °C 4,8 km/h (1 Bft)
16.11.2016 22:22 7,7 °C 7,7 °C 95 % 1018,2 hPa 0,0 mm 1,9 km/h (1 Bft) S 174 ° 0 min 0,000 mm 0,0 UV-I 0 W/m² 7,0 °C 3,2 km/h (1 Bft)
16.11.2016 22:23 7,7 °C 7,7 °C 95 % 1018,2 hPa 0,0 mm 1,4 km/h (1 Bft) S 174 ° 0 min 0,000 mm 0,0 UV-I 0 W/m² 7,0 °C 3,2 km/h (1 Bft)
16.11.2016 22:24 7,7 °C 7,7 °C 95 % 1018,2 hPa 0,0 mm 1,8 km/h (1 Bft) S 174 ° 0 min 0,000 mm 0,0 UV-I 0 W/m² 7,0 °C 3,2 km/h (1 Bft)
16.11.2016 22:25 7,7 °C 7,7 °C 95 % 1018,2 hPa 0,0 mm 2,1 km/h (1 Bft) S 174 ° 0 min 0,000 mm 0,0 UV-I 0 W/m² 7,0 °C 3,2 km/h (1 Bft)
16.11.2016 22:26 7,7 °C 7,7 °C 95 % 1018,3 hPa 0,0 mm 1,6 km/h (1 Bft) S 175 ° 0 min 0,000 mm 0,0 UV-I 0 W/m² 7,0 °C 3,2 km/h (1 Bft)
16.11.2016 22:27 7,6 °C 7,7 °C 95 % 1018,2 hPa 0,0 mm 2,7 km/h (1 Bft) S 175 ° 0 min 0,000 mm 0,0 UV-I 0 W/m² 6,9 °C 4,8 km/h (1 Bft)
16.11.2016 22:28 7,6 °C 7,7 °C 95 % 1018,2 hPa 0,0 mm 1,6 km/h (1 Bft) S 175 ° 0 min 0,000 mm 0,0 UV-I 0 W/m² 6,9 °C 3,2 km/h (1 Bft)
16.11.2016 22:29 7,6 °C 7,6 °C 95 % 1018,2 hPa 0,0 mm 3,4 km/h (1 Bft) S 188 ° 0 min 0,000 mm 0,0 UV-I 0 W/m² 6,9 °C 4,8 km/h (1 Bft)
16.11.2016 22:30 7,6 °C 7,6 °C 95 % 1018,2 hPa 0,0 mm 1,7 km/h (1 Bft) S 188 ° 0 min 0,000 mm 0,0 UV-I 0 W/m² 6,9 °C 3,2 km/h (1 Bft)
16.11.2016 22:31 7,6 °C 7,6 °C 95 % 1018,2 hPa 0,0 mm 1,9 km/h (1 Bft) S 188 ° 0 min 0,000 mm 0,0 UV-I 0 W/m² 6,9 °C 3,2 km/h (1 Bft)
16.11.2016 22:32 7,6 °C 7,6 °C 95 % 1018,2 hPa 0,0 mm 1,5 km/h (1 Bft) S 188 ° 0 min 0,000 mm 0,0 UV-I 0 W/m² 6,9 °C 3,2 km/h (1 Bft)
16.11.2016 22:33 7,6 °C 7,6 °C 95 % 1018,3 hPa 0,0 mm 0,7 km/h (0 Bft) S 188 ° 0 min 0,000 mm 0,0 UV-I 0 W/m² 6,9 °C 3,2 km/h (1 Bft)
16.11.2016 22:34 7,6 °C 7,6 °C 95 % 1018,2 hPa 0,0 mm 0,7 km/h (0 Bft) S 188 ° 0 min 0,000 mm 0,0 UV-I 0 W/m² 6,9 °C 3,2 km/h (1 Bft)
16.11.2016 22:35 7,6 °C 7,6 °C 95 % 1018,2 hPa 0,0 mm 1,6 km/h (1 Bft) S 188 ° 0 min 0,000 mm 0,0 UV-I 0 W/m² 6,9 °C 3,2 km/h (1 Bft)
16.11.2016 22:36 7,5 °C 7,6 °C 95 % 1018,3 hPa 0,0 mm 2,1 km/h (1 Bft) S 188 ° 0 min 0,000 mm 0,0 UV-I 0 W/m² 6,8 °C 3,2 km/h (1 Bft)
16.11.2016 22:37 7,5 °C 7,5 °C 95 % 1018,2 hPa 0,0 mm 2,2 km/h (1 Bft) S 186 ° 0 min 0,000 mm 0,0 UV-I 0 W/m² 6,8 °C 3,2 km/h (1 Bft)
16.11.2016 22:38 7,4 °C 7,5 °C 95 % 1018,3 hPa 0,0 mm 1,3 km/h (1 Bft) S 186 ° 0 min 0,000 mm 0,0 UV-I 0 W/m² 6,7 °C 3,2 km/h (1 Bft)
16.11.2016 22:39 7,4 °C 7,5 °C 95 % 1018,3 hPa 0,0 mm 1,9 km/h (1 Bft) S 186 ° 0 min 0,000 mm 0,0 UV-I 0 W/m² 6,7 °C 3,2 km/h (1 Bft)
16.11.2016 22:40 7,4 °C 7,4 °C 95 % 1018,2 hPa 0,0 mm 3,2 km/h (1 Bft) S 187 ° 0 min 0,000 mm 0,0 UV-I 0 W/m² 6,7 °C 4,8 km/h (1 Bft)
16.11.2016 22:41 7,4 °C 7,4 °C 95 % 1018,2 hPa 0,0 mm 2,4 km/h (1 Bft) S 187 ° 0 min 0,000 mm 0,0 UV-I 0 W/m² 6,7 °C 4,8 km/h (1 Bft)
16.11.2016 22:42 7,4 °C 7,4 °C 95 % 1018,1 hPa 0,0 mm 2,1 km/h (1 Bft) S 187 ° 0 min 0,000 mm 0,0 UV-I 0 W/m² 6,7 °C 3,2 km/h (1 Bft)
16.11.2016 22:43 7,4 °C 7,4 °C 95 % 1018,1 hPa 0,0 mm 1,1 km/h (1 Bft) S 186 ° 0 min 0,000 mm 0,0 UV-I 0 W/m² 6,7 °C 3,2 km/h (1 Bft)
16.11.2016 22:44 7,4 °C 7,4 °C 95 % 1018,2 hPa 0,0 mm 4,0 km/h (1 Bft) S 180 ° 0 min 0,000 mm 0,0 UV-I 0 W/m² 6,7 °C 8,0 km/h (2 Bft)
16.11.2016 22:45 7,4 °C 7,4 °C 95 % 1018,1 hPa 0,0 mm 6,2 km/h (2 Bft) SW 215 ° 0 min 0,000 mm 0,0 UV-I 0 W/m² 6,7 °C 8,0 km/h (2 Bft)
16.11.2016 22:46 7,4 °C 7,4 °C 95 % 1018,1 hPa 0,0 mm 4,5 km/h (1 Bft) S 188 ° 0 min 0,000 mm 0,0 UV-I 0 W/m² 6,7 °C 6,4 km/h (2 Bft)
16.11.2016 22:47 7,4 °C 7,4 °C 95 % 1018,0 hPa 0,0 mm 4,1 km/h (1 Bft) S 182 ° 0 min 0,000 mm 0,0 UV-I 0 W/m² 6,7 °C 6,4 km/h (2 Bft)
16.11.2016 22:48 7,4 °C 7,4 °C 95 % 1018,0 hPa 0,0 mm 4,5 km/h (1 Bft) S-SW 196 ° 0 min 0,000 mm 0,0 UV-I 0 W/m² 6,7 °C 6,4 km/h (2 Bft)
16.11.2016 22:49 7,4 °C 7,4 °C 95 % 1018,0 hPa 0,0 mm 4,2 km/h (1 Bft) S-SW 200 ° 0 min 0,000 mm 0,0 UV-I 0 W/m² 6,7 °C 6,4 km/h (2 Bft)
16.11.2016 22:50 7,4 °C 7,4 °C 95 % 1018,0 hPa 0,0 mm 6,2 km/h (2 Bft) S 182 ° 0 min 0,000 mm 0,0 UV-I 0 W/m² 6,7 °C 9,7 km/h (2 Bft)
16.11.2016 22:51 7,5 °C 7,5 °C 95 % 1018,0 hPa 0,0 mm 6,1 km/h (2 Bft) S 182 ° 0 min 0,000 mm 0,0 UV-I 0 W/m² 6,8 °C 9,7 km/h (2 Bft)
16.11.2016 22:52 7,5 °C 7,5 °C 95 % 1018,0 hPa 0,0 mm 6,7 km/h (2 Bft) S 186 ° 0 min 0,000 mm 0,0 UV-I 0 W/m² 6,8 °C 9,7 km/h (2 Bft)
16.11.2016 22:53 7,5 °C 7,5 °C 95 % 1018,0 hPa 0,0 mm 6,5 km/h (2 Bft) S 188 ° 0 min 0,000 mm 0,0 UV-I 0 W/m² 6,8 °C 9,7 km/h (2 Bft)
16.11.2016 22:54 7,5 °C 7,5 °C 95 % 1017,9 hPa 0,0 mm 7,0 km/h (2 Bft) S-SW 204 ° 0 min 0,000 mm 0,0 UV-I 0 W/m² 6,8 °C 9,7 km/h (2 Bft)
16.11.2016 22:55 7,5 °C 7,5 °C 95 % 1018,0 hPa 0,0 mm 4,9 km/h (1 Bft) S 186 ° 0 min 0,000 mm 0,0 UV-I 0 W/m² 6,8 °C 6,4 km/h (2 Bft)
16.11.2016 22:56 7,5 °C 7,5 °C 95 % 1017,9 hPa 0,0 mm 5,1 km/h (1 Bft) S-SW 210 ° 0 min 0,000 mm 0,0 UV-I 0 W/m² 6,8 °C 6,4 km/h (2 Bft)
16.11.2016 22:57 7,5 °C 7,6 °C 95 % 1017,9 hPa 0,0 mm 5,1 km/h (1 Bft) S 187 ° 0 min 0,000 mm 0,0 UV-I 0 W/m² 6,8 °C 6,4 km/h (2 Bft)
16.11.2016 22:58 7,6 °C 7,6 °C 95 % 1017,9 hPa 0,0 mm 7,4 km/h (2 Bft) S-SW 194 ° 0 min 0,000 mm 0,0 UV-I 0 W/m² 6,9 °C 11,3 km/h (2 Bft)
16.11.2016 22:59 7,6 °C 7,6 °C 95 % 1017,9 hPa 0,0 mm 6,1 km/h (2 Bft) S 186 ° 0 min 0,000 mm 0,0 UV-I 0 W/m² 6,9 °C 9,7 km/h (2 Bft)
16.11.2016 23:00 7,6 °C 7,6 °C 95 % 1017,9 hPa 0,0 mm 5,0 km/h (1 Bft) S 180 ° 0 min 0,000 mm 0,0 UV-I 0 W/m² 6,9 °C 6,4 km/h (2 Bft)
16.11.2016 23:01 7,6 °C 7,6 °C 95 % 1017,9 hPa 0,0 mm 6,8 km/h (2 Bft) S-SW 194 ° 0 min 0,000 mm 0,0 UV-I 0 W/m² 6,9 °C 9,7 km/h (2 Bft)
16.11.2016 23:02 7,5 °C 7,6 °C 95 % 1017,9 hPa 0,0 mm 6,9 km/h (2 Bft) S-SW 211 ° 0 min 0,000 mm 0,0 UV-I 0 W/m² 6,8 °C 8,0 km/h (2 Bft)
16.11.2016 23:03 7,5 °C 7,6 °C 95 % 1017,9 hPa 0,0 mm 6,2 km/h (2 Bft) S-SW 194 ° 0 min 0,000 mm 0,0 UV-I 0 W/m² 6,8 °C 8,0 km/h (2 Bft)
16.11.2016 23:04 7,6 °C 7,6 °C 95 % 1017,9 hPa 0,0 mm 6,6 km/h (2 Bft) S-SW 193 ° 0 min 0,000 mm 0,0 UV-I 0 W/m² 6,9 °C 9,7 km/h (2 Bft)
16.11.2016 23:05 7,5 °C 7,6 °C 95 % 1018,0 hPa 0,0 mm 7,1 km/h (2 Bft) S-SW 206 ° 0 min 0,000 mm 0,0 UV-I 0 W/m² 6,8 °C 9,7 km/h (2 Bft)
16.11.2016 23:06 7,5 °C 7,6 °C 95 % 1017,9 hPa 0,0 mm 4,8 km/h (1 Bft) SW 217 ° 0 min 0,000 mm 0,0 UV-I 0 W/m² 6,8 °C 9,7 km/h (2 Bft)
16.11.2016 23:07 7,5 °C 7,5 °C 95 % 1017,9 hPa 0,0 mm 4,8 km/h (1 Bft) S 177 ° 0 min 0,000 mm 0,0 UV-I 0 W/m² 6,8 °C 6,4 km/h (2 Bft)
16.11.2016 23:08 7,5 °C 7,6 °C 95 % 1017,9 hPa 0,0 mm 4,5 km/h (1 Bft) S-SW 202 ° 0 min 0,000 mm 0,0 UV-I 0 W/m² 6,8 °C 6,4 km/h (2 Bft)
16.11.2016 23:09 7,5 °C 7,5 °C 95 % 1017,9 hPa 0,0 mm 4,4 km/h (1 Bft) S 183 ° 0 min 0,000 mm 0,0 UV-I 0 W/m² 6,8 °C 6,4 km/h (2 Bft)
16.11.2016 23:10 7,5 °C 7,5 °C 95 % 1017,9 hPa 0,0 mm 5,0 km/h (1 Bft) W-SW 240 ° 0 min 0,000 mm 0,0 UV-I 0 W/m² 6,8 °C 6,4 km/h (2 Bft)
16.11.2016 23:11 7,5 °C 7,5 °C 95 % 1017,9 hPa 0,0 mm 3,6 km/h (1 Bft) S-SW 209 ° 0 min 0,000 mm 0,0 UV-I 0 W/m² 6,8 °C 4,8 km/h (1 Bft)
16.11.2016 23:12 7,5 °C 7,5 °C 95 % 1017,9 hPa 0,0 mm 4,5 km/h (1 Bft) S-SW 212 ° 0 min 0,000 mm 0,0 UV-I 0 W/m² 6,8 °C 6,4 km/h (2 Bft)
16.11.2016 23:13 7,5 °C 7,5 °C 95 % 1017,9 hPa 0,0 mm 4,6 km/h (1 Bft) S-SW 202 ° 0 min 0,000 mm 0,0 UV-I 0 W/m² 6,8 °C 6,4 km/h (2 Bft)
16.11.2016 23:14 7,4 °C 7,5 °C 95 % 1017,9 hPa 0,0 mm 3,8 km/h (1 Bft) S-SW 200 ° 0 min 0,000 mm 0,0 UV-I 0 W/m² 6,7 °C 4,8 km/h (1 Bft)
16.11.2016 23:15 7,5 °C 7,5 °C 95 % 1017,9 hPa 0,0 mm 4,7 km/h (1 Bft) S 186 ° 0 min 0,000 mm 0,0 UV-I 0 W/m² 6,8 °C 9,7 km/h (2 Bft)
16.11.2016 23:16 7,4 °C 7,5 °C 95 % 1017,9 hPa 0,0 mm 6,5 km/h (2 Bft) S-SW 200 ° 0 min 0,000 mm 0,0 UV-I 0 W/m² 6,7 °C 8,0 km/h (2 Bft)
16.11.2016 23:17 7,4 °C 7,4 °C 95 % 1017,9 hPa 0,0 mm 4,5 km/h (1 Bft) S-SO 159 ° 0 min 0,000 mm 0,0 UV-I 0 W/m² 6,7 °C 6,4 km/h (2 Bft)
16.11.2016 23:18 7,4 °C 7,4 °C 95 % 1017,9 hPa 0,0 mm 7,0 km/h (2 Bft) S-SW 200 ° 0 min 0,000 mm 0,0 UV-I 0 W/m² 6,7 °C 9,7 km/h (2 Bft)
16.11.2016 23:19 7,4 °C 7,4 °C 95 % 1017,9 hPa 0,0 mm 5,5 km/h (1 Bft) S 175 ° 0 min 0,000 mm 0,0 UV-I 0 W/m² 6,7 °C 8,0 km/h (2 Bft)
16.11.2016 23:20 7,4 °C 7,4 °C 95 % 1017,9 hPa 0,0 mm 3,4 km/h (1 Bft) S 188 ° 0 min 0,000 mm 0,0 UV-I 0 W/m² 6,7 °C 6,4 km/h (2 Bft)
16.11.2016 23:21 7,4 °C 7,4 °C 95 % 1017,9 hPa 0,0 mm 5,6 km/h (1 Bft) S 180 ° 0 min 0,000 mm 0,0 UV-I 0 W/m² 6,7 °C 9,7 km/h (2 Bft)
16.11.2016 23:22 7,4 °C 7,4 °C 95 % 1017,9 hPa 0,0 mm 4,3 km/h (1 Bft) SW 216 ° 0 min 0,000 mm 0,0 UV-I 0 W/m² 6,7 °C 4,8 km/h (1 Bft)
16.11.2016 23:23 7,4 °C 7,4 °C 95 % 1017,8 hPa 0,0 mm 5,0 km/h (1 Bft) S-SW 194 ° 0 min 0,000 mm 0,0 UV-I 0 W/m² 6,7 °C 6,4 km/h (2 Bft)
16.11.2016 23:24 7,4 °C 7,4 °C 95 % 1017,9 hPa 0,0 mm 3,9 km/h (1 Bft) S-SW 194 ° 0 min 0,000 mm 0,0 UV-I 0 W/m² 6,7 °C 6,4 km/h (2 Bft)
16.11.2016 23:25 7,4 °C 7,4 °C 95 % 1017,9 hPa 0,0 mm 2,8 km/h (1 Bft) SW 226 ° 0 min 0,000 mm 0,0 UV-I 0 W/m² 6,7 °C 4,8 km/h (1 Bft)
16.11.2016 23:26 7,4 °C 7,4 °C 95 % 1017,9 hPa 0,0 mm 2,5 km/h (1 Bft) S-SW 203 ° 0 min 0,000 mm 0,0 UV-I 0 W/m² 6,7 °C 4,8 km/h (1 Bft)
16.11.2016 23:27 7,4 °C 7,4 °C 95 % 1017,9 hPa 0,0 mm 1,0 km/h (0 Bft) S-SW 203 ° 0 min 0,000 mm 0,0 UV-I 0 W/m² 6,7 °C 1,6 km/h (1 Bft)
16.11.2016 23:28 7,4 °C 7,4 °C 95 % 1017,9 hPa 0,0 mm 0,8 km/h (0 Bft) S-SW 203 ° 0 min 0,000 mm 0,0 UV-I 0 W/m² 6,7 °C 1,6 km/h (1 Bft)
16.11.2016 23:29 7,3 °C 7,4 °C 95 % 1017,9 hPa 0,0 mm 0,8 km/h (0 Bft) S-SW 205 ° 0 min 0,000 mm 0,0 UV-I 0 W/m² 6,6 °C 3,2 km/h (1 Bft)
16.11.2016 23:30 7,3 °C 7,3 °C 95 % 1017,9 hPa 0,0 mm 2,0 km/h (1 Bft) S 183 ° 0 min 0,000 mm 0,0 UV-I 0 W/m² 6,6 °C 3,2 km/h (1 Bft)
16.11.2016 23:31 7,3 °C 7,3 °C 95 % 1017,9 hPa 0,0 mm 1,5 km/h (1 Bft) S 183 ° 0 min 0,000 mm 0,0 UV-I 0 W/m² 6,6 °C 3,2 km/h (1 Bft)
16.11.2016 23:32 7,3 °C 7,4 °C 95 % 1017,9 hPa 0,0 mm 1,3 km/h (1 Bft) S 183 ° 0 min 0,000 mm 0,0 UV-I 0 W/m² 6,6 °C 1,6 km/h (1 Bft)
16.11.2016 23:33 7,3 °C 7,3 °C 95 % 1017,9 hPa 0,0 mm 1,4 km/h (1 Bft) S 183 ° 0 min 0,000 mm 0,0 UV-I 0 W/m² 6,6 °C 3,2 km/h (1 Bft)
16.11.2016 23:34 7,3 °C 7,3 °C 95 % 1017,9 hPa 0,0 mm 2,4 km/h (1 Bft) W-SW 246 ° 0 min 0,000 mm 0,0 UV-I 0 W/m² 6,6 °C 3,2 km/h (1 Bft)
16.11.2016 23:35 7,3 °C 7,3 °C 95 % 1017,9 hPa 0,0 mm 0,3 km/h (0 Bft) W-SW 246 ° 0 min 0,000 mm 0,0 UV-I 0 W/m² 6,6 °C 1,6 km/h (1 Bft)
16.11.2016 23:36 7,3 °C 7,3 °C 94 % 1017,9 hPa 0,0 mm 0,9 km/h (0 Bft) W-SW 246 ° 0 min 0,000 mm 0,0 UV-I 0 W/m² 6,4 °C 3,2 km/h (1 Bft)
16.11.2016 23:37 7,3 °C 7,3 °C 95 % 1017,9 hPa 0,0 mm 1,0 km/h (0 Bft) W-SW 246 ° 0 min 0,000 mm 0,0 UV-I 0 W/m² 6,6 °C 1,6 km/h (1 Bft)
16.11.2016 23:38 7,3 °C 7,3 °C 94 % 1017,9 hPa 0,0 mm 1,6 km/h (1 Bft) W-SW 246 ° 0 min 0,000 mm 0,0 UV-I 0 W/m² 6,4 °C 3,2 km/h (1 Bft)
16.11.2016 23:39 7,3 °C 7,3 °C 94 % 1017,9 hPa 0,0 mm 0,7 km/h (0 Bft) W-SW 246 ° 0 min 0,000 mm 0,0 UV-I 0 W/m² 6,4 °C 1,6 km/h (1 Bft)
16.11.2016 23:40 7,3 °C 7,3 °C 94 % 1017,9 hPa 0,0 mm 0,7 km/h (0 Bft) W-SW 246 ° 0 min 0,000 mm 0,0 UV-I 0 W/m² 6,4 °C 1,6 km/h (1 Bft)
16.11.2016 23:41 7,2 °C 7,3 °C 94 % 1017,9 hPa 0,0 mm 0,4 km/h (0 Bft) W-SW 246 ° 0 min 0,000 mm 0,0 UV-I 0 W/m² 6,3 °C 1,6 km/h (1 Bft)
16.11.2016 23:42 7,2 °C 7,3 °C 94 % 1017,8 hPa 0,0 mm 1,2 km/h (1 Bft) W-SW 246 ° 0 min 0,000 mm 0,0 UV-I 0 W/m² 6,3 °C 3,2 km/h (1 Bft)
16.11.2016 23:43 7,2 °C 7,2 °C 94 % 1017,9 hPa 0,0 mm 2,4 km/h (1 Bft) W-SW 250 ° 0 min 0,000 mm 0,0 UV-I 0 W/m² 6,3 °C 3,2 km/h (1 Bft)
16.11.2016 23:44 7,2 °C 7,2 °C 94 % 1017,9 hPa 0,0 mm 3,0 km/h (1 Bft) W-SW 256 ° 0 min 0,000 mm 0,0 UV-I 0 W/m² 6,3 °C 4,8 km/h (1 Bft)
16.11.2016 23:45 7,2 °C 7,2 °C 94 % 1017,9 hPa 0,0 mm 2,1 km/h (1 Bft) W-SW 256 ° 0 min 0,000 mm 0,0 UV-I 0 W/m² 6,3 °C 4,8 km/h (1 Bft)
16.11.2016 23:46 7,2 °C 7,2 °C 94 % 1017,9 hPa 0,0 mm 3,2 km/h (1 Bft) W-SW 256 ° 0 min 0,000 mm 0,0 UV-I 0 W/m² 6,3 °C 4,8 km/h (1 Bft)
16.11.2016 23:47 7,2 °C 7,2 °C 94 % 1017,9 hPa 0,0 mm 4,6 km/h (1 Bft) W-SW 248 ° 0 min 0,000 mm 0,0 UV-I 0 W/m² 6,3 °C 6,4 km/h (2 Bft)
16.11.2016 23:48 7,1 °C 7,2 °C 94 % 1017,9 hPa 0,0 mm 4,2 km/h (1 Bft) W 263 ° 0 min 0,000 mm 0,0 UV-I 0 W/m² 6,2 °C 6,4 km/h (2 Bft)
16.11.2016 23:49 7,1 °C 7,1 °C 94 % 1017,8 hPa 0,0 mm 2,9 km/h (1 Bft) W 263 ° 0 min 0,000 mm 0,0 UV-I 0 W/m² 6,2 °C 3,2 km/h (1 Bft)
16.11.2016 23:50 7,1 °C 7,1 °C 94 % 1017,8 hPa 0,0 mm 3,3 km/h (1 Bft) S-SW 207 ° 0 min 0,000 mm 0,0 UV-I 0 W/m² 6,2 °C 4,8 km/h (1 Bft)
16.11.2016 23:51 7,1 °C 7,1 °C 94 % 1017,8 hPa 0,0 mm 3,4 km/h (1 Bft) S-SW 207 ° 0 min 0,000 mm 0,0 UV-I 0 W/m² 6,2 °C 4,8 km/h (1 Bft)
16.11.2016 23:52 7,1 °C 7,1 °C 94 % 1017,8 hPa 0,0 mm 3,0 km/h (1 Bft) SW 224 ° 0 min 0,000 mm 0,0 UV-I 0 W/m² 6,2 °C 3,2 km/h (1 Bft)
16.11.2016 23:53 7,1 °C 7,1 °C 94 % 1017,7 hPa 0,0 mm 3,4 km/h (1 Bft) SW 214 ° 0 min 0,000 mm 0,0 UV-I 0 W/m² 6,2 °C 4,8 km/h (1 Bft)
16.11.2016 23:54 7,1 °C 7,1 °C 94 % 1017,8 hPa 0,0 mm 3,6 km/h (1 Bft) SW 214 ° 0 min 0,000 mm 0,0 UV-I 0 W/m² 6,2 °C 4,8 km/h (1 Bft)
16.11.2016 23:55 7,1 °C 7,1 °C 94 % 1017,7 hPa 0,0 mm 2,0 km/h (1 Bft) SW 214 ° 0 min 0,000 mm 0,0 UV-I 0 W/m² 6,2 °C 4,8 km/h (1 Bft)
16.11.2016 23:56 7,0 °C 7,1 °C 94 % 1017,8 hPa 0,0 mm 4,0 km/h (1 Bft) S 186 ° 0 min 0,000 mm 0,0 UV-I 0 W/m² 6,1 °C 4,8 km/h (1 Bft)
16.11.2016 23:57 7,1 °C 7,1 °C 94 % 1017,8 hPa 0,0 mm 3,4 km/h (1 Bft) SW 221 ° 0 min 0,000 mm 0,0 UV-I 0 W/m² 6,2 °C 6,4 km/h (2 Bft)
16.11.2016 23:58 7,1 °C 7,1 °C 94 % 1017,8 hPa 0,0 mm 2,8 km/h (1 Bft) S-SW 207 ° 0 min 0,000 mm 0,0 UV-I 0 W/m² 6,2 °C 4,8 km/h (1 Bft)
16.11.2016 23:59 7,1 °C 7,1 °C 95 % 1017,8 hPa 0,0 mm 4,6 km/h (1 Bft) S-SW 196 ° 0 min 0,000 mm 0,0 UV-I 0 W/m² 6,4 °C 6,4 km/h (2 Bft)
_ Min-Zeit 00:48 03:40 00:01 23:55 - 22:01 - - - - - - 00:34 22:01
Minimum _ 4,2 °C 4,3 °C 89 % 1017,7 hPa - 0,0 km/h (0 Bft) - - - - - - 2,8 °C 0,0 km/h (0 Bft)
_ Max-Zeit 13:26 13:27 10:45 00:00 20:52 16:33 - - 23:59 14:00 12:58 12:55 13:25 16:37
Maximum _ 9,6 °C 9,6 °C 97 % 1028,6 hPa 0,2 mm 16,3 km/h
W (3 Bft)
- - 0 min 0,051 mm 1,1 UV-I 179 W/m² 8,5 °C 24,1 km/h
W-SW (4 Bft)
Durchschnitt _ 6,7 °C 6,7 °C 94 % 1022,8 hPa #13,4 mm 2,3 km/h (1 Bft) S-SW - #0 min. #0,254 mm 0,7 UV-I 22 W/m² 5,8 °C 3,8 km/h (1 Bft)